GFSMA_850_spd_003.txt.gz
Wind_Speed
7 10 13 15 15 12 14 16 19 22 22 24 25 25 25 23 22 19 16 18 20 22 20 19 19 18 18 18 19 19 20 21 22 20 24 23 25 23 24 25 25 25 26
8 10 14 15 16 14 16 20 23 24 22 25 28 27 28 27 26 27 23 21 20 21 23 22 21 23 23 23 23 22 23 23 23 22 21 25 25 29 30 27 26 27 27
10 13 14 14 15 16 18 23 26 25 25 24 26 27 27 29 32 32 29 26 25 23 23 23 23 23 25 26 24 24 23 25 24 24 22 24 26 34 33 28 28 29 29
5 10 11 16 16 17 21 25 25 24 25 25 24 24 25 29 30 32 34 32 29 28 27 25 23 24 25 25 25 24 23 22 23 24 25 23 26 29 33 29 27 29 31
10 11 14 21 21 21 21 20 19 21 23 27 29 30 28 25 28 30 32 32 33 36 34 32 29 26 24 25 26 25 23 23 22 22 23 24 26 27 30 32 32 35 33
16 20 23 29 24 22 24 25 25 24 26 26 23 24 25 26 25 26 29 29 30 34 40 41 37 35 30 28 28 28 24 25 24 23 23 23 24 26 28 28 29 34 33
28 32 27 27 21 21 22 23 25 27 23 25 31 34 36 33 31 30 28 28 30 27 31 37 43 39 38 35 31 31 30 29 29 25 23 24 24 24 25 27 27 27 30
23 25 22 20 19 20 25 27 27 25 27 25 29 34 33 35 35 29 24 23 26 26 19 18 26 35 40 36 39 34 32 34 28 26 22 19 21 23 24 24 26 26 28
16 13 12 14 15 18 21 23 27 29 31 33 32 31 27 27 32 31 29 27 25 22 17 16 13 22 32 38 38 35 33 33 28 25 20 17 16 18 22 23 24 26 29
14 11 14 17 20 23 25 26 30 33 30 30 31 26 22 21 19 23 29 34 35 34 29 26 16 13 18 32 39 40 36 33 28 24 20 18 15 14 17 21 22 23 25
12 16 23 29 28 29 30 31 32 28 26 24 28 27 26 29 31 31 32 37 39 36 33 37 34 28 21 16 23 29 40 31 25 26 24 21 20 17 15 19 21 21 21
23 29 27 22 20 24 25 25 26 27 30 30 28 32 31 27 29 26 30 37 36 38 33 31 29 27 21 23 19 11 15 22 19 23 24 21 21 19 19 18 19 21 22
25 22 19 18 23 22 22 22 23 26 26 27 30 29 29 29 26 30 28 26 29 32 31 20 19 16 13 15 22 30 16 16 18 16 20 21 24 21 22 23 21 22 21
12 14 20 23 25 26 22 24 24 25 24 29 29 30 32 38 28 22 21 21 25 22 27 27 20 16 10 11 16 22 29 29 25 26 20 21 24 27 26 25 22 23 23
15 19 24 31 25 24 26 27 28 26 26 26 28 29 29 23 25 22 21 21 23 26 31 29 28 20 15 14 15 18 20 20 19 22 19 21 24 26 24 22 22 23 26
18 27 27 25 25 26 25 22 23 24 24 22 21 22 21 21 23 25 22 21 20 20 30 26 27 22 18 18 13 15 21 14 14 12 20 18 18 17 17 20 20 21 23
29 28 23 24 24 24 23 25 25 25 25 24 22 20 21 21 24 28 29 29 27 22 22 27 25 21 22 23 21 15 15 15 16 24 19 19 18 20 21 21 21 20 20
22 17 20 23 23 23 24 23 23 24 22 16 16 21 24 31 32 24 24 26 26 26 24 23 24 20 17 15 15 12 14 14 13 14 17 20 16 14 17 16 16 19 24
21 19 16 19 23 25 26 27 27 26 23 25 29 32 32 29 30 30 25 25 25 19 18 20 23 18 16 14 17 14 11 14 17 12 9 16 19 19 21 21 22 22 21
20 17 16 19 26 26 28 30 28 28 30 32 34 32 34 34 32 30 28 24 25 27 30 27 26 26 25 20 18 19 18 12 16 18 19 16 13 13 12 17 20 22 22
14 14 18 23 24 26 29 28 28 30 33 35 38 39 37 32 24 21 24 24 23 25 26 27 30 30 30 32 29 23 20 19 14 11 8 9 11 14 15 16 20 22 22
13 18 22 22 23 24 27 30 30 30 35 36 31 36 33 23 17 19 21 21 21 17 19 20 23 25 26 25 26 27 27 23 22 19 17 16 14 14 14 14 17 23 28
13 20 20 19 21 28 25 26 32 35 31 29 32 31 27 22 22 24 25 25 24 22 21 22 24 25 27 25 24 25 27 28 25 29 25 26 23 20 17 16 18 19 21
17 18 18 19 25 22 27 28 31 31 31 29 29 29 26 24 23 23 24 24 25 28 27 26 26 30 29 30 23 21 21 23 25 26 26 31 33 32 31 30 24 20 22
17 18 20 23 25 27 29 31 30 29 25 30 26 31 26 26 23 20 22 22 22 22 19 18 18 21 21 23 24 24 26 26 29 28 24 25 24 26 29 31 31 30 29
18 18 20 22 26 28 29 28 27 25 25 27 32 32 21 17 18 18 18 20 23 22 22 22 23 22 23 25 21 22 23 21 24 28 23 22 27 28 29 24 23 22 21

GFSMA_850_spd_006.txt.gz
Wind_Speed
4 5 7 7 7 9 13 15 18 21 25 24 23 25 24 24 22 21 21 21 19 16 17 18 22 19 19 21 23 22 21 20 20 22 22 23 27 25 27 28 27 27 27
7 5 8 9 10 11 13 15 20 23 25 24 24 21 24 26 27 26 24 25 25 24 20 17 16 19 22 23 25 26 25 24 23 22 23 24 26 29 29 29 27 27 28
7 8 8 10 13 16 17 20 23 26 25 24 24 21 20 18 21 23 25 27 27 28 26 24 21 19 18 21 25 27 28 26 25 24 24 24 25 29 29 31 29 27 30
10 9 13 19 23 28 28 28 29 28 25 25 26 25 24 24 21 21 24 28 27 29 31 31 30 26 24 23 20 26 27 27 24 23 22 23 25 27 31 32 32 31 32
12 16 19 28 32 31 31 28 28 27 26 25 27 28 27 24 19 19 21 24 26 23 26 30 34 36 33 28 22 21 25 28 27 23 22 21 23 27 29 31 32 32 33
15 19 26 32 26 21 22 28 22 24 27 30 31 30 30 29 29 27 26 27 26 21 23 24 25 29 38 36 29 25 24 27 29 27 25 24 22 24 28 30 30 29 30
19 27 30 27 21 18 18 20 24 28 29 31 34 38 40 38 33 29 31 31 32 23 17 18 19 21 25 32 38 32 29 29 30 29 30 28 26 23 25 28 29 28 28
28 26 20 17 14 15 18 20 23 26 28 31 35 40 31 38 34 24 27 30 29 29 23 16 14 18 21 24 29 34 33 34 33 32 31 32 27 24 23 25 26 27 27
19 19 15 15 17 20 24 25 26 28 31 32 34 29 26 22 30 28 25 28 29 30 35 37 31 21 18 27 28 30 31 35 35 35 35 30 28 24 23 23 23 24 25
16 15 19 23 27 26 26 28 30 30 31 31 27 24 24 27 20 25 24 35 39 40 40 34 30 29 28 27 25 31 38 36 34 33 31 30 28 26 24 23 22 22 23
13 19 28 28 24 24 23 26 27 25 25 24 27 23 25 25 24 29 35 34 37 33 33 31 28 24 19 17 20 26 30 38 30 29 26 27 25 25 24 22 22 20 20
20 25 27 23 20 22 29 27 25 22 21 19 19 21 23 20 27 29 32 40 38 36 31 27 17 15 13 12 13 18 24 27 34 39 29 19 19 24 25 24 22 20 19
25 18 18 16 21 26 29 25 26 27 30 30 26 25 28 29 27 29 28 32 30 32 32 28 16 15 11 9 11 15 17 24 30 28 32 21 13 15 20 22 20 22 21
19 16 15 20 26 26 25 26 24 20 18 20 21 21 21 21 21 21 24 25 25 26 31 31 25 15 11 10 11 13 16 19 24 28 31 22 19 17 13 17 18 21 22
19 16 19 26 28 25 24 23 23 22 22 20 21 22 22 20 20 20 21 26 24 19 24 21 17 14 11 14 11 14 11 12 17 21 27 34 37 37 39 25 20 20 21
19 18 23 28 24 21 21 19 21 21 22 24 26 24 23 23 21 21 25 27 27 27 21 24 22 15 12 14 13 13 18 17 18 16 20 25 19 11 13 18 23 21 19
24 25 25 24 22 20 18 19 21 23 24 26 21 17 19 23 28 32 33 30 26 25 28 29 20 16 16 14 15 11 9 16 16 14 22 23 14 10 13 17 17 16 18
26 15 23 24 21 19 22 22 23 26 26 25 26 26 30 34 37 32 30 31 29 25 23 24 17 16 17 16 14 13 10 8 15 14 7 21 25 16 13 14 12 12 13
14 20 15 18 17 21 22 23 24 24 23 23 27 29 32 35 39 39 36 32 31 26 22 23 24 22 22 18 18 17 12 7 8 16 11 8 17 17 14 15 15 15 14
17 12 16 15 21 21 22 24 23 24 24 25 28 34 34 32 32 29 24 24 23 24 25 25 26 21 23 26 22 22 25 18 9 4 10 14 14 16 22 19 16 14 13
10 8 13 18 19 21 22 22 25 23 26 33 33 28 30 28 28 17 17 16 17 17 17 17 19 18 20 22 23 24 25 26 21 13 7 10 14 11 14 16 17 18 19
8 10 17 19 21 20 22 20 23 29 30 29 30 29 26 28 23 20 21 24 21 21 18 16 17 18 19 19 21 22 23 23 25 22 22 16 9 7 8 11 14 18 23
18 12 17 19 18 19 19 25 29 29 29 28 28 28 26 27 23 21 21 20 20 19 19 21 24 22 21 21 21 20 20 20 21 22 25 30 26 21 15 11 11 15 17
12 14 16 17 16 21 25 28 28 27 27 28 27 27 28 28 21 19 18 19 19 18 18 18 18 20 21 22 22 22 22 20 20 19 18 26 31 32 30 27 25 24 23
10 14 15 15 19 23 28 29 28 28 26 26 28 28 22 20 16 17 17 17 17 17 17 16 16 17 18 17 16 16 17 18 21 23 20 20 24 26 28 29 27 27 26
15 13 13 15 20 25 28 27 26 27 27 28 25 22 19 18 17 18 18 18 23 23 19 19 22 23 22 22 19 19 18 17 17 20 17 12 15 14 20 27 25 21 20

GFSMA_850_spd_012.txt.gz
Wind_Speed
2 4 6 8 9 10 11 13 17 22 23 22 24 26 25 21 16 15 15 15 16 17 18 18 17 18 20 20 21 18 16 16 17 18 18 18 18 18 19 21 22 25 26
6 7 8 8 8 11 13 16 24 24 20 21 23 19 16 18 19 18 17 16 18 19 19 21 22 22 21 22 25 25 23 21 19 18 19 20 20 19 19 20 23 25 27
8 8 8 8 12 15 17 25 27 20 19 19 18 16 17 18 20 23 23 22 20 20 21 20 22 25 26 26 25 28 29 27 22 19 17 18 19 20 22 21 22 26 27
9 8 10 14 17 21 26 25 22 19 18 18 17 19 21 21 22 25 26 27 26 26 25 23 24 25 24 25 28 30 30 31 27 25 20 17 17 19 21 23 23 24 26
9 12 15 21 31 28 26 24 20 19 19 19 20 20 21 22 25 28 28 27 27 24 25 26 26 25 26 28 29 31 30 32 32 28 25 21 18 19 18 19 22 24 24
15 19 28 23 22 26 25 23 21 20 22 24 25 27 28 27 24 20 24 24 21 23 24 25 26 24 24 28 26 27 30 32 33 33 26 24 23 18 19 19 19 22 24
18 22 22 23 24 25 22 20 19 21 24 29 32 34 34 26 19 26 20 23 30 27 26 27 29 31 31 30 29 28 26 27 31 34 33 25 25 25 21 21 20 21 21
22 23 23 24 22 20 20 23 24 26 26 27 28 28 13 24 12 15 30 25 28 33 28 30 34 36 38 38 37 37 34 29 26 29 34 34 26 25 26 24 22 21 22
20 20 22 23 24 26 30 32 28 26 28 27 25 19 12 10 28 25 27 29 24 29 35 31 31 30 31 33 36 37 38 39 35 30 29 36 33 28 27 28 25 22 23
19 21 24 28 34 36 28 22 25 28 29 29 23 20 16 18 18 23 16 23 31 31 33 35 35 31 26 23 24 27 33 36 36 35 32 31 32 33 29 28 30 26 25
28 30 32 31 26 19 19 19 22 26 27 24 24 24 25 22 18 17 24 26 28 30 31 28 26 26 18 18 19 22 24 28 31 31 30 31 29 30 29 29 28 27 26
24 29 27 25 21 14 15 20 23 21 20 20 20 18 17 17 19 16 20 23 24 28 23 19 17 20 21 19 18 20 22 24 28 30 26 22 21 21 26 31 33 29 26
26 25 23 23 19 16 14 12 18 24 20 18 18 16 17 19 19 18 19 21 23 30 26 27 21 16 18 20 18 17 19 22 24 26 23 20 18 19 21 27 30 31 25
27 25 22 23 25 20 27 18 14 16 16 16 16 16 18 17 17 18 20 22 30 28 33 34 32 24 19 18 16 13 11 14 19 19 22 25 25 21 20 20 19 23 23
26 24 21 22 22 28 17 12 15 16 16 15 17 18 20 20 18 18 19 21 24 31 34 32 34 29 20 18 21 14 12 10 13 18 21 25 27 26 25 23 23 19 23
20 22 21 26 26 25 16 10 14 14 16 18 18 22 22 23 21 22 26 28 30 33 37 38 42 36 25 20 21 22 10 11 13 15 13 15 18 22 25 29 27 31 27
18 23 23 22 22 18 13 11 15 17 19 20 22 24 24 23 27 30 34 35 34 33 36 40 36 34 29 21 21 23 14 6 9 15 14 16 17 17 23 25 27 32 33
18 20 22 22 24 25 13 13 17 20 22 25 26 27 27 28 34 34 32 31 32 31 30 33 31 30 26 19 19 19 13 20 10 14 16 16 13 16 18 25 23 17 12
17 20 23 25 20 14 11 16 19 22 23 26 25 27 31 33 34 31 30 31 31 27 22 20 25 25 24 22 23 25 20 18 18 16 19 16 14 14 15 19 24 18 15
20 20 19 17 16 11 13 18 21 21 24 24 27 31 33 32 31 30 30 30 25 26 26 28 25 23 21 21 25 22 22 25 24 19 19 19 15 12 12 15 22 21 20
16 19 20 14 11 16 18 17 19 21 25 29 32 32 31 30 27 26 26 27 29 27 26 24 24 25 21 15 21 18 20 23 23 22 21 18 16 13 9 9 14 20 21
18 19 14 13 14 18 15 16 21 25 29 32 31 31 31 29 27 24 26 23 20 22 25 25 25 24 24 24 16 16 14 16 20 20 18 17 17 15 7 9 9 14 18
15 14 12 16 16 13 15 19 23 28 29 27 29 28 26 24 22 21 19 18 21 20 17 19 21 23 23 22 22 23 20 18 20 19 19 20 18 19 17 8 8 8 16
18 18 18 12 11 14 19 21 27 26 25 27 25 22 22 21 18 16 24 22 20 19 20 19 20 20 19 19 22 22 23 24 24 24 21 22 20 18 20 21 17 12 16
13 11 12 9 17 16 20 24 24 23 24 24 21 19 19 18 17 20 23 23 20 18 17 20 20 19 20 23 17 15 18 20 21 19 18 20 21 16 16 21 24 24 20
18 17 13 13 12 17 21 20 20 22 23 23 20 19 17 17 18 19 19 22 20 20 20 19 18 18 18 20 23 26 23 15 15 16 16 15 14 9 4 10 16 22 25

GFSMA_850_spd_015.txt.gz
Wind_Speed
4 4 5 6 6 9 10 12 13 20 23 21 20 21 22 18 18 19 19 19 18 17 18 19 19 19 20 21 21 20 19 17 14 12 11 13 15 15 18 19 22 25 25
7 7 8 9 10 12 14 16 21 25 23 22 20 20 17 17 18 19 20 21 21 21 20 21 22 21 20 22 26 27 24 24 21 18 15 12 15 18 18 17 22 26 25
8 8 10 11 12 14 19 23 23 24 23 21 19 20 18 20 21 21 21 22 24 25 26 26 25 25 24 23 23 26 29 27 25 26 22 19 14 15 17 19 21 25 26
6 9 10 12 16 24 23 24 26 23 19 18 18 18 20 23 25 26 25 24 25 26 28 29 28 28 28 27 26 25 25 26 27 26 27 26 21 16 16 18 21 24 25
8 11 14 20 24 24 24 27 23 19 19 19 20 21 22 24 27 28 28 27 26 27 26 28 28 29 29 30 30 29 28 28 27 27 25 27 28 23 17 18 19 21 25
16 14 18 20 20 23 22 21 20 20 22 25 27 28 29 29 27 23 22 25 27 25 28 30 30 32 33 33 33 33 30 28 27 26 26 25 27 29 25 18 18 18 19
15 16 17 18 19 20 21 22 24 26 28 27 27 20 22 18 15 22 26 21 25 29 28 30 29 31 34 35 37 36 37 36 32 29 26 24 27 30 31 25 21 20 19
16 17 18 19 21 25 27 27 26 20 19 22 21 16 14 15 12 13 17 24 22 30 26 28 35 35 33 31 34 36 36 36 38 36 33 28 24 28 29 31 26 23 21
17 18 21 22 25 26 24 20 14 15 14 21 23 12 11 11 21 12 17 19 17 19 26 27 30 31 32 34 33 33 34 34 34 35 35 35 31 24 28 30 30 27 24
17 20 22 26 27 25 19 15 16 18 18 16 18 13 15 15 17 21 17 18 21 22 23 22 23 26 28 25 27 29 29 31 32 31 29 31 32 33 25 30 31 30 29
21 24 26 28 27 24 21 19 17 19 19 16 21 18 13 12 12 14 25 21 21 19 18 20 18 19 23 26 25 25 29 29 28 29 27 25 25 29 28 27 29 32 32
25 27 27 26 26 25 23 18 16 23 23 16 15 13 11 12 14 16 18 20 24 24 22 21 19 20 22 23 26 26 26 28 27 27 25 19 20 21 18 20 28 30 28
29 29 26 25 23 23 18 17 24 16 12 13 15 11 12 13 14 15 16 20 22 27 27 22 23 23 24 24 25 27 26 22 22 24 21 20 18 19 20 17 21 27 29
28 27 26 24 22 20 19 24 15 10 13 13 14 14 15 15 20 19 18 19 27 28 30 30 28 26 26 23 26 29 24 21 18 17 17 19 19 22 19 18 12 16 21
27 24 21 20 20 17 22 16 12 10 13 14 15 18 20 21 21 22 23 21 20 32 37 37 35 28 30 30 28 25 23 23 21 15 12 13 17 18 19 26 22 19 16
25 21 20 20 21 25 20 13 12 10 14 17 18 20 22 24 24 23 25 26 23 27 37 35 34 32 30 29 26 25 23 22 19 17 16 13 11 13 18 21 26 24 23
21 15 16 19 22 23 23 23 14 13 17 20 21 24 23 23 24 22 23 24 25 25 30 40 31 29 29 26 25 22 21 20 17 12 8 13 14 12 13 13 22 28 28
20 16 16 21 22 23 27 16 14 14 18 21 22 24 24 25 26 24 25 24 24 24 26 34 29 25 23 23 23 21 19 18 16 19 13 12 12 12 14 13 11 20 24
22 20 18 23 26 20 16 12 13 17 19 22 22 25 28 31 27 26 26 26 24 23 22 23 30 27 25 22 21 20 19 18 16 14 16 21 18 17 13 14 12 17 17
21 17 16 22 19 10 10 13 18 19 21 22 24 30 33 30 24 25 24 23 23 22 22 24 25 23 22 20 19 18 20 17 17 15 18 20 20 18 15 14 14 17 25
20 18 19 20 16 14 15 17 19 19 21 25 30 31 30 29 28 24 21 21 22 22 21 21 22 22 20 18 18 16 14 18 18 16 16 13 14 15 13 12 13 16 26
20 17 17 14 14 13 17 15 16 20 24 30 29 29 27 25 19 20 20 17 15 19 21 22 22 20 22 19 17 15 15 11 15 11 9 9 11 11 11 9 15 9 20
20 17 17 18 18 14 11 16 20 23 28 26 26 25 23 18 18 16 17 20 21 19 21 23 23 20 20 18 18 18 15 16 15 14 13 14 11 11 12 12 11 10 10
16 15 14 14 11 11 17 18 22 26 23 23 23 22 18 17 15 17 20 21 19 18 17 18 20 19 19 19 18 18 18 17 18 19 16 19 14 13 11 15 14 9 8
17 17 16 14 13 15 15 21 23 22 20 21 21 17 17 16 16 17 19 19 20 19 16 19 20 18 19 19 19 18 21 15 15 16 17 17 17 16 12 13 20 17 14
16 16 13 12 13 13 19 21 21 20 20 20 19 18 19 16 15 18 18 18 19 19 20 19 16 14 14 15 17 17 18 18 13 10 10 12 9 8 6 8 15 21 22

GFSMA_850_spd_018.txt.gz
Wind_Speed
6 6 9 9 9 9 10 10 9 13 15 14 15 19 16 16 19 12 12 20 18 18 18 19 18 19 20 21 20 19 17 18 20 19 17 18 17 17 18 19 20 21 23
8 14 13 12 11 11 12 12 19 20 15 15 14 16 17 16 14 17 14 16 22 23 23 21 22 21 21 21 22 23 24 23 22 22 22 20 19 19 20 20 20 21 22
15 16 14 12 11 13 17 19 19 13 14 15 16 16 16 16 15 15 17 14 15 19 24 24 25 25 25 25 24 24 24 24 24 23 23 24 23 22 21 21 22 24 23
7 10 9 11 14 18 19 13 12 15 16 17 17 17 18 19 19 17 15 18 16 15 17 25 28 28 28 27 27 26 26 26 25 25 24 24 25 25 24 23 23 24 25
5 7 11 13 15 15 14 13 12 14 17 18 18 21 21 22 22 21 18 14 13 14 16 18 27 27 30 30 30 30 29 29 28 27 28 27 25 25 26 26 24 24 25
9 10 13 14 14 9 10 12 15 15 17 18 20 23 21 22 20 18 15 14 15 14 13 16 18 17 24 30 30 30 31 30 30 31 31 29 26 27 28 27 27 26 25
12 12 11 12 12 12 17 19 18 19 21 18 20 21 21 20 15 15 16 17 15 17 19 19 18 20 20 23 24 24 30 32 31 30 31 33 32 27 29 31 29 29 28
13 12 13 10 14 16 17 17 19 17 16 15 16 21 22 22 21 12 18 19 19 20 20 21 22 22 22 20 21 26 22 28 32 33 31 31 33 33 29 30 32 30 30
12 14 15 20 21 20 18 16 12 11 13 14 14 17 18 20 23 23 18 22 19 20 21 21 21 20 20 20 20 19 24 28 30 30 33 32 30 32 33 30 30 34 32
16 19 22 25 23 20 15 12 11 12 10 14 18 16 16 19 22 25 22 21 22 21 23 22 21 21 21 22 22 21 24 27 28 32 31 32 30 28 30 33 30 33 33
15 17 18 19 19 17 14 16 11 9 11 18 17 16 14 14 16 18 24 24 23 20 21 20 22 21 22 22 21 22 29 30 27 28 30 30 29 26 24 26 31 33 34
17 18 20 19 18 15 13 10 13 13 16 13 10 10 12 14 15 17 20 23 24 25 22 23 22 22 24 24 24 25 28 32 29 27 26 28 28 24 23 25 27 30 33
18 19 20 19 17 15 13 16 14 16 11 10 11 11 11 13 15 18 21 26 27 29 28 25 25 25 26 27 27 26 28 30 28 26 23 24 26 23 22 22 25 26 27
18 20 19 17 14 13 13 15 12 14 12 11 11 12 14 16 17 19 22 24 29 31 31 31 28 29 29 27 29 33 29 25 27 29 22 23 23 21 21 21 23 26 24
18 19 18 14 13 12 14 14 16 17 14 14 14 15 16 18 20 21 22 23 25 32 36 35 35 31 30 29 29 30 28 25 26 28 25 23 19 19 19 19 25 21 21
19 18 17 16 15 17 18 17 20 17 16 16 17 18 19 21 22 22 22 23 25 29 38 37 36 32 30 30 28 28 27 28 26 26 26 25 17 16 15 18 24 26 25
18 18 17 16 17 19 23 21 21 20 15 16 17 18 20 22 22 23 24 26 28 29 35 43 33 31 29 28 26 25 23 24 21 26 24 24 9 12 13 13 16 22 24
18 18 17 16 17 19 22 23 18 13 14 18 19 20 21 23 24 25 26 27 29 30 30 37 32 30 27 27 28 26 24 21 21 21 20 21 18 7 8 11 11 16 22
18 17 17 17 17 19 20 16 12 12 15 17 15 17 22 24 25 25 25 27 27 26 24 28 33 28 27 24 25 23 22 21 21 18 19 15 12 14 14 13 12 13 17
19 17 16 17 18 16 13 12 12 13 14 11 14 17 22 21 21 22 24 23 23 22 23 26 28 25 24 23 21 20 20 17 18 18 15 13 15 17 15 13 16 15 15
18 17 17 16 14 11 13 14 11 10 11 15 17 19 18 20 29 22 18 19 19 20 20 22 25 23 23 21 20 20 21 18 19 14 13 15 14 12 10 11 13 16 15
18 16 16 16 13 11 20 15 11 10 15 16 18 17 17 18 16 21 19 20 16 20 23 24 25 25 25 22 18 19 19 16 16 13 7 12 10 9 12 12 16 17 16
17 14 14 12 12 9 12 10 15 16 17 16 15 15 16 15 19 17 18 19 21 20 22 22 24 23 24 22 20 20 19 18 17 15 14 10 11 12 12 13 16 16 15
14 13 13 11 8 9 13 16 16 19 16 13 14 14 15 16 16 20 18 19 19 19 20 21 20 22 22 21 20 18 19 20 19 19 16 18 15 14 12 12 15 15 11
14 13 12 10 8 9 14 15 20 19 14 15 13 13 15 14 16 17 18 20 19 19 18 21 23 23 20 21 21 18 19 18 20 16 16 19 18 16 15 14 12 15 11
13 11 11 10 13 12 16 18 19 16 14 14 13 13 16 20 20 17 17 17 18 18 20 21 18 17 16 16 15 15 17 18 18 15 12 12 11 11 11 10 10 11 16

GFSMA_850_spd_021.txt.gz
Wind_Speed
8 4 7 10 11 10 10 11 12 12 14 15 15 16 15 16 16 14 13 23 23 23 22 19 20 20 19 20 19 19 19 18 19 20 21 21 18 16 17 20 21 20 21
13 28 18 12 12 10 10 10 13 15 15 16 17 17 18 18 17 17 15 19 23 22 24 23 21 21 21 21 20 21 21 21 21 21 23 24 23 21 19 19 21 23 23
20 10 15 16 10 9 10 11 13 13 15 18 18 18 19 18 19 19 19 17 19 22 21 23 27 25 25 25 24 23 23 23 23 23 22 23 26 25 23 23 21 22 26
9 9 7 5 12 9 9 10 12 14 15 17 19 20 20 21 21 22 21 20 15 16 20 20 23 27 29 27 27 27 25 24 25 26 26 25 24 26 27 26 25 23 23
5 2 4 6 10 8 10 12 13 15 18 21 23 22 22 24 22 22 20 19 16 16 15 19 22 22 19 25 28 29 25 21 25 24 27 29 29 27 28 28 28 28 26
4 1 5 11 10 9 12 13 16 17 20 23 24 22 22 20 22 20 15 15 16 16 17 16 21 19 23 23 25 24 18 22 21 19 25 27 29 31 28 29 30 29 29
6 9 4 8 10 11 13 16 19 20 20 20 21 21 21 23 20 16 22 15 13 17 19 22 20 19 22 22 19 18 23 20 18 25 32 30 28 29 32 31 30 32 30
5 4 9 9 11 14 17 18 18 19 17 16 19 21 24 24 19 15 17 19 24 19 21 20 22 21 21 20 19 22 18 24 29 31 31 29 31 30 30 32 33 32 33
5 8 10 12 15 16 17 18 17 15 17 17 16 18 24 23 25 23 23 24 25 23 21 22 22 21 21 20 20 19 23 27 31 30 30 30 29 29 30 31 33 33 32
9 11 13 15 16 17 18 17 15 15 15 17 18 20 21 22 24 29 22 21 21 23 22 23 22 21 23 21 21 21 25 29 30 33 31 29 29 27 28 28 30 34 34
11 12 15 16 18 18 17 16 17 15 15 18 21 20 18 18 19 22 27 25 23 23 22 22 21 23 24 23 25 24 27 32 36 35 33 29 28 26 26 26 26 28 28
11 12 14 16 17 18 17 16 16 15 18 18 18 16 17 17 19 20 23 25 27 26 23 22 24 24 24 26 27 29 30 32 35 36 33 28 26 23 23 23 25 25 27
11 13 16 17 17 17 17 17 17 18 18 16 15 17 16 16 16 17 20 24 27 29 29 25 25 26 26 29 30 31 32 34 37 35 29 31 27 24 24 24 25 25 24
12 15 16 17 16 15 16 20 18 18 16 14 16 15 15 15 16 18 20 23 27 31 30 29 27 29 30 30 32 32 31 32 34 33 31 33 31 26 24 23 24 27 25
12 14 15 16 16 16 17 20 19 18 17 17 17 15 14 16 17 17 20 22 25 30 32 32 33 31 31 31 32 31 31 30 31 32 34 33 31 27 26 23 24 23 30
13 14 15 16 16 17 18 20 22 23 22 20 20 14 15 18 17 19 21 23 24 29 36 34 35 33 32 31 29 30 29 32 30 30 29 27 27 26 25 23 19 23 26
14 15 16 17 16 16 18 20 23 22 21 20 15 15 16 16 18 20 24 26 28 29 34 37 36 34 31 29 29 29 30 30 30 29 27 32 30 28 25 23 18 20 22
15 16 17 16 17 18 18 18 22 19 15 14 13 15 17 18 21 24 26 26 27 28 31 36 37 33 30 28 29 28 27 24 26 25 29 23 33 25 25 22 14 18 19
16 17 17 17 18 16 21 16 17 15 13 13 13 14 17 19 23 24 22 23 25 26 27 29 34 31 30 28 27 25 24 24 23 24 27 25 16 15 20 20 17 15 18
17 17 17 18 18 18 16 14 12 12 12 13 11 13 18 21 20 18 22 20 20 22 23 24 27 27 26 25 25 26 24 22 23 21 25 20 11 14 17 15 16 18 20
16 17 17 18 18 17 13 10 12 11 11 12 15 18 19 20 26 26 22 19 18 19 20 22 25 28 25 26 24 27 24 20 20 21 22 18 15 17 12 10 7 15 16
17 17 17 16 15 12 14 16 13 9 11 15 18 18 16 17 16 21 19 22 22 20 22 25 25 27 27 25 24 26 24 21 22 18 14 21 11 8 10 11 14 17 20
17 17 15 13 12 11 15 13 11 14 12 15 16 15 15 14 17 16 18 22 21 21 24 26 25 24 25 23 24 24 21 20 21 20 19 17 12 11 10 11 13 19 25
17 15 14 13 11 13 15 15 13 15 13 13 13 13 13 14 15 22 23 19 19 19 19 20 22 26 26 26 25 24 23 23 22 22 19 23 18 18 14 13 15 16 20
16 15 14 12 12 14 17 18 15 15 13 13 12 12 13 14 16 22 22 19 19 19 17 21 24 26 23 20 18 19 19 20 21 20 17 21 20 21 18 18 16 18 20
13 15 13 12 12 14 19 19 16 16 12 12 12 11 15 21 23 22 21 20 19 19 22 22 19 18 17 17 19 16 15 17 17 20 17 14 12 13 15 20 18 17 18

GFSMA_850_spd_024.txt.gz
Wind_Speed
9 8 9 15 11 8 10 7 10 14 16 13 14 14 14 18 16 16 17 19 21 23 20 21 22 20 19 18 17 17 18 19 18 18 18 17 18 19 19 18 17 16 17
9 9 16 17 10 13 17 13 9 14 11 11 14 17 17 18 16 14 16 20 21 24 20 17 17 20 21 21 21 20 19 20 21 22 22 21 19 18 20 22 20 18 17
12 12 14 9 13 15 12 12 12 12 16 18 16 18 18 19 19 17 21 20 25 26 18 19 20 19 26 28 25 23 22 21 22 23 24 25 24 22 18 21 24 24 21
9 9 3 8 10 10 11 15 13 14 17 17 19 23 21 21 23 21 21 18 18 19 18 19 21 26 26 28 24 20 21 18 19 22 23 26 27 28 27 22 22 26 26
2 4 6 11 10 6 7 10 13 18 21 21 21 20 24 24 18 19 21 22 16 16 16 19 21 20 23 22 22 27 23 17 20 20 18 22 27 29 31 31 26 24 28
2 3 7 10 9 5 9 14 20 19 20 21 23 21 21 17 18 15 24 16 17 15 10 16 20 14 13 17 19 17 18 22 21 17 19 22 25 27 27 30 32 28 27
2 0 7 5 7 11 13 16 19 19 21 20 19 17 18 22 15 14 13 11 12 15 18 19 16 17 20 21 16 16 20 18 16 20 23 26 26 27 28 28 31 32 30
5 2 11 12 13 17 19 17 19 21 17 14 17 21 20 21 19 18 22 22 21 18 20 19 23 22 21 18 19 18 18 20 24 23 23 25 28 28 28 28 29 31 32
6 10 12 14 18 18 16 17 20 15 17 16 14 14 20 16 25 21 19 22 23 22 23 21 19 21 21 21 24 20 24 29 29 30 31 29 29 29 28 28 28 29 32
8 7 8 12 13 18 21 17 15 19 21 18 15 15 20 23 22 27 18 18 21 20 21 22 21 21 20 22 24 21 28 28 29 33 34 31 31 29 29 27 27 29 28
9 11 13 17 19 21 20 21 18 20 21 19 17 19 18 17 18 20 25 19 21 23 23 23 20 22 23 21 24 23 21 27 31 32 33 33 31 30 28 27 26 26 28
10 12 16 19 18 16 16 17 19 19 19 17 22 16 14 15 17 17 19 23 24 24 22 24 22 22 21 20 22 25 32 36 37 38 38 34 34 32 29 26 26 24 22
12 13 17 18 17 18 15 16 20 20 23 26 17 16 18 21 17 15 18 23 23 29 29 25 28 28 26 29 31 30 32 36 38 38 38 35 32 30 29 27 26 24 23
11 13 16 18 17 16 14 18 22 23 24 21 20 19 18 18 19 16 16 19 26 30 29 30 27 28 30 30 26 31 32 34 36 36 35 36 36 31 32 28 27 26 27
11 12 17 16 16 16 15 20 22 22 20 21 20 23 19 19 14 17 19 18 22 29 32 32 31 27 26 29 30 33 37 37 35 34 36 34 32 32 30 29 27 27 28
13 13 15 16 17 18 16 16 18 18 21 25 25 23 24 14 16 18 15 18 21 27 35 31 31 27 24 32 34 37 35 39 39 35 31 30 31 33 30 28 25 25 27
13 14 15 16 17 16 17 16 18 19 22 25 20 16 17 13 15 15 17 21 23 24 29 31 31 29 31 36 41 33 32 31 29 28 29 29 32 32 27 30 26 23 26
14 15 16 17 17 17 19 24 24 18 18 15 13 11 12 14 13 17 21 22 26 29 31 34 33 34 34 35 29 28 28 29 29 30 28 29 32 29 29 29 27 25 24
15 17 17 17 18 18 19 18 13 16 15 13 15 14 14 13 19 21 23 28 29 29 24 28 35 34 28 26 28 27 28 28 26 25 24 27 28 31 26 20 16 18 23
17 18 16 17 18 19 19 17 11 11 16 14 14 13 14 18 20 23 26 31 26 24 25 25 27 29 28 28 25 28 30 29 31 24 24 26 28 26 13 14 17 18 19
20 18 16 17 18 17 18 14 16 16 12 11 11 14 16 19 23 25 23 25 24 26 27 23 26 27 27 25 26 28 30 30 29 22 25 25 21 24 18 19 16 15 17
18 18 19 17 17 18 20 17 15 13 11 12 14 16 19 16 17 19 20 19 24 27 24 25 29 30 31 27 27 27 29 29 30 24 21 27 22 21 12 12 11 12 13
19 21 19 18 17 17 19 16 14 14 14 11 14 16 17 12 18 19 22 25 26 19 19 23 26 25 22 24 30 33 33 30 30 27 24 29 24 23 18 16 14 12 17
19 20 19 18 17 18 17 18 16 17 16 13 15 18 15 14 21 23 23 26 23 19 15 17 23 26 28 32 22 21 23 25 24 23 22 28 25 26 20 20 19 17 19
19 19 18 16 14 17 18 19 17 17 17 16 15 15 14 18 22 23 25 24 22 21 14 20 26 21 17 16 18 22 23 22 23 22 19 21 24 25 20 21 21 19 21
17 15 17 17 16 16 19 20 19 19 19 16 13 14 15 18 20 23 24 22 22 21 24 22 18 18 15 16 18 19 19 23 23 26 19 18 20 17 13 14 16 18 20

GFSMA_850_spd_027.txt.gz
Wind_Speed
9 9 11 10 12 10 11 9 9 13 15 13 12 11 13 16 17 13 11 15 17 18 22 23 20 17 16 19 19 18 17 18 17 17 18 18 17 17 19 19 16 15 13
6 9 9 14 13 8 11 14 15 13 15 15 14 17 17 17 15 14 16 16 19 20 22 25 18 18 21 24 27 28 24 20 19 19 20 21 22 22 19 21 22 19 19
9 11 10 10 9 10 11 12 14 15 17 17 18 19 17 15 16 17 17 17 17 19 19 15 19 19 21 21 23 24 23 18 16 21 21 22 24 25 25 23 22 24 24
10 10 9 8 6 9 13 16 18 18 16 20 21 19 16 17 19 21 20 14 19 21 16 15 14 16 18 19 15 17 16 12 16 18 18 20 22 24 27 28 26 25 26
9 6 6 7 10 12 14 16 17 18 22 23 22 22 17 18 19 13 17 11 10 8 6 10 12 16 14 13 14 13 12 13 17 15 18 19 22 28 27 27 28 29 27
7 7 9 10 11 12 14 16 18 21 22 22 23 21 13 11 14 16 13 6 6 5 8 8 12 14 17 18 19 15 12 17 15 17 17 20 21 22 25 25 25 28 29
7 8 9 10 12 15 17 19 22 21 21 22 21 22 19 18 11 9 15 15 16 16 15 18 19 21 24 22 22 21 20 13 17 15 15 20 25 25 25 26 27 26 28
7 6 8 12 15 17 19 18 19 20 18 18 20 20 12 21 8 10 15 18 22 19 16 16 17 18 19 19 19 18 18 19 19 21 21 19 21 26 27 27 27 27 27
5 8 11 14 16 17 18 19 20 19 18 17 16 17 9 5 25 13 23 17 15 18 16 17 16 17 15 16 20 22 19 18 21 23 23 20 22 25 29 29 28 27 26
9 13 13 15 17 18 20 22 20 20 21 23 20 14 17 21 24 21 11 15 14 17 22 24 19 15 18 19 14 14 15 18 18 24 24 25 27 28 28 30 29 28 26
13 18 19 20 19 20 20 18 17 16 17 19 20 20 20 22 18 20 22 19 21 22 21 19 20 24 26 23 22 20 22 26 29 31 30 27 29 32 33 32 31 29 27
16 17 16 16 17 18 17 15 15 17 18 20 21 21 22 15 18 20 21 22 23 25 23 20 24 25 28 29 29 30 31 30 32 33 35 31 31 33 33 30 28 28 28
13 14 15 16 17 17 16 13 16 18 21 24 24 22 17 16 18 19 18 18 21 29 28 26 27 27 25 27 27 28 30 33 38 42 42 37 34 33 31 30 28 29 27
12 14 14 15 17 18 16 15 16 21 24 19 19 20 20 19 24 23 21 18 22 28 28 29 28 29 27 24 22 27 32 36 38 42 44 42 35 33 30 28 27 28 27
11 12 13 14 17 18 17 13 16 16 17 16 16 21 23 23 22 26 15 14 15 20 29 29 29 23 20 22 25 28 35 41 45 45 40 37 30 27 27 27 28 27 25
13 13 15 16 17 19 15 14 15 16 18 20 21 22 20 20 17 13 9 13 15 16 25 28 29 29 29 32 35 39 42 43 37 30 25 24 26 28 29 30 30 27 25
15 17 19 18 18 17 16 19 19 21 23 21 21 16 13 13 13 10 11 16 20 24 28 32 36 37 38 39 39 38 30 27 25 27 27 26 26 27 29 28 26 23 24
15 20 20 20 20 16 16 20 22 22 21 17 16 14 14 9 12 14 18 22 25 26 32 36 36 35 35 33 28 27 25 24 27 26 24 23 24 26 28 29 26 28 27
18 20 20 21 20 17 18 20 20 12 15 16 16 17 17 15 17 19 22 25 28 32 29 26 31 30 26 24 24 22 23 27 27 27 28 23 22 25 26 27 28 25 18
21 22 23 25 18 18 19 20 21 19 18 15 15 16 14 16 18 20 24 29 28 28 25 28 29 25 25 24 23 26 29 29 32 30 26 18 19 24 24 23 22 17 18
20 24 22 19 20 22 21 22 23 18 18 17 14 14 16 18 21 24 25 25 27 26 28 30 27 27 28 28 27 28 29 34 40 37 31 24 23 22 21 23 17 21 19
21 20 20 20 22 23 22 25 22 16 15 14 16 17 19 23 23 21 22 24 24 27 29 24 25 26 27 22 23 30 36 36 34 27 26 28 22 21 22 22 16 8 8
23 19 21 23 24 22 21 21 20 19 18 17 18 17 18 21 20 21 22 25 23 24 21 21 21 24 28 28 30 33 24 26 28 28 26 26 21 25 23 20 22 17 15
20 21 24 24 23 22 19 20 20 19 19 18 18 18 18 18 18 21 23 23 24 22 19 15 20 27 29 24 18 19 23 28 28 25 21 24 22 23 21 20 18 17 16
26 23 19 21 20 19 18 17 19 19 19 20 19 18 16 17 19 21 23 25 25 20 17 16 16 16 14 12 13 17 21 21 27 27 24 22 21 23 20 13 10 11 17
16 19 19 20 20 22 22 23 23 21 20 18 19 17 16 18 19 20 23 24 21 17 17 16 19 16 10 12 13 14 17 21 25 31 28 21 24 19 21 9 13 15 19

GFSMA_850_spd_030.txt.gz
Wind_Speed
9 9 10 8 5 5 6 7 9 10 14 13 13 9 10 14 17 19 15 15 13 13 13 13 18 15 13 15 18 21 24 24 20 20 21 21 19 18 18 19 17 18 18
11 11 11 10 12 11 9 11 12 13 13 14 14 15 18 17 17 15 18 20 19 14 14 16 15 15 13 14 16 19 19 24 24 20 18 20 23 23 23 21 22 21 21
11 12 12 11 9 8 9 9 11 12 14 16 17 20 17 14 13 17 18 21 20 14 11 12 11 11 10 9 12 12 10 13 20 22 22 23 25 25 26 26 26 24 24
15 13 14 10 5 7 10 13 15 17 19 19 21 19 16 15 15 17 18 18 15 9 3 6 5 11 13 14 13 12 13 11 11 11 13 20 27 34 36 31 29 28 27
15 11 9 7 7 10 14 15 17 19 20 22 20 20 18 10 8 9 13 7 5 3 2 8 9 7 8 11 13 14 10 11 13 10 15 14 20 30 34 29 27 25 27
10 9 7 7 10 13 14 16 18 20 22 22 21 20 14 11 15 14 11 9 10 9 3 5 9 13 16 16 14 17 14 15 12 12 14 19 21 20 20 22 25 26 25
9 8 9 11 13 14 17 20 21 20 20 21 19 19 20 8 10 10 13 14 14 15 17 15 12 11 12 14 15 15 13 14 13 13 14 16 16 18 20 22 24 27 27
10 11 11 12 14 18 20 19 19 20 20 19 17 18 5 18 4 9 18 16 21 21 20 18 13 12 10 10 11 12 12 12 13 14 16 16 17 19 22 25 27 27 28
15 13 11 13 19 19 18 19 21 20 18 18 19 15 9 6 19 11 18 6 8 14 18 20 21 16 14 15 18 17 16 15 14 17 21 16 18 21 25 29 30 31 30
14 11 13 18 20 17 18 19 21 20 19 17 17 19 18 19 20 14 11 15 17 15 16 18 20 24 21 21 21 20 21 21 23 24 25 22 22 24 27 30 33 32 32
15 13 17 20 17 18 18 18 17 17 16 16 18 18 19 21 24 22 22 17 20 23 22 19 20 19 20 25 25 28 26 28 25 26 26 23 25 27 28 29 31 33 31
14 16 17 17 18 17 17 17 16 14 13 15 17 20 21 22 17 18 24 25 24 24 24 21 21 23 24 24 25 26 27 27 26 26 28 28 29 29 31 32 30 30 31
18 18 17 14 14 15 15 15 15 15 16 19 21 17 18 17 19 21 21 25 25 25 23 22 23 22 24 26 28 26 24 27 31 34 36 37 38 35 33 32 29 28 28
13 10 11 15 15 15 16 16 15 15 17 18 21 20 18 20 23 25 27 30 28 31 25 23 22 23 27 28 25 26 29 32 34 37 41 45 41 29 26 25 25 25 26
11 11 14 14 16 18 18 17 16 15 16 19 20 23 24 24 22 23 25 23 16 14 22 22 22 26 28 29 31 32 36 40 42 42 39 28 22 22 22 23 24 25 27
10 15 15 17 18 19 20 18 17 17 19 21 24 27 24 21 18 17 17 16 13 16 20 26 29 31 34 35 36 36 36 35 32 28 24 24 23 23 22 23 24 25 26
15 16 17 21 22 21 21 18 18 21 24 26 24 22 21 19 18 15 15 16 16 21 25 31 32 34 32 32 33 30 28 26 24 24 25 23 24 22 23 24 25 27 27
15 15 17 19 23 23 22 19 19 22 22 25 23 19 18 17 19 17 16 18 22 24 26 32 31 30 31 29 24 23 22 21 23 26 25 25 24 24 23 24 24 26 27
15 13 17 18 24 24 21 20 22 23 21 20 22 17 18 18 16 17 19 21 23 26 26 27 29 30 31 26 25 24 24 25 25 27 30 31 25 21 21 22 22 25 27
10 12 17 22 22 23 21 20 22 22 20 23 17 20 17 19 20 21 22 25 26 24 25 27 30 31 30 29 26 26 28 28 35 33 23 21 18 22 22 23 24 23 21
9 10 17 22 24 22 21 20 20 20 20 19 20 18 20 22 22 23 25 23 23 25 27 29 31 30 30 29 27 29 32 35 32 24 20 27 25 21 20 19 20 21 15
3 14 21 20 20 21 20 19 20 21 20 18 18 18 20 20 22 23 22 21 21 25 26 28 28 27 27 27 30 33 32 27 31 27 33 28 22 18 17 19 19 19 23
13 14 19 18 19 20 21 22 20 21 20 20 21 22 21 22 22 21 19 19 22 21 24 24 26 24 28 29 27 23 21 24 26 24 27 30 23 21 17 17 16 18 18
12 21 21 22 25 23 21 18 18 20 21 22 21 21 22 23 21 19 19 21 21 23 22 20 20 21 21 22 21 20 21 24 27 26 25 30 26 20 20 12 11 12 12
19 19 20 17 17 19 18 18 20 22 23 21 20 19 20 21 19 19 20 22 23 21 18 16 15 17 18 16 15 17 19 22 27 27 25 25 29 27 22 12 7 13 11
16 17 20 22 23 20 20 21 22 21 20 19 19 19 19 18 19 19 19 21 21 17 15 16 13 16 16 17 16 15 16 20 22 28 25 29 27 23 18 11 13 17 17

GFSMA_850_spd_033.txt.gz
Wind_Speed
11 9 8 7 6 4 6 8 8 8 10 10 11 12 13 15 18 18 16 14 15 15 10 10 14 12 11 9 11 14 17 20 20 20 20 22 21 20 19 19 21 23 24
8 8 8 10 9 8 8 9 9 10 10 11 12 13 15 18 18 15 15 15 15 16 11 7 9 7 7 11 13 15 16 12 13 11 19 24 25 23 21 22 22 23 27
13 11 12 13 10 8 9 8 7 9 11 13 14 17 18 16 17 18 19 18 16 15 13 9 9 7 10 2 4 5 6 8 9 10 14 16 21 27 31 32 34 31 28
15 15 13 12 9 9 9 8 9 12 15 17 18 18 17 16 14 16 16 17 19 8 8 8 7 10 8 8 10 3 7 12 12 14 12 10 22 29 32 36 37 34 30
19 16 14 12 10 9 8 10 13 16 17 18 18 18 16 13 14 15 17 18 15 4 5 9 8 6 8 11 10 9 10 11 14 11 12 17 21 25 29 31 28 24 25
15 14 11 11 9 7 10 15 18 18 19 20 19 18 16 16 17 15 17 12 11 11 9 10 13 15 15 14 12 11 11 13 15 14 14 16 17 17 18 21 19 21 22
11 12 12 10 8 10 15 17 19 20 22 21 22 20 19 11 9 11 14 13 16 18 18 19 19 18 16 16 17 16 11 12 13 15 15 16 20 18 18 18 21 22 24
12 11 11 10 11 14 17 22 24 24 23 22 20 20 6 11 16 11 11 19 19 16 12 17 19 20 18 16 14 16 17 14 14 15 17 19 19 19 21 23 24 25 26
13 12 12 12 13 16 19 24 25 24 22 21 18 12 7 4 16 14 10 15 10 11 17 18 20 21 23 20 19 18 18 17 17 18 17 18 20 23 24 26 29 29 29
15 13 14 14 15 16 21 24 23 22 21 18 15 14 13 15 14 12 14 17 18 22 17 21 20 23 21 22 21 22 22 23 25 21 18 20 21 24 26 27 30 31 30
16 16 15 14 14 18 22 21 20 20 17 14 12 11 13 16 19 23 27 19 17 18 24 23 23 21 21 20 23 24 27 26 26 24 19 18 21 24 27 28 30 32 33
19 18 17 15 14 18 20 22 20 17 16 14 14 16 17 18 18 19 23 24 25 27 25 25 23 22 21 25 22 23 25 29 29 27 26 26 28 29 30 33 34 34 34
22 20 16 15 21 17 22 19 17 16 15 15 15 16 17 17 18 20 23 27 29 27 21 22 20 19 20 21 22 25 27 25 27 29 33 35 35 35 36 36 32 29 29
21 16 13 21 16 15 15 15 16 15 15 14 15 17 18 21 21 21 23 23 26 24 23 17 13 14 18 23 28 28 30 31 34 36 40 42 41 33 26 27 27 26 27
18 18 20 8 12 15 14 16 15 15 14 13 15 19 23 22 19 18 20 22 23 21 20 11 15 21 26 30 34 33 32 33 32 32 32 30 24 24 25 26 26 27 27
23 22 9 11 12 12 14 16 15 15 15 17 19 20 21 21 18 16 17 20 18 18 22 24 27 28 31 33 31 31 30 29 27 25 24 25 24 23 24 26 24 26 26
21 17 17 11 10 13 15 18 17 16 16 18 19 22 22 20 19 20 21 19 17 18 23 30 31 32 33 31 31 29 27 26 25 23 24 25 25 25 26 26 27 27 28
18 17 13 10 10 13 17 20 17 17 18 18 18 21 22 18 18 20 19 17 20 20 22 30 34 32 32 30 30 28 26 24 23 24 24 28 30 30 29 26 24 26 27
19 15 15 7 10 15 19 20 20 17 19 18 18 18 21 18 19 18 19 20 20 23 25 27 30 32 32 30 29 28 26 25 25 26 25 20 19 23 24 26 26 25 25
16 15 9 7 11 20 21 19 18 19 18 18 18 19 19 18 18 20 21 22 24 24 23 25 29 30 30 29 28 28 32 31 32 24 15 16 22 21 23 25 27 26 27
15 10 9 8 18 22 21 18 20 18 18 18 18 18 19 18 18 20 22 22 22 21 22 26 28 30 29 28 27 29 30 30 24 18 21 20 22 22 21 19 20 23 24
13 10 14 23 17 22 17 19 18 18 18 18 19 18 19 19 21 22 22 21 20 20 23 25 28 28 27 26 27 26 25 25 28 23 29 29 24 25 20 18 17 20 23
5 16 24 15 21 21 21 20 18 19 19 20 20 20 20 20 21 21 21 20 19 21 23 26 26 23 24 23 25 26 22 23 25 27 26 29 25 26 20 19 15 12 18
21 26 13 19 23 22 18 17 19 19 20 21 21 22 20 20 19 20 19 20 21 21 22 22 20 19 19 22 21 22 22 25 29 28 23 29 25 28 22 18 11 11 14
13 13 19 19 21 22 21 19 17 18 21 22 22 22 21 18 18 20 19 20 21 21 21 16 16 16 17 17 20 22 23 24 30 30 24 22 30 31 25 20 10 11 18
14 15 18 21 24 24 22 20 19 21 22 22 22 22 21 19 19 18 19 19 21 19 16 15 15 15 15 16 20 18 19 21 24 29 21 29 31 27 23 19 9 17 20

GFSMA_850_spd_036.txt.gz
Wind_Speed
12 10 8 7 6 5 5 5 5 6 8 10 11 13 14 17 19 21 17 14 12 12 10 7 10 10 8 5 7 10 13 10 14 16 16 19 21 19 19 21 22 23 23
10 9 9 9 9 7 7 7 7 8 7 10 13 15 18 20 20 17 14 13 13 13 10 8 10 6 4 7 10 10 7 10 11 11 15 19 21 22 25 31 29 29 30
10 10 11 11 11 9 8 7 6 8 9 13 16 18 18 17 15 13 13 11 9 10 10 10 10 8 4 6 5 4 7 7 8 13 14 13 13 18 28 30 32 33 32
11 14 15 14 12 10 7 6 7 9 12 16 17 16 15 14 14 14 13 14 14 11 7 9 9 10 9 11 8 3 5 7 11 14 16 18 15 18 19 24 29 25 25
16 18 16 14 12 8 6 7 9 12 15 14 15 15 15 14 15 14 14 14 13 7 6 7 10 11 12 13 12 9 9 10 12 13 14 15 14 15 17 20 21 21 20
19 19 16 13 10 7 8 9 11 12 13 15 16 14 16 16 13 11 10 15 10 10 13 12 12 15 17 19 18 17 10 11 13 14 14 16 16 17 20 19 19 20 21
16 16 14 12 9 9 9 8 10 11 14 17 17 19 16 9 8 9 14 15 15 19 20 14 13 15 16 16 17 16 17 13 13 14 15 16 18 19 18 19 20 21 21
13 14 14 12 12 10 8 10 13 15 18 20 19 19 9 12 7 11 16 17 20 19 12 16 19 19 19 19 20 18 19 18 16 14 15 17 18 19 20 22 23 23 24
16 17 16 14 12 9 9 13 16 18 21 22 21 16 7 4 21 12 21 14 20 15 15 19 22 22 22 23 22 21 20 20 19 18 17 19 20 22 23 24 25 26 26
19 17 15 14 12 10 11 14 17 22 28 24 19 16 14 14 11 13 12 17 19 17 19 20 20 25 24 23 22 22 22 22 23 23 18 19 21 22 24 25 26 28 28
20 17 17 16 15 12 13 19 22 32 26 20 18 16 14 13 16 20 24 19 20 18 21 21 24 23 23 21 22 23 23 23 24 27 29 26 21 23 26 28 29 30 31
20 20 20 18 14 13 17 24 30 24 20 19 17 15 15 14 14 15 21 25 26 24 21 22 21 24 22 24 19 20 22 25 29 32 33 32 29 28 30 31 32 33 34
24 25 23 21 18 16 26 27 18 18 18 16 15 14 13 13 16 19 21 23 23 22 25 20 18 23 26 21 18 22 27 31 34 35 36 37 38 34 33 34 33 31 30
27 26 26 21 18 26 27 17 16 16 14 14 14 13 14 16 17 18 19 21 21 22 21 18 16 17 18 20 24 29 33 35 34 34 34 35 36 35 29 27 28 28 29
30 31 27 24 21 18 12 11 12 13 14 14 12 13 14 13 16 16 16 17 17 18 19 17 17 15 21 24 30 33 33 32 31 31 31 31 30 25 25 25 26 28 29
33 30 23 23 13 9 9 9 10 13 13 12 13 14 15 16 17 16 15 16 18 19 23 23 21 24 24 29 29 29 30 30 30 30 29 27 27 26 26 27 27 28 28
31 24 22 18 11 10 9 8 13 14 12 11 13 14 15 17 17 16 16 18 19 20 24 28 26 26 29 29 29 29 28 28 28 26 26 26 26 28 29 30 30 29 29
26 22 17 12 12 10 7 10 17 14 15 14 15 16 16 17 18 16 18 18 20 21 24 26 29 30 30 29 29 29 27 25 25 25 25 26 27 24 21 24 26 28 28
22 18 12 11 13 8 7 15 18 17 17 18 18 16 16 17 18 18 17 19 21 21 22 27 29 29 30 28 30 29 27 28 27 26 20 15 15 18 21 22 24 25 28
20 19 14 14 11 8 17 16 20 20 19 20 19 18 17 17 18 18 18 20 20 22 22 24 25 27 29 29 28 29 30 28 28 22 14 14 17 18 20 22 23 25 24
22 21 18 16 11 22 24 17 21 19 21 21 20 19 18 18 19 18 19 20 21 21 20 21 24 26 29 29 27 26 28 30 28 17 20 20 17 17 19 20 21 20 19
26 24 20 14 26 25 15 19 21 21 22 22 22 20 19 19 20 20 21 21 21 20 20 21 24 26 27 26 24 25 26 27 25 23 28 27 22 20 21 22 21 19 18
23 20 15 22 27 19 18 23 24 24 22 22 24 21 21 21 21 21 21 21 21 19 20 22 25 25 24 21 22 24 25 25 26 28 28 31 22 23 23 24 20 18 15
10 17 24 26 15 19 21 21 22 22 23 23 24 23 23 24 23 21 20 21 20 20 21 23 24 21 20 19 20 22 26 28 29 27 22 28 21 26 28 24 16 15 14
23 25 20 16 20 21 23 23 23 23 23 22 23 25 25 25 23 21 21 21 21 21 20 22 20 18 17 17 19 22 24 25 30 30 20 17 26 29 30 23 14 14 13
16 15 17 18 21 24 22 22 20 22 24 24 25 28 27 25 24 23 23 21 22 20 19 19 17 16 16 16 18 19 21 23 25 27 13 25 27 24 29 27 23 19 18

GFSMA_850_spd_039.txt.gz
Wind_Speed
13 12 10 8 8 6 3 4 5 5 7 9 10 12 14 16 17 16 14 13 11 10 9 9 12 14 13 9 7 9 12 13 10 12 13 20 18 16 14 19 24 24 24
12 11 10 10 8 7 6 6 6 6 8 10 11 13 16 17 16 14 12 11 9 7 8 8 10 9 12 12 10 14 13 8 7 10 14 12 16 18 23 27 26 27 25
14 12 11 11 9 8 7 6 6 7 8 10 13 16 16 14 13 11 10 9 9 8 5 7 12 12 6 6 6 5 5 9 8 11 13 10 11 17 17 14 18 23 19
13 14 10 11 10 9 8 7 7 7 8 11 14 14 14 13 12 11 9 9 9 7 2 8 11 14 14 13 10 6 9 10 11 11 12 12 14 15 13 15 17 17 16
12 12 13 13 11 11 10 9 7 7 10 11 12 12 12 12 10 8 7 8 8 3 2 5 9 11 13 14 15 16 11 12 13 13 14 14 13 14 13 16 17 16 17
13 15 15 14 14 13 12 10 7 8 9 10 10 11 13 11 8 7 6 10 9 7 10 11 11 14 15 15 15 16 11 13 14 14 15 15 15 15 17 16 16 17 18
17 17 16 16 15 15 13 10 8 9 9 10 11 14 9 10 8 6 9 15 11 15 13 11 8 13 14 15 16 17 17 13 13 14 15 15 16 18 17 17 18 19 20
16 16 16 16 17 16 12 10 9 9 9 10 10 13 7 9 8 9 17 11 14 14 15 11 14 18 17 16 18 20 20 20 18 15 16 17 18 19 20 21 22 22 23
16 17 18 18 17 15 14 11 8 7 12 14 16 14 6 5 12 9 13 12 11 20 16 15 18 19 18 22 21 22 21 21 20 20 19 18 18 19 21 23 24 25 25
19 18 20 19 18 16 13 10 9 10 15 22 24 18 15 14 6 9 7 12 18 18 15 15 18 18 22 23 22 22 22 21 22 22 20 19 20 21 23 24 26 27 28
21 21 21 20 20 18 15 12 9 16 24 21 16 16 14 14 14 12 18 14 16 12 13 16 17 21 22 24 24 24 26 25 22 23 25 28 28 26 27 28 29 30 30
24 24 23 23 21 20 17 13 20 26 17 16 15 14 14 9 9 10 15 18 18 15 14 13 15 20 23 25 25 28 26 25 26 30 33 35 36 34 31 31 31 31 32
30 28 27 26 23 22 19 20 19 18 15 12 13 14 14 13 13 13 14 18 18 17 16 13 13 15 17 22 26 26 25 28 32 35 36 36 35 35 34 31 30 30 30
31 30 29 27 25 22 19 19 16 15 10 12 14 14 13 12 14 15 15 16 20 20 17 19 15 15 16 17 22 26 31 35 35 34 34 34 33 33 32 27 27 28 28
31 32 31 28 25 21 18 16 13 9 8 15 14 14 13 13 14 15 17 17 15 19 20 15 14 15 16 23 25 29 33 34 34 33 33 33 32 31 28 27 27 27 28
32 33 33 29 24 19 18 14 10 5 14 15 13 12 13 14 15 15 15 16 16 18 19 17 16 16 21 23 27 31 31 32 32 31 31 31 30 30 29 26 27 28 30
34 34 32 26 21 16 11 8 6 11 15 13 12 12 13 13 15 15 15 16 15 17 19 20 19 18 25 27 25 27 29 29 29 30 30 31 31 31 30 30 30 28 28
33 33 28 23 15 14 13 10 11 19 12 15 14 15 14 15 15 16 16 17 17 16 18 22 20 19 21 22 26 28 27 27 27 28 28 26 27 27 22 21 23 25 26
30 31 27 22 20 18 14 14 16 16 15 18 18 18 18 17 17 17 17 18 18 20 22 22 23 20 20 18 20 22 22 25 23 26 26 24 20 17 20 21 23 25 27
25 28 24 20 18 21 17 16 25 20 18 22 22 22 21 20 18 18 18 19 20 22 20 21 21 20 19 18 20 20 21 20 22 23 19 18 17 20 21 19 22 24 25
24 25 26 25 25 20 17 26 25 18 22 23 23 24 23 22 20 19 20 20 22 22 19 19 20 19 19 18 19 18 20 21 21 18 17 17 20 19 18 19 21 23 23
25 26 24 19 21 28 29 30 19 20 23 24 26 26 25 24 22 21 21 21 23 22 21 18 18 19 19 19 17 17 19 19 23 17 21 23 19 20 18 18 23 26 24
25 22 22 29 32 30 27 19 20 24 26 26 26 26 27 27 23 23 24 24 24 23 23 20 20 19 20 18 16 17 17 20 23 22 23 24 19 19 17 19 20 20 22
16 25 22 25 24 26 19 19 21 26 28 28 27 26 27 27 27 25 26 26 25 25 23 22 23 22 22 20 18 16 19 21 22 20 19 24 17 19 20 19 13 15 19
15 18 23 20 20 18 16 21 25 25 25 25 26 27 26 26 29 28 29 29 27 26 23 21 23 22 21 19 18 16 18 21 23 22 18 13 16 23 21 18 13 19 18
14 15 16 17 19 20 22 24 24 27 28 27 27 28 29 29 31 30 31 30 30 27 23 22 22 21 19 19 17 16 16 19 20 20 9 15 19 17 18 13 19 20 19

GFSMA_850_spd_045.txt.gz
Wind_Speed
14 13 12 11 10 11 10 8 4 4 3 2 1 2 6 9 6 2 7 10 7 5 7 7 12 11 11 8 8 10 9 11 9 12 14 11 17 17 17 17 21 18 17
14 12 12 11 11 10 9 7 7 6 5 4 2 5 6 2 3 2 1 10 11 6 6 9 11 12 11 11 11 11 11 10 10 11 10 14 18 16 11 13 13 13 17
15 12 12 11 11 10 10 8 9 8 5 4 4 3 3 4 3 4 1 1 10 11 6 6 11 13 12 12 14 12 9 8 7 8 10 14 11 14 13 13 13 13 14
14 14 12 11 12 13 10 8 8 7 7 6 5 3 2 4 6 4 3 1 3 4 11 5 10 14 17 18 15 14 10 9 10 11 12 11 13 14 15 14 13 15 15
17 14 12 12 15 11 10 10 9 9 8 5 5 4 5 5 7 5 6 4 5 3 4 12 10 13 17 18 19 18 15 11 12 13 13 13 12 12 13 13 15 18 18
19 18 13 14 13 11 10 10 10 9 8 7 6 8 8 8 7 8 8 6 6 6 5 7 9 12 13 15 17 23 24 15 13 13 13 13 14 14 16 17 18 19 19
19 19 14 15 14 13 13 14 12 11 8 8 5 7 11 17 14 9 10 9 9 8 8 8 9 7 12 14 17 16 16 17 14 13 14 14 15 16 17 19 20 20 20
18 19 17 16 15 15 16 16 14 10 9 9 6 7 10 12 12 12 11 11 11 10 10 10 11 11 12 11 15 17 19 21 22 19 18 18 16 19 20 20 20 21 23
20 21 19 18 17 17 17 17 17 15 11 10 9 11 7 10 12 12 13 12 11 12 10 12 12 12 13 13 14 16 21 19 18 22 24 23 22 21 23 23 24 26 27
21 21 20 20 21 18 17 17 16 15 15 13 15 15 15 12 8 10 10 12 13 10 12 11 11 12 13 13 14 17 25 27 25 24 22 25 28 25 25 26 27 29 30
23 23 22 23 23 19 17 18 17 18 16 17 14 12 8 9 12 14 16 13 12 12 13 13 13 13 13 13 13 20 24 24 25 27 28 29 29 29 29 29 29 30 31
20 24 25 26 25 26 23 21 23 21 20 18 18 12 11 11 14 15 18 18 17 17 17 15 15 12 12 13 15 21 26 28 28 28 29 31 33 35 34 32 28 29 29
24 27 28 28 28 28 25 26 25 24 19 19 16 9 10 12 14 14 16 18 17 16 16 16 16 17 14 16 15 20 24 29 31 34 33 33 33 34 33 33 31 28 28
37 31 30 27 27 28 30 27 26 22 20 19 12 9 12 12 14 14 16 17 18 17 18 18 16 16 16 16 18 25 28 26 28 33 37 35 34 32 31 31 31 29 28
31 31 28 27 27 30 29 28 25 23 20 16 12 11 12 16 13 15 16 16 15 19 20 17 17 16 18 19 19 20 21 24 30 35 34 33 32 30 29 31 32 31 29
29 27 26 26 26 29 30 27 26 21 17 11 15 14 15 14 15 17 17 16 16 18 23 19 19 19 20 20 21 23 22 27 29 29 33 33 34 35 33 32 33 33 29
24 23 26 28 27 28 28 26 21 17 16 19 16 17 15 17 19 19 18 18 18 18 23 24 21 20 21 21 23 25 22 24 26 26 28 33 35 35 33 31 31 30 27
20 22 22 25 24 27 24 22 20 17 21 18 17 16 14 19 21 21 21 20 20 21 23 26 25 24 24 23 24 24 25 24 25 26 28 31 33 32 30 27 26 25 25
21 20 21 22 27 24 22 23 20 24 23 22 21 17 20 20 24 25 24 24 23 24 24 25 27 26 25 24 24 24 24 24 26 24 26 26 29 30 29 28 27 26 23
16 17 18 21 22 20 21 25 23 24 20 27 25 23 22 23 25 26 27 28 26 28 27 27 28 27 26 25 23 25 26 24 24 25 24 25 25 25 26 27 27 25 23
10 12 13 16 18 19 22 22 22 18 26 31 28 29 23 22 24 29 31 31 28 29 28 28 28 27 27 26 24 24 24 25 26 23 24 22 22 23 22 23 23 23 17
8 7 8 8 10 13 15 22 17 21 31 30 30 23 21 24 27 29 31 32 39 38 34 32 30 29 29 27 24 23 23 24 27 21 21 25 22 23 22 21 21 24 27
2 2 3 5 7 7 13 15 22 26 27 27 22 21 23 24 26 27 29 33 34 35 38 42 38 33 31 28 25 23 23 24 26 24 22 27 22 24 22 20 21 25 28
2 1 2 4 8 12 15 19 20 22 21 20 21 23 25 27 27 28 30 32 33 33 34 34 37 39 36 29 25 23 22 22 24 22 19 26 22 24 21 22 24 24 25
4 5 5 8 11 15 12 14 17 18 19 22 23 24 26 28 30 31 33 36 38 38 36 34 36 34 35 30 31 24 25 21 26 22 18 21 22 23 24 27 22 21 24
1 0 1 3 7 9 12 16 19 20 23 24 24 26 28 31 33 34 35 36 36 37 36 33 31 32 35 40 39 38 31 25 23 24 16 18 20 20 27 22 12 24 25

GFSMA_850_spd_048.txt.gz
Wind_Speed
13 9 8 6 6 6 5 7 10 6 5 4 2 2 5 7 4 2 8 10 8 6 7 7 9 8 7 5 5 9 9 8 10 11 12 16 19 18 17 13 19 19 18
16 13 14 10 9 15 11 11 5 4 3 3 4 2 3 3 1 5 5 11 11 8 5 10 10 11 10 9 8 9 10 10 11 8 8 12 13 16 12 14 18 12 14
17 14 17 13 18 13 13 10 12 6 9 4 9 5 4 5 5 6 3 7 10 11 8 7 10 12 12 12 12 12 11 11 7 7 7 9 12 12 14 15 15 12 13
15 15 13 18 15 16 18 15 13 10 8 8 9 7 6 7 10 9 4 6 3 6 9 7 6 13 16 15 13 10 7 10 9 9 10 10 10 10 10 12 11 14 16
16 20 17 17 19 19 14 11 9 11 11 12 10 10 12 10 12 5 10 13 10 9 3 6 10 10 14 16 18 19 20 20 20 14 12 12 11 11 12 13 15 16 17
24 21 20 19 20 16 14 16 15 15 14 11 10 11 15 15 14 12 13 11 8 15 10 8 11 9 11 12 12 14 16 21 16 11 10 11 12 13 13 14 16 17 18
23 24 20 21 19 17 16 17 18 18 19 20 18 14 12 16 18 18 15 13 9 14 14 14 16 9 10 9 12 17 18 16 17 18 17 14 12 13 15 18 19 19 19
23 22 22 21 21 18 20 21 21 21 17 17 14 11 10 8 18 16 14 15 14 14 13 14 12 13 15 12 16 18 16 18 21 21 20 20 21 17 17 18 20 21 23
23 23 20 22 22 19 22 23 23 20 17 20 17 13 6 5 12 14 16 16 15 16 18 15 20 16 15 15 19 21 21 18 17 19 24 22 21 18 19 21 21 23 26
27 23 22 22 24 24 23 26 23 21 22 18 19 17 13 12 7 6 7 13 18 20 18 17 14 17 18 16 17 21 23 24 25 23 24 24 24 20 20 21 22 24 26
24 25 24 24 29 27 25 26 23 20 22 25 21 20 12 10 11 11 15 14 14 18 15 17 17 16 16 19 19 22 22 24 25 27 29 26 27 27 25 25 24 25 26
18 25 26 26 30 29 25 26 26 25 28 26 20 17 13 9 10 11 14 15 14 15 16 18 19 21 23 16 18 20 23 25 28 29 30 32 30 28 29 28 27 25 26
18 28 22 26 31 28 26 27 29 30 29 23 20 18 14 11 16 17 15 22 23 23 23 21 19 19 22 19 20 24 24 27 29 33 35 31 34 33 32 30 29 28 26
25 33 32 28 29 30 28 30 31 29 25 23 20 18 18 21 21 18 18 19 21 24 24 21 17 18 18 18 20 22 24 29 31 34 34 36 38 34 33 29 29 29 29
30 32 33 29 28 29 28 30 32 29 23 21 20 20 22 21 16 15 17 18 22 23 23 23 21 19 21 19 21 24 25 27 29 32 34 35 33 35 33 32 32 32 31
30 24 24 26 26 26 29 30 30 27 23 19 20 20 16 16 16 14 19 22 23 24 27 23 23 23 25 26 24 25 26 28 29 30 33 34 33 33 36 34 33 32 30
22 23 22 25 25 25 29 31 30 26 22 22 23 17 18 20 18 19 20 23 25 25 27 28 24 22 23 22 21 23 26 28 33 28 29 32 33 35 32 31 31 27 26
21 21 22 22 23 26 31 31 27 21 23 26 20 17 16 15 16 19 23 25 29 28 29 32 30 30 29 28 29 30 29 30 32 32 31 31 28 29 27 32 30 26 26
22 23 19 20 22 25 26 24 20 22 26 22 20 18 18 18 20 21 25 28 30 30 31 31 33 32 30 28 30 28 29 28 29 29 28 22 23 27 33 30 27 27 27
19 18 19 21 22 22 23 22 21 21 22 21 20 20 24 23 24 24 27 29 29 31 33 34 35 35 33 32 29 28 29 28 28 24 24 30 34 28 26 25 28 28 29
17 16 17 16 15 17 17 14 14 17 19 20 19 22 29 25 22 20 24 29 32 36 38 35 32 32 31 30 28 27 24 23 26 26 28 31 28 25 27 31 24 26 27
10 8 7 8 9 9 9 11 10 15 14 19 23 30 26 18 18 23 26 29 31 35 38 40 43 41 38 32 27 26 25 26 29 30 26 31 27 32 32 24 23 25 25
8 7 7 6 6 6 7 7 8 11 18 23 24 22 20 21 22 27 31 33 35 35 35 40 43 43 43 43 42 38 30 27 31 30 26 32 33 27 22 24 25 28 30
8 7 7 6 4 6 7 9 13 17 17 17 16 17 22 25 26 27 31 35 38 39 40 36 39 41 41 39 40 37 33 35 29 33 31 28 26 26 25 25 24 26 27
9 11 9 6 6 6 6 9 13 15 16 18 21 24 25 28 29 31 33 36 39 42 42 43 40 41 38 39 35 35 33 33 35 34 30 25 25 26 25 28 30 24 22
7 7 6 5 1 5 8 12 15 19 21 25 27 28 30 32 33 34 38 42 45 45 41 38 38 38 36 35 38 38 32 34 38 38 36 23 23 24 29 31 12 16 28

GFSMA_850_spd_051.txt.gz
Wind_Speed
14 16 15 13 11 10 11 10 7 6 9 10 5 2 4 3 0 1 6 8 8 7 6 8 8 7 7 5 4 7 7 8 10 11 8 14 13 17 11 12 14 14 14
13 14 14 11 9 9 9 8 9 8 8 6 4 2 1 2 0 5 8 9 8 7 5 7 9 11 10 10 7 9 10 9 11 6 7 7 9 12 12 13 14 12 13
16 14 12 14 13 13 11 13 12 7 6 5 5 5 4 2 3 6 9 10 11 10 7 5 8 12 12 12 12 10 12 11 7 6 5 6 6 8 8 8 11 12 12
19 17 16 17 15 16 15 16 13 12 10 9 8 9 7 7 8 9 9 11 11 12 12 9 4 10 15 15 13 13 11 9 9 10 11 8 8 8 9 12 14 13 14
17 20 21 19 20 19 18 20 18 15 12 12 13 12 12 11 11 11 13 14 14 14 14 12 11 10 11 15 16 17 18 19 19 17 14 11 12 10 10 11 12 13 14
24 22 24 20 22 21 20 21 17 15 16 17 17 15 15 14 12 13 14 14 13 15 14 13 15 14 14 12 13 14 16 16 15 11 11 15 15 12 12 14 15 16 16
25 31 25 26 25 21 20 21 20 21 22 20 19 19 15 15 15 15 17 17 16 15 16 16 14 17 17 14 13 15 16 16 17 19 20 21 22 22 15 15 16 16 17
23 25 28 27 26 22 22 23 24 23 23 24 22 21 16 15 15 17 19 20 18 17 18 18 17 20 17 17 17 20 20 21 20 22 22 22 22 25 22 16 18 19 19
29 29 25 26 28 25 25 26 26 24 23 22 23 19 9 10 9 10 9 17 20 19 19 21 21 20 20 24 21 23 23 24 23 22 24 25 26 26 22 18 19 20 21
31 30 25 24 27 27 23 28 26 26 22 22 23 24 22 15 9 6 8 11 14 22 23 21 21 20 24 23 22 22 23 24 22 24 24 25 26 27 26 23 20 21 22
30 28 30 28 24 25 28 27 27 27 25 27 24 27 22 18 19 13 13 13 12 15 22 23 20 21 25 26 27 25 25 25 26 26 26 25 28 29 28 26 23 23 23
29 25 25 31 27 30 31 26 24 27 27 28 29 25 24 22 20 15 19 21 21 19 13 16 18 21 26 27 26 27 23 24 25 27 28 27 29 28 30 30 24 23 22
31 31 21 25 27 27 26 26 28 29 30 27 29 27 24 25 23 23 25 26 23 28 28 29 21 15 18 20 26 26 25 27 28 29 29 28 30 31 33 30 29 26 24
28 21 16 25 23 27 26 26 31 31 31 32 32 24 25 23 24 21 24 25 26 27 27 25 25 24 21 19 21 24 25 26 27 28 29 29 30 30 33 33 29 28 25
28 28 24 28 25 27 26 29 32 31 33 33 27 26 26 22 25 25 23 21 24 29 30 29 29 26 26 23 23 26 25 25 25 27 28 28 29 32 34 33 31 29 26
27 29 29 30 27 26 27 28 29 30 31 30 28 25 23 25 21 24 21 21 20 25 31 31 31 26 25 26 28 29 31 29 30 32 31 34 33 33 32 31 26 27 27
31 31 24 20 22 27 28 28 27 29 30 31 26 22 21 16 21 19 18 22 25 25 31 36 33 29 28 27 28 31 30 30 32 33 35 33 31 32 31 26 25 27 27
26 22 20 22 24 27 28 28 28 30 30 28 23 19 15 20 14 13 17 23 26 27 30 37 40 37 33 34 36 35 34 35 35 34 33 30 31 30 30 26 29 30 26
27 23 22 23 24 25 23 25 27 27 27 22 15 15 18 14 15 19 20 23 25 27 29 35 39 37 37 35 35 35 35 35 36 34 33 30 29 30 29 30 30 26 27
24 22 22 22 21 23 23 23 24 20 18 13 14 19 19 14 23 23 25 24 25 26 27 31 35 38 37 35 34 36 38 37 35 36 29 28 28 28 32 32 28 27 29
20 22 22 21 21 20 19 18 16 14 10 14 20 18 14 20 26 19 17 19 23 28 31 35 39 41 43 42 40 39 39 35 32 33 27 28 32 32 31 32 29 30 29
22 22 20 19 16 15 13 13 12 10 13 15 14 16 18 27 17 16 19 23 26 29 32 33 36 37 40 41 42 43 39 34 29 29 28 32 33 33 32 31 31 20 21
19 18 17 16 14 13 13 12 12 10 10 12 15 20 19 15 16 23 26 29 30 31 33 35 38 41 41 41 40 41 40 39 37 39 28 31 33 33 30 30 19 18 24
15 15 15 15 15 12 12 11 10 10 13 15 14 15 17 20 24 29 33 35 38 39 41 40 39 41 40 40 38 38 39 38 39 34 28 33 36 34 29 24 18 22 25
16 15 14 13 12 11 9 10 11 11 13 13 14 17 21 23 26 28 32 35 39 40 39 40 41 40 42 40 40 34 36 35 36 38 29 31 38 34 29 24 21 25 28
14 12 12 12 14 14 13 12 12 12 13 15 17 19 21 23 25 25 27 30 36 36 37 39 38 39 38 36 36 41 27 33 33 31 31 25 27 21 21 22 22 18 25

GFSMA_850_spd_054.txt.gz
Wind_Speed
27 21 20 14 14 15 14 11 9 6 5 6 6 4 2 2 2 2 5 6 7 7 5 6 6 5 7 7 8 7 9 10 11 12 9 12 15 15 10 16 17 17 14
21 18 15 14 14 12 12 10 8 3 6 9 8 7 5 3 0 2 5 6 7 7 6 4 7 7 9 10 9 10 10 11 11 10 6 6 12 11 10 10 14 9 11
16 15 13 15 15 14 13 10 9 8 9 9 8 8 6 5 4 5 6 6 12 10 8 6 8 9 11 12 10 12 14 14 13 7 7 9 10 9 13 14 14 12 13
19 16 16 18 16 17 16 12 13 12 11 10 9 11 8 8 7 6 8 7 12 10 11 10 9 7 12 15 16 17 17 14 10 8 14 11 9 10 12 13 12 12 13
19 20 16 14 15 15 16 16 17 15 14 14 13 12 13 12 9 10 10 10 10 10 10 11 11 11 12 14 16 17 15 15 16 15 10 10 13 15 15 16 15 14 15
21 21 19 18 16 18 18 21 20 17 18 17 16 16 16 15 14 13 13 14 13 14 12 10 11 11 12 14 17 17 16 13 11 11 15 21 21 22 22 20 19 15 16
21 21 21 22 20 22 22 22 21 22 22 20 19 21 20 20 20 17 15 16 16 18 18 15 15 15 15 15 15 17 18 15 15 20 22 22 23 24 24 24 24 20 18
26 26 28 29 25 25 24 25 25 25 23 23 25 25 21 23 24 23 21 19 19 21 21 19 19 20 19 18 16 16 17 20 21 21 23 24 23 24 25 25 25 18 18
30 25 24 26 28 28 29 27 27 27 28 28 29 25 11 18 19 21 21 18 20 24 23 23 23 22 22 22 21 21 21 21 19 21 22 22 21 23 24 26 25 21 20
32 26 25 26 27 28 31 30 29 31 30 29 31 30 31 21 10 7 16 18 20 22 23 25 26 27 25 25 24 27 27 24 22 23 22 24 23 24 26 25 25 27 22
33 28 29 30 26 27 30 31 31 33 32 29 30 33 30 27 23 18 16 22 18 19 22 24 27 29 27 26 28 31 29 28 28 27 24 25 25 27 27 27 28 28 23
33 30 29 29 27 29 30 30 29 30 26 29 32 33 30 30 27 22 22 24 22 25 26 22 22 27 26 29 30 28 29 30 32 30 28 27 28 28 27 28 29 26 22
36 33 33 33 27 23 28 26 33 29 26 31 33 32 33 30 27 25 28 23 24 25 24 26 31 30 28 24 23 28 30 31 33 29 28 29 29 29 27 27 30 29 25
33 34 34 29 26 21 26 28 28 25 29 31 30 30 26 26 27 29 27 25 28 26 30 33 29 29 25 24 26 26 26 29 29 28 29 29 29 29 27 28 28 28 23
36 37 35 32 25 23 24 24 26 26 27 29 30 30 27 28 27 26 22 22 23 30 29 32 27 26 26 28 29 28 26 25 27 29 30 31 30 29 30 27 27 27 26
35 30 27 34 28 24 26 22 24 23 26 27 29 29 28 28 24 19 20 22 28 28 29 28 27 28 29 30 31 31 32 33 30 30 33 34 34 33 30 27 28 29 27
35 31 32 29 28 27 27 25 25 26 25 27 28 28 26 23 17 20 22 25 23 26 33 35 34 32 32 32 30 32 34 34 37 39 39 40 39 36 33 27 30 30 29
33 34 28 27 26 26 24 23 24 26 27 27 27 25 23 18 18 18 16 17 19 22 28 34 33 34 34 34 35 32 33 37 42 45 39 45 39 33 34 29 31 31 29
33 36 29 28 24 23 23 25 26 27 27 25 23 21 19 16 18 19 16 19 23 26 27 31 36 36 37 32 33 35 37 37 40 40 43 38 40 39 32 31 33 30 30
40 34 28 24 23 23 25 25 27 26 22 20 20 19 17 20 21 16 21 22 19 20 22 27 32 36 37 36 36 36 39 38 39 39 42 42 43 37 36 33 34 31 29
29 26 25 25 24 24 25 25 22 20 20 19 18 17 18 20 14 18 22 16 18 22 26 29 33 36 38 38 37 37 36 36 38 37 39 42 40 36 39 31 35 31 25
29 27 25 26 25 24 22 19 19 19 19 18 16 17 19 16 18 24 20 21 22 26 30 32 33 36 40 39 39 37 36 36 39 45 38 35 37 35 36 33 33 27 26
26 25 25 24 22 19 18 18 19 18 17 14 16 17 17 21 25 23 23 24 26 29 33 37 41 41 44 42 40 41 38 36 40 37 33 37 35 42 30 33 32 27 22
24 24 23 22 21 20 19 18 17 16 15 17 18 20 22 23 22 24 27 29 30 31 31 33 34 37 38 39 37 40 41 46 50 41 35 35 35 35 26 30 30 26 21
23 23 22 21 20 20 18 17 18 19 18 18 18 19 19 20 23 25 27 29 30 30 28 28 28 28 29 27 26 30 31 29 34 39 38 30 30 30 19 26 29 29 18
20 20 20 19 18 18 19 19 18 17 17 16 16 18 19 20 21 23 25 27 29 29 31 32 33 31 29 27 24 21 25 27 28 31 26 26 27 29 23 22 21 18 15

GFSMA_850_spd_057.txt.gz
Wind_Speed
30 26 24 22 20 19 15 13 11 11 8 5 3 1 2 4 5 4 6 6 10 9 7 1 6 1 3 6 7 8 9 10 12 13 12 11 14 15 13 13 17 11 12
29 25 22 20 16 14 13 10 8 6 5 4 4 5 3 3 2 1 4 6 10 7 5 3 3 4 4 6 8 7 8 11 12 12 10 6 14 10 13 15 15 13 11
27 22 21 18 14 12 12 11 9 7 5 6 8 9 7 5 4 3 4 5 8 6 4 3 5 7 8 9 10 9 11 13 11 8 5 9 12 13 16 18 18 17 16
21 20 20 16 14 13 14 11 9 8 7 8 8 9 9 8 7 6 6 6 7 6 6 5 6 6 8 12 14 15 14 14 12 9 9 15 16 17 20 21 21 20 20
26 22 19 18 13 15 18 16 12 11 12 12 11 11 10 9 9 11 9 7 8 8 8 8 8 7 7 9 13 15 15 13 12 15 13 14 20 22 22 22 23 21 20
24 21 21 16 14 16 17 16 15 16 16 15 13 13 14 14 14 15 12 11 12 12 12 11 11 10 10 10 11 14 14 15 16 11 14 21 23 23 22 24 23 23 23
28 25 17 17 18 17 16 17 17 21 21 19 16 17 18 19 21 20 19 16 16 15 16 15 14 14 13 13 13 13 13 14 14 16 20 20 22 21 21 21 22 22 22
26 21 18 19 19 19 18 20 21 24 25 23 22 21 20 24 26 26 24 22 22 20 20 19 18 18 17 17 17 16 14 14 17 19 19 21 21 21 21 20 22 23 21
27 23 20 22 24 25 24 24 24 26 29 28 27 23 10 16 19 22 26 26 24 21 21 22 22 21 22 23 23 22 20 18 19 20 22 23 23 23 22 22 24 25 24
32 31 26 24 25 25 27 29 28 29 30 31 30 30 32 29 12 9 17 18 19 18 22 25 24 24 25 25 26 26 24 25 25 24 24 26 25 24 25 25 27 26 26
38 35 32 30 29 28 29 29 29 30 31 34 34 34 32 33 30 24 24 23 23 20 19 21 24 26 28 28 28 29 27 29 28 27 27 28 28 27 26 27 28 28 25
39 39 38 35 32 31 33 32 28 27 30 28 37 36 34 35 35 29 31 30 24 25 24 23 25 26 25 25 28 29 30 31 28 29 29 31 30 31 29 29 29 29 24
39 40 37 37 33 34 33 26 33 30 27 31 31 29 31 38 30 30 25 26 27 27 25 27 29 26 27 29 28 27 27 26 29 32 33 31 31 31 31 31 31 30 27
36 34 32 34 34 34 32 32 28 32 30 29 25 28 36 28 32 28 28 28 29 27 30 29 29 28 32 29 25 24 25 27 28 29 33 32 32 33 34 34 33 31 28
39 33 30 32 35 36 36 32 28 28 28 25 27 32 30 31 26 25 28 29 26 24 26 28 29 32 26 21 23 27 28 27 25 25 27 30 33 34 36 36 36 34 30
38 37 36 35 36 40 42 33 30 28 25 25 26 26 31 27 27 26 27 23 20 20 25 29 30 29 26 27 29 30 30 30 31 30 30 32 34 37 39 41 41 39 32
40 36 31 35 32 36 42 36 32 27 25 26 27 29 29 27 26 23 23 21 20 22 25 27 28 26 27 28 27 27 30 33 36 35 36 34 38 41 43 45 45 42 32
42 42 36 42 30 35 39 37 30 27 30 26 27 27 28 23 20 22 21 19 20 21 25 29 29 29 28 28 31 33 33 31 33 32 33 36 38 41 45 42 50 46 40
40 46 36 36 36 34 32 33 27 27 25 26 27 27 22 20 21 22 19 20 22 24 26 28 29 28 28 29 32 34 36 38 38 38 39 39 37 40 40 40 42 46 43
49 41 39 39 34 32 32 27 27 27 27 27 25 23 22 21 21 21 22 23 24 25 23 23 26 28 30 32 35 38 42 42 43 40 41 41 41 43 40 39 43 49 45
37 39 38 38 38 31 29 27 27 28 28 26 23 20 21 20 22 23 25 23 23 22 23 25 27 31 34 37 39 41 43 47 50 47 46 44 40 39 37 38 37 41 37
41 37 34 34 30 30 29 28 28 28 25 22 22 23 21 22 22 22 22 23 22 23 24 28 31 35 37 39 40 40 41 43 44 41 31 40 34 35 33 34 32 38 42
36 34 33 28 29 29 30 29 26 22 21 22 22 22 24 23 23 21 23 23 22 24 27 31 33 34 35 33 34 35 34 35 40 43 36 44 39 44 39 32 30 37 39
29 31 31 28 28 28 25 24 23 22 22 22 22 23 22 22 23 22 23 23 25 26 27 28 28 29 30 29 29 30 32 36 38 37 29 33 34 36 35 31 29 31 26
31 28 25 27 27 25 25 23 23 23 22 22 21 22 22 23 23 22 24 25 26 26 27 27 28 28 27 26 24 26 29 30 36 37 32 32 31 31 26 24 22 19 21
25 28 26 25 24 23 23 20 19 20 20 20 20 20 19 19 21 23 24 25 25 26 26 27 27 28 28 27 24 22 25 27 28 33 32 28 30 24 25 26 23 21 22

GFSMA_850_spd_063.txt.gz
Wind_Speed
37 35 31 29 27 26 22 20 20 18 16 14 13 12 12 10 9 9 10 9 8 6 7 5 6 4 4 4 3 5 7 9 10 10 8 10 16 16 16 16 15 13 13
37 35 32 29 27 23 21 20 18 15 13 11 11 10 10 9 7 6 6 6 7 5 5 3 4 2 2 3 1 1 3 6 8 8 8 11 15 14 14 14 14 14 14
35 34 32 29 26 21 17 17 18 15 12 11 10 8 8 7 6 5 3 3 4 4 4 2 2 1 4 7 7 4 4 6 6 7 5 10 15 13 14 15 15 16 15
34 35 33 31 27 24 20 18 16 13 10 9 8 8 7 7 7 6 4 3 2 1 2 1 0 2 5 7 8 8 8 12 8 6 7 13 13 12 14 15 15 16 16
36 33 31 30 27 24 19 16 15 12 11 10 8 7 6 7 8 9 8 7 6 5 4 3 3 3 5 6 7 8 10 12 12 8 12 15 11 14 14 15 16 16 15
34 32 29 26 26 21 20 19 15 13 11 9 8 8 8 9 13 13 12 11 11 9 8 7 6 6 6 7 7 7 10 11 13 14 15 13 17 17 15 16 18 17 15
34 29 28 26 23 20 17 18 14 13 12 12 12 12 13 15 16 16 17 17 15 14 13 12 11 9 9 10 10 9 9 10 10 14 15 18 20 19 17 19 19 18 18
34 31 29 25 24 18 19 16 17 14 15 14 15 15 13 17 20 20 21 22 21 20 19 18 16 14 13 13 13 13 13 13 12 13 15 19 21 22 22 21 21 21 21
38 35 29 26 23 19 18 18 17 15 16 15 18 17 8 10 12 15 15 18 22 24 23 21 20 19 16 17 17 18 18 18 16 17 17 18 24 25 25 24 23 23 22
37 34 28 26 21 22 20 18 21 20 20 20 20 23 25 25 17 12 17 18 18 20 23 22 21 20 18 20 19 20 20 21 22 22 22 19 22 24 25 25 23 22 22
36 37 35 31 26 31 23 21 20 21 21 23 23 25 26 29 31 31 23 23 27 21 15 15 22 23 19 20 21 22 23 24 27 26 27 26 24 24 27 30 30 27 26
42 38 35 34 27 28 26 24 23 23 24 26 28 29 30 29 29 30 31 28 28 25 18 20 21 23 23 23 23 22 23 23 23 26 29 30 29 31 29 29 32 33 33
41 44 37 40 34 32 32 30 30 30 30 29 30 33 34 33 33 27 27 29 27 22 21 20 22 23 23 24 21 22 22 24 26 26 25 26 26 29 31 34 35 35 36
48 47 44 45 42 39 38 36 34 35 35 32 38 38 32 32 35 29 30 29 25 24 21 24 21 21 24 24 26 23 22 24 24 24 24 24 26 28 30 32 35 37 38
48 47 48 43 43 44 43 41 38 37 35 34 33 34 30 28 28 29 28 24 25 20 24 22 22 22 22 22 22 24 24 24 25 25 25 25 26 28 31 32 34 36 37
52 50 50 50 47 45 42 39 39 38 39 37 34 35 31 28 28 26 24 27 26 26 18 21 21 21 21 24 25 24 25 23 22 22 23 25 27 29 30 31 33 36 39
49 51 51 50 46 42 39 38 41 39 32 36 32 34 34 29 29 27 28 26 25 25 26 26 22 22 22 23 24 25 25 23 22 22 23 25 28 30 32 35 37 39 40
43 44 45 45 44 41 40 38 37 34 37 33 30 27 31 30 30 29 28 28 27 27 27 25 23 23 21 22 25 23 21 21 22 24 26 28 29 30 32 35 37 39 42
43 43 43 44 44 41 42 43 39 42 40 37 31 30 33 33 34 32 29 29 27 28 26 25 22 21 21 22 21 20 20 22 23 24 25 25 26 27 29 31 32 35 37
44 43 44 44 46 45 47 42 43 38 38 38 34 30 32 33 34 30 30 32 29 28 23 22 21 20 20 21 20 22 23 24 23 23 26 24 28 29 31 33 34 34 35
45 43 43 44 47 48 50 47 38 33 33 33 29 31 29 30 28 31 31 29 27 25 23 21 21 19 19 19 20 22 24 24 25 24 23 27 32 34 33 32 34 34 34
46 45 45 45 45 43 41 42 41 40 39 33 32 30 28 30 31 28 27 25 24 23 22 21 21 18 20 22 22 22 23 23 19 23 29 33 33 34 33 32 31 31 29
46 46 44 43 45 42 37 36 28 28 34 30 31 30 32 31 29 27 25 25 24 24 22 20 18 20 20 21 22 22 23 24 24 27 31 34 32 32 27 28 28 25 22
36 36 36 35 36 35 33 29 30 30 27 31 31 31 31 29 25 25 24 25 25 22 19 17 19 20 20 20 21 23 24 25 28 28 26 31 28 30 26 25 25 22 20
28 28 30 31 30 31 26 29 29 30 32 31 29 26 24 23 23 24 24 22 20 18 16 18 18 18 19 19 21 21 22 25 27 23 27 24 25 26 26 28 19 21 21
25 26 25 27 26 27 30 29 31 34 32 28 23 23 22 21 20 20 20 18 15 14 16 16 16 16 15 17 18 21 24 24 25 25 14 19 22 21 23 20 16 21 22

GFSMA_850_spd_066.txt.gz
Wind_Speed
37 36 28 28 26 23 23 20 17 17 16 15 16 16 13 13 13 11 10 11 10 9 9 8 6 6 8 8 7 7 8 8 7 7 8 12 13 12 12 13 13 12 13
36 36 32 26 25 24 21 18 18 16 14 14 14 13 13 12 11 11 9 8 8 8 9 6 4 2 1 5 6 3 4 3 5 6 5 9 11 10 11 11 12 13 14
36 35 32 29 23 21 21 19 19 15 14 14 13 13 12 11 10 9 9 8 6 7 8 7 6 5 4 2 4 5 6 5 6 6 7 8 10 8 9 11 11 12 13
38 37 34 25 22 25 22 22 20 16 14 13 14 14 12 11 10 8 8 9 9 9 6 7 9 7 8 6 5 4 5 5 6 6 7 7 11 8 11 12 12 13 13
31 31 30 30 28 28 26 24 20 17 16 14 12 12 11 10 10 10 11 9 10 9 9 9 9 8 10 9 7 7 8 8 8 9 9 10 11 10 12 13 14 14 15
37 37 34 32 30 28 21 22 21 18 14 13 12 11 11 11 12 13 13 12 12 12 12 12 10 11 10 10 11 10 10 11 12 12 12 16 15 15 15 16 17 17 16
41 38 34 31 31 25 22 23 21 19 18 16 12 12 13 13 14 15 16 16 17 16 16 15 14 12 12 13 14 14 14 14 13 14 16 16 16 17 17 18 20 19 19
35 36 35 32 31 28 26 22 21 20 17 18 11 10 9 10 18 20 20 21 21 20 20 20 19 18 16 15 16 16 16 16 15 15 16 18 20 23 22 22 23 22 22
36 36 34 33 31 29 27 23 23 19 17 17 19 11 7 10 7 11 16 19 21 23 24 22 22 22 21 19 18 21 19 19 18 19 17 19 21 26 28 28 26 25 26
34 39 35 34 32 29 25 22 21 19 17 14 15 21 19 13 12 14 11 16 18 20 23 22 22 25 24 25 26 23 22 20 21 22 22 22 22 23 26 28 29 29 28
35 41 37 34 32 27 26 22 20 19 20 19 19 15 19 20 19 20 24 17 20 25 21 23 20 22 26 27 28 24 24 23 23 25 26 27 28 28 27 26 30 31 31
41 41 36 37 32 30 27 27 26 26 24 23 20 19 19 17 19 17 23 25 20 28 26 25 26 22 25 29 28 26 26 26 26 26 26 27 30 32 32 33 32 30 32
43 51 43 42 39 35 37 34 32 30 28 27 29 26 27 30 27 28 33 34 23 27 26 23 24 25 25 27 31 29 28 29 29 28 27 33 34 33 33 33 34 36 37
49 47 46 42 44 40 38 42 36 30 33 30 29 31 35 33 39 37 33 27 33 23 26 24 24 25 22 27 30 28 28 30 30 27 29 29 30 30 31 32 33 35 38
46 46 47 48 46 45 38 42 36 31 32 31 32 34 35 35 37 35 38 38 31 20 23 18 18 21 25 27 26 27 27 27 26 27 27 29 29 29 29 30 31 33 35
47 44 47 51 46 45 44 37 38 35 33 33 35 35 36 36 37 35 31 32 32 32 23 21 21 18 23 25 26 24 27 27 26 27 27 25 25 26 28 29 32 34 35
46 44 46 46 42 40 39 38 37 35 34 39 38 37 34 32 36 38 38 31 33 33 31 21 25 26 26 24 24 26 26 24 19 26 25 24 25 26 29 30 33 34 36
49 49 52 47 45 44 45 44 46 42 47 43 40 38 35 33 32 36 25 31 37 38 32 28 30 26 26 24 26 24 24 22 21 20 24 24 26 28 28 29 29 30 32
45 46 44 48 53 55 53 50 50 50 47 46 41 41 41 43 39 31 34 41 42 37 33 33 29 28 28 26 26 27 25 23 21 24 26 26 26 26 25 26 27 30 31
45 49 48 46 45 43 41 45 47 49 50 47 48 45 45 39 39 40 37 45 38 37 34 35 30 27 24 24 25 22 19 17 19 21 24 24 25 24 26 28 29 31 32
44 43 44 47 45 43 44 45 44 45 49 48 46 45 41 41 41 40 35 36 38 37 38 33 28 27 25 24 22 14 15 16 17 21 21 21 22 24 28 29 30 31 32
42 41 41 42 44 45 48 49 47 42 44 45 46 46 43 38 40 36 35 37 36 40 37 33 28 25 23 19 17 15 14 14 15 11 18 20 21 25 25 24 28 31 30
39 41 42 39 40 41 47 48 44 42 39 37 38 40 44 39 40 36 37 37 35 34 28 26 25 21 17 16 16 16 15 14 15 17 20 21 18 22 21 22 28 30 28
32 34 33 33 34 35 39 37 34 33 36 36 36 36 38 36 39 41 39 38 34 30 27 24 19 17 15 18 18 17 17 19 20 19 17 22 16 22 23 21 24 28 29
27 27 27 26 26 25 26 27 30 36 35 35 36 34 35 36 36 32 29 26 25 25 21 17 15 11 15 18 19 19 17 14 17 16 15 21 19 21 23 26 21 18 22
25 21 20 22 27 28 28 28 29 30 31 33 32 31 27 27 25 25 23 23 22 18 14 11 12 14 14 17 17 17 16 18 16 15 11 16 18 19 22 15 14 16 20

GFSMA_850_spd_069.txt.gz
Wind_Speed
30 34 33 33 31 23 24 21 14 16 15 14 14 13 13 13 12 11 12 13 12 12 12 10 11 10 9 7 6 5 6 7 8 8 7 8 8 8 9 10 10 10 10
30 28 31 27 25 22 21 18 16 16 15 14 15 14 13 13 12 11 10 11 10 10 9 5 5 5 5 4 4 4 5 5 5 5 5 7 8 7 8 8 9 9 10
34 27 28 29 25 24 21 19 19 16 15 14 13 14 13 13 12 12 10 8 9 9 10 6 5 4 2 1 2 2 3 2 3 2 2 4 6 5 7 8 9 9 10
36 34 27 25 28 22 22 20 19 17 15 15 14 13 12 12 12 12 11 9 9 9 8 10 9 8 7 7 5 5 4 4 4 5 5 3 6 6 7 9 9 10 11
40 35 27 22 24 23 22 21 19 17 16 15 14 13 12 12 12 11 12 14 13 12 11 9 9 11 12 12 11 10 11 11 8 8 8 9 8 10 9 11 12 12 13
37 34 30 29 28 22 22 20 19 17 15 14 14 13 13 13 12 13 14 13 14 15 15 15 14 14 14 15 15 14 13 13 14 13 13 13 13 12 11 12 13 15 15
37 35 28 26 25 25 20 21 20 19 16 15 13 12 12 16 15 14 14 14 14 15 16 17 17 14 13 15 17 17 17 17 18 18 18 17 20 18 16 15 17 19 20
31 32 30 32 29 29 23 24 22 20 17 21 16 15 12 11 17 19 17 17 18 17 18 20 20 18 17 20 20 20 22 20 20 20 20 20 20 20 21 23 24 26 25
33 38 32 40 35 32 25 24 23 21 21 20 20 11 8 10 16 14 17 22 20 21 21 21 23 22 24 24 24 19 23 22 22 23 23 22 22 22 24 27 28 29 28
40 41 40 33 32 30 22 23 25 24 21 19 16 20 19 14 11 7 13 15 20 22 22 24 27 25 22 26 29 23 26 24 24 26 26 25 26 27 27 27 27 29 30
36 40 41 36 37 31 31 30 28 25 21 19 20 16 13 15 16 16 18 13 14 17 19 24 27 26 27 25 28 30 32 35 29 28 29 29 30 30 30 30 29 29 31
42 36 37 37 37 35 32 29 26 23 23 20 21 21 19 16 16 18 20 21 20 22 24 24 27 27 29 31 30 34 32 30 31 30 32 32 31 31 30 31 32 34 34
49 45 37 40 41 39 33 31 32 33 28 25 27 27 24 24 24 24 23 25 28 33 37 44 40 31 32 30 32 35 33 32 31 31 32 32 32 31 32 36 34 34 34
55 53 42 42 44 41 38 36 35 34 36 36 35 32 30 26 26 29 32 32 34 35 31 37 30 31 31 33 31 34 30 30 32 32 33 33 33 33 36 33 32 32 32
49 51 49 46 46 49 45 40 37 36 41 39 40 35 33 33 32 35 36 38 38 29 31 33 32 33 30 26 35 29 29 31 32 31 31 31 32 34 32 32 32 32 32
48 50 49 54 57 57 51 50 48 44 40 39 42 39 35 35 32 35 36 36 35 37 35 32 32 28 28 30 33 30 30 33 30 28 29 32 32 30 31 30 30 30 31
49 50 50 50 49 50 53 49 47 44 41 40 39 39 38 39 39 36 38 39 33 39 37 38 32 33 32 27 35 29 30 30 29 30 30 31 29 29 29 29 29 30 31
40 44 43 44 48 47 47 48 46 45 45 43 42 38 42 44 39 37 36 38 36 31 31 38 40 42 38 41 36 28 30 28 25 19 25 28 28 26 28 29 30 29 30
40 43 43 48 47 47 47 47 47 48 47 46 44 43 47 51 45 43 42 44 45 41 39 42 43 42 41 39 32 31 33 30 26 24 27 29 29 30 29 28 28 28 29
44 47 47 48 47 48 48 47 47 47 48 47 47 47 53 55 52 50 52 49 51 48 46 46 47 45 45 41 35 34 31 27 24 18 19 23 26 28 27 28 27 27 30
47 45 46 48 51 50 50 50 49 49 50 50 50 55 57 56 55 54 48 49 47 48 51 49 49 47 45 41 38 34 28 22 17 18 21 24 23 24 23 26 29 31 34
46 48 48 47 49 51 53 54 52 47 46 46 48 47 45 45 49 51 46 44 47 44 49 46 48 50 49 42 30 24 22 21 17 16 16 17 22 23 25 28 28 30 33
44 48 49 48 50 50 51 51 50 48 48 44 46 50 50 51 44 38 41 44 42 39 40 43 45 44 38 27 23 19 19 19 19 17 16 22 24 28 29 26 23 29 35
44 45 45 45 43 44 43 44 43 43 46 50 52 54 50 46 42 40 39 39 41 39 38 36 34 29 19 17 13 13 16 17 19 21 21 26 23 28 25 25 28 29 31
41 41 39 38 39 39 38 38 38 42 44 45 46 47 46 44 42 40 39 40 38 30 24 18 18 18 18 14 10 13 17 15 20 19 16 20 21 27 22 25 32 21 19
34 32 34 34 36 36 38 38 36 37 40 40 40 41 41 38 35 32 28 29 28 25 22 17 14 12 9 7 11 12 17 20 18 16 17 14 15 17 26 23 17 20 23

GFSMA_850_spd_072.txt.gz
Wind_Speed
33 28 33 33 31 30 27 26 23 17 19 16 15 22 13 12 9 13 15 14 16 15 14 14 14 12 11 10 9 8 8 8 8 8 7 7 8 8 8 8 8 7 7
33 31 33 34 30 29 30 24 21 19 17 16 17 20 14 12 8 9 13 13 13 13 12 12 12 11 10 10 8 7 6 6 6 6 6 6 6 5 6 6 7 7 8
34 32 35 34 27 26 27 22 20 20 18 17 19 18 16 15 10 8 8 11 12 12 10 8 8 7 5 5 4 4 5 4 4 4 3 2 3 3 4 5 6 6 7
31 34 35 32 27 24 23 21 21 20 19 17 17 18 17 17 16 11 9 8 8 10 10 10 8 6 6 4 3 3 4 4 3 2 2 3 2 3 3 5 5 6 8
32 32 34 32 30 29 27 23 20 20 19 19 17 16 16 18 19 18 12 10 9 9 10 10 10 10 9 9 9 9 9 7 7 6 6 6 6 5 5 6 6 8 9
31 35 31 30 32 31 27 21 24 21 20 19 16 18 17 16 15 17 20 21 15 14 13 11 12 13 12 14 13 15 15 13 13 13 12 11 10 10 9 10 10 11 13
35 34 36 32 30 26 26 25 24 21 19 20 17 17 16 18 17 17 20 20 24 21 22 18 18 17 18 18 17 18 19 19 17 18 18 17 17 16 14 15 17 17 17
39 37 36 34 35 34 31 26 24 24 20 23 22 19 15 18 23 24 22 22 21 20 20 24 24 23 21 18 19 19 20 21 20 21 23 22 21 21 21 20 21 21 22
39 41 37 37 33 31 31 29 27 28 29 27 27 16 10 13 14 21 28 25 24 23 23 22 23 26 24 24 25 25 24 22 21 23 25 25 25 24 23 22 23 24 26
37 29 34 35 35 34 30 30 29 30 28 25 26 25 17 10 8 4 18 23 28 26 25 26 26 26 26 27 31 29 28 25 26 25 28 28 29 28 27 26 26 27 28
39 35 34 37 39 38 34 31 28 30 28 26 22 22 22 23 22 18 17 17 20 23 25 25 26 28 30 29 31 32 32 34 32 30 29 30 30 31 31 31 31 31 30
39 40 40 39 40 37 35 34 31 31 25 20 23 24 25 26 22 18 19 18 18 21 23 27 27 28 26 28 32 33 35 33 36 37 36 35 32 33 33 33 33 33 32
43 41 43 42 39 36 35 36 33 28 25 25 24 25 27 27 25 23 20 24 25 27 27 32 35 37 36 39 37 37 37 39 37 36 34 35 34 35 35 35 34 34 33
48 45 44 42 42 39 38 39 37 31 30 27 31 36 31 31 31 30 30 31 31 30 35 40 41 36 35 33 40 38 37 37 38 35 35 36 35 34 34 34 35 34 35
54 50 47 44 44 43 41 42 41 41 39 37 38 40 37 38 38 37 35 34 34 30 32 39 37 38 35 34 35 39 39 39 39 35 35 35 34 34 33 34 35 35 34
52 55 53 50 47 41 44 45 45 45 44 42 41 41 41 42 41 41 39 39 38 39 38 39 38 37 38 33 35 37 38 41 37 36 35 34 34 34 32 34 35 35 33
39 44 54 56 54 51 46 47 50 51 51 47 42 42 42 47 46 43 42 42 43 41 41 41 41 41 38 37 37 47 44 40 42 41 36 35 34 33 33 33 34 33 31
48 46 45 48 54 56 55 54 56 55 55 57 52 47 47 45 42 43 45 45 45 44 40 47 47 46 44 39 38 42 42 42 43 37 36 35 35 34 31 30 30 31 31
40 40 42 49 52 54 56 55 55 58 57 51 49 48 47 45 44 45 48 50 51 48 48 49 49 46 48 42 41 45 45 49 42 40 35 33 33 30 31 32 32 32 31
42 42 43 42 47 51 54 54 55 56 55 53 51 50 49 47 47 48 52 55 54 52 52 53 52 50 49 50 46 47 52 52 44 40 34 32 28 28 28 28 28 28 29
46 46 44 46 45 46 48 47 47 49 49 50 51 52 52 52 52 52 56 57 54 54 54 49 48 49 51 51 50 53 55 53 41 31 25 20 19 25 28 26 26 24 23
46 47 49 51 49 51 54 54 54 52 51 50 51 52 50 50 52 55 57 54 49 48 55 53 50 47 50 49 51 51 44 35 29 30 28 26 24 25 25 25 23 24 27
47 50 52 51 53 54 55 55 54 52 51 48 47 47 48 49 52 55 52 49 48 54 58 56 49 46 46 43 39 35 30 33 29 20 18 18 20 26 25 26 26 27 29
46 48 50 50 49 52 50 49 50 50 51 53 54 51 48 48 49 51 49 49 52 53 45 48 43 41 35 30 28 26 22 21 18 15 13 21 21 28 29 28 32 31 30
41 43 43 41 43 48 44 47 45 45 44 47 49 48 47 49 51 52 53 51 43 38 33 31 26 19 15 17 18 18 14 9 7 5 13 26 27 27 28 33 28 26 29
41 37 37 40 42 42 44 43 41 40 42 44 46 48 50 51 49 44 38 32 28 24 18 15 14 16 16 14 9 5 6 8 14 13 12 21 23 23 26 26 23 22 23

GFSMA_850_spd_075.txt.gz
Wind_Speed
37 33 31 31 31 33 34 34 34 39 29 28 28 15 14 10 6 14 15 15 16 16 16 16 15 14 13 13 11 10 10 10 10 9 9 8 7 8 8 8 7 7 6
37 32 31 31 33 32 32 32 36 35 24 27 28 16 14 10 7 11 15 15 15 15 15 15 14 13 12 11 10 9 9 8 9 9 7 6 7 7 6 6 5 5 5
36 37 34 34 33 32 30 28 29 28 20 21 26 12 15 11 10 10 12 13 14 13 14 13 13 12 11 10 9 9 8 8 7 7 6 6 5 4 4 3 3 3 3
37 30 37 36 34 34 30 28 25 23 23 21 31 18 15 14 11 9 10 10 11 12 13 12 12 11 10 8 8 7 8 7 6 6 7 5 5 3 2 1 1 1 2
31 32 41 37 34 35 30 27 28 26 24 21 28 23 21 15 15 14 11 12 10 11 11 10 10 10 10 9 9 9 9 8 8 9 8 7 6 5 3 3 4 4 4
32 33 43 40 35 33 33 28 28 25 23 22 22 22 20 21 16 18 16 14 13 13 12 12 12 14 13 13 13 13 13 12 11 11 11 10 9 9 9 8 8 10 10
35 42 43 42 37 36 34 33 29 28 26 24 22 18 19 19 21 21 21 18 18 18 16 15 15 15 16 16 17 17 18 19 18 18 17 15 14 13 12 13 14 15 15
41 43 44 41 39 36 33 34 33 31 27 25 26 24 20 18 21 21 20 24 24 23 22 20 21 21 20 20 20 21 22 21 22 22 23 24 23 21 18 18 18 20 21
43 36 41 40 35 35 34 35 34 34 32 31 26 20 13 14 23 26 26 24 24 25 27 27 26 26 26 25 24 25 25 25 25 24 23 26 27 26 24 23 22 22 23
42 36 38 35 35 34 37 38 34 34 33 29 32 29 20 9 10 7 21 26 28 29 26 26 28 28 27 27 27 28 29 29 28 28 26 27 29 29 29 27 27 26 25
42 40 40 40 38 36 35 36 36 35 35 32 32 30 27 19 14 12 12 16 17 26 27 28 28 28 29 29 28 31 32 34 33 32 31 30 30 33 33 31 30 30 29
41 40 40 39 38 36 35 34 35 35 32 28 29 28 30 30 23 18 18 23 27 24 24 25 27 30 31 30 30 32 34 34 36 36 36 36 35 35 35 34 34 34 34
39 38 38 37 40 39 39 35 37 33 30 32 28 32 33 30 27 25 23 25 24 22 24 28 29 31 32 34 37 38 39 38 37 37 40 40 40 40 38 37 36 37 36
47 43 42 39 38 39 36 39 38 36 36 37 35 33 33 31 27 29 27 27 30 32 32 37 35 35 35 37 39 40 41 43 46 42 42 42 40 40 40 39 38 38 37
52 47 45 44 43 39 37 38 38 37 35 35 36 35 34 32 32 31 35 31 35 33 35 43 41 38 37 37 35 34 37 39 37 40 42 42 39 40 42 41 39 37 36
54 49 47 43 42 45 41 40 41 40 40 38 38 39 37 37 39 40 38 37 39 41 43 46 46 44 42 41 39 36 40 37 38 38 40 41 40 42 43 42 40 37 37
50 55 53 49 48 46 45 45 46 45 45 43 45 46 48 44 44 43 44 43 44 43 47 51 50 49 48 45 44 42 40 44 41 40 41 41 40 41 42 42 40 38 36
41 45 50 53 54 53 50 50 48 49 50 49 51 51 52 50 52 49 49 49 49 51 50 52 51 52 50 47 46 44 42 46 41 43 49 44 39 43 42 40 40 35 34
44 44 46 49 48 53 56 60 58 57 55 54 53 54 55 54 54 54 54 54 53 51 50 52 51 46 46 48 49 48 45 47 50 43 45 50 44 42 39 39 33 31 29
44 47 49 48 48 49 48 50 58 62 64 64 62 59 58 58 58 58 56 55 54 53 52 53 50 53 50 52 48 51 49 46 51 47 53 53 46 42 38 31 30 32 26
46 47 47 48 48 48 48 50 54 56 58 59 61 62 60 58 56 56 56 55 54 54 55 53 55 54 52 54 55 52 50 49 46 51 53 46 38 33 28 29 28 19 16
45 46 48 48 48 48 49 49 50 52 55 56 58 60 58 56 54 52 51 53 56 57 59 57 54 52 53 56 56 53 49 48 40 44 41 38 41 42 34 25 23 10 21
39 43 46 47 50 51 50 49 48 48 50 52 53 53 52 52 53 53 51 51 53 56 58 57 58 56 56 53 55 48 47 41 36 35 30 33 32 29 28 21 9 19 25
41 42 44 46 48 52 52 51 49 46 50 54 55 56 57 58 55 52 51 51 52 53 57 58 58 60 51 44 39 32 29 29 30 26 23 21 21 21 19 17 18 26 27
44 45 46 48 49 49 49 51 51 50 53 54 57 58 59 59 57 57 53 53 54 55 57 58 51 42 34 24 20 19 19 23 24 20 16 15 15 17 18 19 20 22 28
44 44 44 45 46 47 47 46 46 49 49 50 52 53 55 56 55 54 54 53 52 46 37 27 19 16 16 15 16 15 15 14 13 9 11 12 15 14 12 14 21 24 27

GFSMA_850_spd_078.txt.gz
Wind_Speed
45 41 35 34 36 38 38 44 42 39 33 20 21 19 15 10 7 15 17 16 16 16 16 16 15 14 13 12 11 10 10 10 9 9 8 7 6 7 6 7 7 7 6
47 38 36 36 37 37 39 43 43 40 32 24 24 18 14 10 8 14 15 15 16 16 16 16 15 14 12 12 10 10 10 10 9 8 8 7 7 7 6 6 6 5 4
42 40 38 38 36 36 38 42 42 37 32 25 22 17 15 12 9 12 14 15 15 16 16 15 14 14 12 12 11 10 8 9 9 9 9 8 7 6 5 4 4 3 2
40 38 38 38 37 37 38 41 44 35 36 25 21 18 19 14 11 11 12 14 15 16 16 15 14 12 12 10 10 8 8 8 8 10 11 8 8 6 4 3 3 3 2
40 38 39 40 38 38 39 44 40 34 34 27 21 20 19 16 13 14 14 13 13 13 14 14 14 13 12 11 11 10 11 10 11 12 10 9 9 9 7 6 6 6 5
42 39 39 40 40 42 40 41 40 32 31 27 23 20 18 17 16 14 14 12 13 13 12 13 13 14 13 12 12 12 11 13 14 15 13 13 12 12 12 11 10 10 10
40 36 39 42 43 43 39 37 33 28 29 27 30 20 17 16 16 15 14 14 15 14 14 14 14 14 14 15 15 16 17 17 19 19 16 15 15 16 15 15 15 14 14
43 32 41 43 42 44 39 35 35 34 30 28 32 28 22 17 18 19 18 19 20 18 18 17 17 18 18 19 19 19 20 22 22 24 24 22 22 22 20 20 19 19 18
39 36 43 46 42 43 40 33 37 35 33 31 29 29 17 12 21 24 25 24 23 24 22 22 22 23 22 23 23 24 24 24 27 27 28 29 29 29 29 27 26 24 23
39 38 43 46 41 38 36 34 37 35 33 35 37 31 24 13 15 14 28 28 26 25 25 25 26 26 25 25 25 26 25 27 29 31 31 31 32 32 33 34 31 30 28
36 36 43 43 42 37 38 38 39 35 36 36 36 40 28 19 13 13 8 18 26 28 30 30 28 27 27 27 27 26 25 27 30 33 35 35 34 35 35 35 35 34 33
38 39 38 38 41 41 33 36 31 36 38 35 37 39 36 31 24 18 16 17 19 20 21 22 25 26 26 26 28 27 28 32 33 32 36 38 40 38 38 38 37 38 37
45 43 39 35 38 35 40 38 37 42 42 39 40 37 35 32 28 27 24 22 23 24 24 23 24 24 25 29 29 31 30 32 35 39 39 41 42 43 42 41 42 41 40
46 45 44 39 37 35 32 34 38 40 40 41 41 36 36 33 29 32 31 29 28 27 30 31 30 32 33 35 36 34 35 34 34 36 40 43 46 47 46 46 46 46 45
43 47 45 41 41 40 38 38 38 37 37 39 39 38 37 35 35 37 38 36 31 29 33 36 38 36 35 39 40 39 40 39 37 34 32 38 46 51 51 51 50 48 47
44 48 47 45 43 42 41 42 42 41 41 40 42 41 43 42 43 35 37 37 39 41 40 45 47 47 44 41 41 42 43 43 41 41 35 37 41 42 45 49 51 45 46
42 46 48 47 46 45 42 43 44 45 44 45 46 44 44 41 41 43 41 45 48 47 48 50 50 50 51 49 47 45 43 44 45 43 41 40 39 43 43 46 45 46 47
39 45 46 52 50 49 49 49 50 46 46 48 48 48 51 49 48 48 49 51 51 50 51 52 54 54 54 51 51 48 45 43 44 45 42 43 39 42 43 47 50 43 45
38 39 44 49 56 56 54 52 51 51 53 53 54 55 56 53 53 52 53 55 56 55 55 55 58 57 57 57 53 48 46 45 47 47 46 47 42 46 46 43 44 46 44
39 41 43 44 47 56 58 59 58 57 56 57 56 57 58 58 58 56 55 56 57 57 59 58 55 53 55 50 51 53 52 52 52 48 47 47 43 41 47 44 48 47 44
42 43 44 45 47 48 50 51 51 52 53 55 57 61 64 64 64 63 61 63 63 59 59 58 50 48 48 48 50 51 54 54 55 51 51 47 47 44 45 46 41 41 41
36 42 44 45 46 49 50 49 49 50 52 54 56 55 56 59 61 61 61 60 60 59 59 55 53 51 53 53 56 57 57 55 53 51 45 45 42 41 40 40 40 38 32
35 36 39 41 46 48 49 50 50 49 49 49 50 51 52 55 56 57 57 56 56 54 55 56 59 58 59 58 56 56 57 56 51 41 35 31 32 31 32 32 31 28 28
37 36 37 37 39 42 43 45 46 45 48 49 50 50 51 52 52 52 50 51 50 53 55 59 63 67 66 62 50 47 40 40 36 31 26 23 24 26 25 24 22 21 19
40 42 41 40 39 39 44 46 44 46 50 51 50 51 55 55 55 55 55 55 55 57 60 62 64 68 64 60 51 33 26 24 23 15 17 19 16 16 17 18 19 19 17
34 34 35 39 40 41 45 46 47 47 51 52 52 54 56 59 59 56 56 58 59 60 59 51 44 44 32 18 12 12 13 15 16 12 10 9 11 10 8 11 13 15 17

GFSMA_850_spd_081.txt.gz
Wind_Speed
42 41 41 38 39 47 44 38 33 30 29 26 22 18 16 11 12 17 17 17 15 15 15 14 13 13 12 11 11 10 9 9 8 8 7 6 6 5 5 5 5 5 4
35 45 43 40 40 48 45 41 34 32 30 26 22 19 14 10 12 16 16 15 14 15 14 14 14 13 12 11 10 10 9 8 8 8 7 6 5 5 5 5 5 4 4
43 49 45 40 41 46 46 44 35 32 27 24 23 19 14 10 11 15 15 14 15 15 15 15 14 13 12 11 10 9 9 9 9 7 8 6 6 5 5 5 5 5 5
48 49 44 42 43 46 46 47 41 35 26 24 25 21 17 13 11 14 13 14 15 16 16 15 14 13 12 11 10 9 9 9 10 9 8 7 7 8 7 6 7 7 5
49 48 44 43 44 46 46 49 43 37 28 27 24 19 18 15 12 13 12 13 13 14 15 15 14 13 12 11 10 9 9 10 9 9 9 9 12 11 9 10 9 8 9
49 46 44 43 44 45 47 49 46 36 31 28 23 20 19 15 12 11 12 12 13 13 14 14 15 14 13 12 11 11 11 11 12 11 12 14 13 13 13 14 13 13 13
44 43 42 43 43 44 46 48 47 40 29 27 23 21 20 17 15 12 11 11 13 13 14 15 15 14 14 14 14 14 13 14 15 16 16 15 15 16 17 17 17 17 17
42 40 41 42 43 44 45 47 49 44 33 28 28 28 21 19 19 16 15 14 14 15 16 16 16 16 16 16 17 16 17 17 18 22 22 21 20 19 19 21 21 22 21
42 39 37 41 44 46 47 47 48 43 37 32 30 24 16 11 22 21 21 19 19 20 21 20 19 19 19 19 20 19 20 21 23 23 24 27 28 28 27 28 28 28 27
42 41 38 41 42 44 43 44 44 40 35 37 35 35 25 14 14 12 25 23 25 26 25 24 24 22 22 23 23 23 22 23 23 24 26 28 30 32 33 33 33 33 33
42 41 37 39 42 44 43 40 39 38 36 35 36 36 33 20 18 17 16 19 31 32 29 27 25 25 26 26 25 25 23 23 24 26 28 29 30 32 36 37 38 38 37
43 43 36 36 42 41 44 40 35 38 38 37 37 37 38 31 25 19 17 17 15 16 19 22 22 21 23 25 26 25 24 25 26 27 31 33 34 33 34 38 41 42 42
42 43 36 38 39 42 39 38 38 37 41 38 36 38 38 36 34 24 20 22 19 19 22 22 22 22 23 24 24 24 26 28 29 30 31 32 36 37 37 37 41 45 46
41 34 35 33 38 43 40 36 40 41 43 38 34 36 38 39 40 32 29 27 24 27 30 32 30 28 26 27 28 30 34 36 38 38 36 35 35 34 36 39 42 46 48
33 35 37 36 39 43 44 40 40 42 36 34 36 39 40 41 40 37 36 35 29 31 35 37 36 31 29 32 33 36 38 40 38 39 40 40 39 40 37 38 43 47 49
29 33 38 40 38 36 36 35 37 33 40 39 42 41 41 41 40 39 38 37 34 40 44 46 43 42 37 38 39 42 45 45 45 42 42 41 42 43 43 43 40 42 44
26 30 33 41 40 38 35 34 35 35 37 40 41 43 43 42 43 41 42 43 46 44 47 50 48 51 51 49 46 46 48 50 49 45 44 43 42 44 42 44 44 42 46
27 31 33 38 41 42 42 42 42 42 45 46 47 47 47 45 46 46 48 49 51 49 52 55 54 55 56 54 54 54 55 54 53 49 47 42 41 40 39 38 41 44 44
27 30 32 36 38 44 45 46 46 46 48 48 47 48 48 48 50 51 52 52 52 51 53 56 59 58 60 60 60 58 58 56 53 50 46 44 44 44 43 42 40 43 44
28 30 32 34 36 40 45 48 49 49 50 51 51 51 52 53 53 53 54 56 58 58 58 58 59 61 60 59 58 57 57 54 53 50 49 49 49 46 45 48 44 41 43
32 33 33 36 38 40 43 46 49 53 55 56 57 56 56 58 58 58 58 61 61 61 61 59 52 51 52 50 49 51 54 52 54 55 55 56 52 53 51 48 46 41 40
30 30 35 38 39 42 44 44 45 46 48 52 56 56 55 54 56 56 57 58 58 56 57 57 55 51 51 50 51 51 54 53 49 53 50 49 47 47 48 44 40 39 38
32 34 34 35 37 38 41 42 43 44 45 48 49 50 51 53 53 53 54 52 51 52 55 58 61 58 57 57 54 51 50 54 54 52 52 51 43 39 35 32 30 33 35
30 36 37 38 37 38 40 40 40 42 44 45 47 48 49 48 49 49 49 50 49 48 52 53 58 61 63 63 62 59 57 53 51 52 44 27 25 23 21 19 20 20 21
28 31 30 34 38 39 42 42 42 43 45 45 45 45 53 55 54 54 54 55 56 57 57 57 58 60 61 65 65 68 64 57 39 28 23 18 19 18 15 15 15 16 16
20 22 28 32 35 39 41 42 45 46 47 48 48 52 55 58 58 57 58 55 53 56 53 50 47 51 50 40 26 20 19 21 21 7 6 8 9 10 8 10 12 13 15

GFSMA_850_spd_084.txt.gz
Wind_Speed
38 37 36 37 36 37 41 39 34 29 26 24 19 15 14 15 17 17 18 19 18 18 18 17 16 14 13 13 12 11 10 10 10 9 9 8 6 5 4 4 4 3 3
33 34 41 43 40 38 41 40 36 31 25 25 21 16 14 12 15 16 17 17 17 17 17 15 15 13 13 12 11 11 10 9 8 8 8 7 5 5 4 4 4 3 3
33 35 44 41 39 38 43 42 35 30 27 28 21 18 14 12 15 17 16 15 16 16 16 16 14 13 12 11 10 10 9 9 8 7 6 6 6 6 5 5 4 4 4
33 37 40 37 37 40 45 42 36 32 31 28 24 21 16 12 14 17 15 14 15 16 15 14 13 12 11 11 10 9 9 9 8 7 7 7 6 6 6 6 6 6 5
39 39 38 38 38 41 47 44 38 35 32 28 25 22 17 13 12 15 15 14 15 15 15 15 14 13 11 10 9 9 9 8 8 8 9 7 7 8 7 9 9 8 9
39 46 43 45 42 43 48 44 39 36 32 28 27 23 19 15 13 12 12 13 13 14 15 15 15 13 11 10 10 10 9 9 10 10 10 9 10 9 11 13 12 11 12
44 46 46 43 42 45 52 48 43 38 32 31 30 24 20 17 14 14 12 12 12 13 13 14 14 14 13 13 12 12 12 12 12 12 12 12 10 11 14 15 15 16 15
42 46 45 44 42 46 51 49 48 42 34 34 33 27 21 19 19 18 17 16 12 13 13 13 15 15 15 16 15 15 15 14 17 18 16 15 13 15 16 17 19 19 21
43 43 42 42 42 45 50 50 52 46 40 37 33 23 16 10 23 22 22 19 17 17 16 16 17 18 18 18 18 18 18 18 18 20 21 21 23 23 24 24 25 26 25
35 37 38 38 41 43 46 50 51 47 44 40 34 32 24 15 15 14 25 25 22 23 23 19 22 22 22 21 21 22 21 21 21 22 22 23 26 27 27 28 30 30 31
38 35 33 33 35 39 44 48 50 47 42 41 37 34 27 22 15 17 18 28 28 25 25 24 27 25 24 24 24 25 24 24 23 23 24 24 26 28 30 31 32 33 35
38 36 35 36 37 38 42 42 45 49 42 38 36 35 34 30 24 19 19 16 19 18 18 24 28 27 25 25 25 26 26 25 24 24 24 26 27 28 31 33 35 37 37
42 41 37 37 33 38 34 35 38 47 44 39 35 34 34 33 32 26 24 19 20 18 19 19 17 17 20 22 22 23 25 24 23 24 25 29 31 32 33 34 35 37 40
38 40 36 34 32 38 41 37 39 40 38 37 38 36 35 34 33 35 33 30 24 23 22 30 26 25 27 26 26 26 26 28 28 30 29 30 33 36 36 37 38 38 38
36 37 39 39 35 32 41 40 41 43 40 38 37 38 37 36 37 38 40 39 37 31 31 36 32 34 34 34 31 30 31 34 33 35 37 40 39 39 40 41 41 41 41
28 35 36 34 32 29 31 41 37 39 43 43 43 41 39 37 36 38 40 45 39 40 38 35 34 36 35 39 35 33 36 35 37 39 39 42 43 43 42 42 42 43 43
22 25 26 29 33 30 30 35 41 41 38 39 35 41 43 38 40 39 43 41 43 42 42 45 44 47 44 38 44 49 48 47 47 47 48 48 49 48 47 45 45 44 43
14 17 21 22 27 32 31 32 35 38 38 37 39 38 41 38 40 40 41 43 44 46 48 50 54 51 51 50 50 49 53 55 55 52 52 51 51 50 48 47 43 42 43
13 15 17 20 21 25 33 34 35 36 38 37 36 37 39 41 44 44 46 48 49 50 53 58 58 54 57 56 57 57 58 59 59 57 56 53 48 45 44 41 42 42 43
15 15 16 19 22 26 31 34 37 39 40 41 42 43 45 46 48 49 49 49 49 51 53 55 55 57 58 60 57 59 62 61 63 58 54 49 45 44 44 45 47 49 47
19 20 19 20 21 23 25 27 30 34 38 41 44 46 48 49 50 51 51 52 53 53 56 56 50 49 54 56 57 55 53 57 57 55 54 51 48 48 51 51 51 51 48
20 20 20 22 25 28 29 29 32 34 36 39 42 44 47 48 50 51 54 55 56 55 55 56 55 49 50 52 51 48 51 48 50 45 43 47 48 50 52 55 54 52 53
19 22 24 25 26 26 29 31 30 31 35 38 41 45 46 46 46 47 47 47 46 46 50 52 55 55 57 56 53 53 52 52 53 50 51 52 52 48 47 43 36 30 25
19 20 21 22 24 30 32 32 33 34 36 37 39 40 42 44 45 47 47 48 47 48 52 52 53 60 62 63 57 52 48 43 43 41 38 35 32 26 24 17 14 15 15
20 21 22 22 24 28 30 31 31 33 35 36 39 41 43 45 47 49 50 50 46 50 54 54 56 58 59 61 62 62 58 51 45 39 27 22 20 15 11 9 10 10 11
14 16 18 22 26 27 30 33 35 35 34 33 37 39 43 46 46 48 50 45 44 37 38 37 33 27 26 30 31 27 25 21 17 12 7 4 7 5 7 7 8 7 9

GFSMA_850_spd_087.txt.gz
Wind_Speed
37 31 29 30 34 33 31 35 35 32 29 24 22 17 15 14 17 18 17 20 18 18 18 17 16 15 14 14 13 13 12 11 11 10 10 9 7 7 6 5 5 5 4
35 30 31 33 36 34 33 36 36 34 29 23 22 16 12 15 17 18 16 20 19 17 16 15 15 15 13 14 13 12 11 10 10 9 8 7 7 6 6 6 5 4 4
34 34 35 37 39 36 33 39 36 33 30 27 22 18 15 14 17 18 18 16 18 17 17 15 15 14 14 13 12 11 10 10 9 8 8 7 6 7 7 6 5 4 5
38 36 40 43 42 38 37 40 38 36 32 29 24 19 17 13 18 19 18 17 16 16 17 16 16 15 14 12 12 11 10 9 9 8 8 7 7 7 7 6 6 6 5
34 37 39 41 47 42 41 43 40 35 31 30 26 21 18 14 15 17 17 17 16 15 16 17 15 14 13 12 10 10 10 9 9 9 8 8 9 9 8 8 9 8 7
33 34 35 39 45 41 42 43 41 36 32 32 28 23 20 16 15 17 17 16 16 16 15 15 15 14 12 11 10 10 9 10 10 10 10 10 10 10 10 11 11 10 12
36 36 36 33 35 39 41 45 42 37 35 33 30 25 21 17 16 16 17 17 17 16 16 15 14 13 13 12 11 11 12 12 12 12 12 12 12 12 12 12 13 14 16
39 39 41 43 41 43 41 47 44 39 35 35 27 25 14 17 20 19 19 18 18 17 16 15 14 14 13 14 14 14 15 15 17 15 14 12 11 12 13 15 15 18 20
37 46 43 44 42 42 41 47 47 43 41 36 33 23 12 10 18 21 22 20 19 18 18 17 14 13 15 16 17 18 18 18 18 19 18 19 19 19 20 20 21 24 24
39 46 44 46 44 42 42 46 47 44 42 39 34 29 24 17 14 11 24 22 21 21 19 19 17 20 20 17 20 21 21 22 21 22 22 22 23 24 25 25 26 27 27
29 47 43 35 38 40 40 43 48 46 44 41 40 37 25 20 16 14 13 28 27 26 25 23 23 21 19 23 24 26 25 25 25 25 25 25 25 26 27 29 29 31 32
30 34 33 30 34 36 35 38 45 47 44 39 37 38 34 28 22 19 18 19 27 28 27 26 25 22 23 27 29 27 27 28 29 29 28 28 28 27 28 30 32 33 35
32 33 28 29 29 30 32 34 39 42 44 40 39 39 36 34 30 25 22 21 17 21 22 20 19 17 23 23 23 22 23 25 27 28 29 29 28 28 29 31 35 37 38
35 34 30 27 30 34 36 35 28 35 40 34 40 39 38 35 32 31 28 23 22 18 19 20 20 21 28 22 20 25 27 28 27 27 28 29 31 31 32 35 36 37 39
34 40 32 34 33 33 31 44 39 34 38 40 43 39 37 33 32 34 32 32 31 27 23 29 30 26 22 35 32 29 34 41 35 35 34 34 34 37 37 37 40 42 42
29 37 34 37 37 34 30 38 45 41 41 45 44 42 38 38 40 36 37 35 35 35 33 30 33 36 41 39 35 34 39 36 37 34 36 37 39 41 43 44 46 48 49
22 30 32 35 36 33 33 32 40 47 41 45 43 43 44 42 37 37 38 42 40 38 39 42 40 44 42 42 41 43 42 41 38 44 47 50 52 49 50 50 50 51 52
15 18 21 26 27 31 31 29 29 46 45 41 38 42 42 45 43 39 42 44 44 45 44 47 41 44 45 45 47 50 50 51 52 53 53 52 50 50 52 51 53 52 49
13 16 18 20 21 19 22 26 28 28 34 39 36 38 37 37 41 41 40 43 41 42 45 49 49 48 47 43 53 54 54 54 54 57 58 55 52 51 52 51 47 46 44
12 12 14 15 17 17 18 20 27 27 28 31 34 37 38 38 37 37 37 40 42 46 47 47 48 51 51 53 47 47 49 52 55 55 56 57 52 49 47 44 41 42 44
12 11 11 12 13 15 17 19 23 27 30 33 36 38 40 40 40 39 40 42 41 43 45 45 43 43 47 51 47 47 45 53 52 51 53 49 48 44 44 42 44 45 46
13 13 14 13 13 14 16 18 20 23 26 29 31 32 34 35 38 40 41 43 46 48 50 50 49 47 49 51 52 53 52 47 48 47 42 37 39 42 46 49 52 53 56
13 13 14 15 14 19 21 21 22 24 25 25 26 27 29 31 32 32 33 34 38 38 41 46 53 51 47 40 43 47 50 51 47 42 42 43 44 40 38 38 40 42 41
15 15 17 18 22 25 25 24 24 24 25 25 31 33 34 35 37 38 38 38 39 42 43 45 46 48 51 52 53 52 45 42 39 37 37 31 31 31 29 27 25 21 17
13 15 17 18 19 22 25 25 25 24 25 27 29 33 35 36 37 38 38 39 39 38 37 35 34 37 40 42 40 38 36 34 33 32 31 25 21 18 14 12 9 7 7
8 9 10 12 14 16 20 24 25 24 23 25 27 29 32 33 34 37 36 33 30 26 25 23 23 24 27 25 21 16 13 13 14 9 8 7 8 8 6 6 7 7 7

GFSMA_850_spd_090.txt.gz
Wind_Speed
39 36 31 24 23 28 30 30 29 30 26 23 20 17 16 14 14 12 12 19 16 14 15 16 15 15 14 14 14 13 13 12 12 12 11 10 9 8 7 6 5 4 3
37 40 38 28 30 31 32 30 32 28 25 20 18 17 15 13 14 14 13 19 16 17 17 14 14 14 14 14 14 12 11 11 11 10 10 9 8 7 6 6 5 5 4
40 39 39 30 32 32 34 34 31 29 23 21 19 17 14 14 15 14 13 17 18 17 15 14 14 14 14 13 13 12 12 11 10 9 9 8 8 7 7 7 6 5 4
45 40 40 29 35 33 36 35 30 29 24 21 19 17 14 14 16 16 17 14 18 16 17 15 15 15 15 14 13 12 12 11 11 11 10 9 8 8 8 8 7 6 6
40 39 39 34 34 35 36 35 32 29 23 22 20 17 15 14 14 15 15 15 14 14 16 18 17 16 16 16 13 13 12 12 11 11 11 10 9 9 9 9 9 8 7
35 40 40 39 38 37 39 36 34 28 24 23 21 18 15 14 14 15 16 17 15 15 14 16 19 17 17 15 14 12 12 12 12 11 11 11 11 11 11 11 11 11 10
34 35 40 41 37 39 42 39 34 29 26 26 23 19 16 14 15 14 16 16 16 16 16 15 15 15 15 14 13 12 12 12 11 12 12 12 12 12 12 13 13 13 14
33 34 38 37 41 38 47 43 37 32 29 29 27 21 13 12 15 15 16 17 17 16 17 18 18 17 16 16 15 13 13 13 14 14 15 14 13 13 14 14 15 15 16
30 34 42 33 34 47 51 47 38 33 34 30 26 22 16 12 16 15 17 17 17 17 17 18 20 19 19 17 14 13 16 17 17 18 18 18 18 18 18 19 19 20 21
33 38 38 34 38 38 42 43 38 38 35 32 27 25 16 13 21 12 17 18 18 19 20 19 20 20 19 18 17 20 17 17 20 21 21 21 22 23 23 23 23 24 24
33 37 38 42 39 44 39 40 37 40 35 32 30 27 20 16 14 13 15 20 19 21 22 23 22 23 22 21 23 22 22 19 22 24 25 26 26 28 28 29 28 28 28
34 39 39 40 41 43 41 41 42 43 36 33 30 27 24 21 18 15 13 14 20 20 23 24 28 27 27 25 24 21 22 23 24 26 28 30 31 32 32 32 32 32 32
35 37 45 49 44 47 43 39 40 43 43 36 34 28 25 22 18 18 15 12 13 16 19 25 28 29 29 25 25 24 29 26 25 26 27 29 32 34 35 35 35 35 35
28 30 37 44 44 42 36 36 36 38 44 43 38 34 29 27 22 18 17 16 15 14 14 14 22 27 29 25 21 18 24 20 22 24 29 29 30 31 33 34 36 36 37
28 27 27 26 27 27 28 29 28 29 36 38 36 36 35 34 29 23 22 20 20 20 23 20 22 24 25 26 27 26 25 35 38 33 32 38 39 36 37 37 39 41 42
25 27 27 22 20 22 23 25 28 33 35 35 37 39 38 37 28 33 31 30 29 28 28 26 25 20 29 30 32 37 39 39 43 37 39 36 38 42 38 38 41 44 45
26 34 29 32 32 30 31 31 28 32 41 36 36 39 37 44 39 36 35 36 37 37 34 36 27 27 27 33 40 44 44 41 41 40 40 39 40 40 42 48 48 48 48
20 30 38 40 34 32 37 33 32 31 39 41 31 38 39 44 40 37 38 40 41 39 43 49 49 50 51 48 46 43 44 39 39 42 44 43 43 45 50 51 53 52 52
14 15 22 36 33 34 34 34 30 31 32 43 43 43 43 43 39 40 42 49 46 47 46 42 46 39 39 37 40 41 41 40 40 42 45 48 49 47 46 46 46 46 47
16 17 17 19 19 24 25 26 27 30 28 29 40 44 39 40 43 40 40 39 43 43 43 41 43 44 44 47 39 40 42 41 43 43 43 41 43 46 43 44 46 47 46
14 14 15 17 18 18 19 21 22 27 27 27 27 32 37 40 39 37 38 37 33 32 34 35 36 40 43 41 38 39 40 46 47 42 43 44 41 36 37 46 50 50 48
17 16 16 17 17 18 21 21 19 21 25 28 29 29 32 34 35 36 37 36 36 38 38 37 38 42 45 45 47 49 49 44 42 38 39 38 40 39 43 45 46 49 50
13 14 14 14 19 21 20 21 21 22 21 22 24 26 28 29 31 31 32 33 33 35 38 41 48 49 43 34 33 36 39 38 36 34 30 30 30 31 33 34 39 42 45
19 19 19 21 22 23 22 22 22 23 24 25 26 28 29 30 31 31 32 34 36 38 39 42 41 41 40 39 37 37 35 34 39 41 41 34 35 36 36 32 29 27 23
19 19 19 20 20 21 21 21 22 24 26 28 32 33 33 33 33 34 33 34 33 34 37 34 34 36 34 35 34 31 28 25 23 22 22 21 20 18 17 15 14 13 12
16 16 16 15 16 14 16 17 18 17 18 20 21 22 23 23 25 27 26 27 27 26 23 18 18 18 18 18 14 12 10 9 10 10 11 9 10 9 7 12 13 13 13

GFSMA_850_spd_093.txt.gz
Wind_Speed
27 27 26 29 34 32 27 25 30 40 27 24 24 22 22 16 15 10 10 14 16 13 14 16 14 14 14 14 13 13 13 14 13 13 12 11 10 8 7 6 5 4 3
27 31 32 33 30 28 24 27 29 36 30 26 25 21 17 18 13 12 10 16 16 13 14 15 14 14 13 13 14 13 14 13 13 12 11 10 9 7 6 5 5 4 3
28 31 31 34 35 29 23 27 33 40 36 27 22 21 18 15 15 16 13 15 19 16 16 14 14 13 13 14 14 14 14 13 12 12 11 10 9 8 6 6 5 5 4
30 31 35 38 32 30 24 24 28 30 30 28 26 22 17 16 16 16 14 16 17 19 16 15 15 14 15 15 14 14 13 13 12 12 11 10 9 8 8 7 6 6 6
34 32 31 35 34 28 24 30 33 33 29 23 24 21 17 17 18 17 16 17 17 18 16 19 18 17 16 16 15 14 14 14 13 13 12 11 10 9 9 8 7 7 8
31 31 32 37 37 30 29 33 34 32 28 25 24 22 18 16 16 16 17 12 16 15 19 16 21 19 19 18 16 15 15 14 14 13 12 12 11 11 10 9 9 9 9
32 33 32 35 26 28 31 33 36 33 30 26 26 22 19 19 17 16 17 17 15 16 14 14 15 15 17 17 16 16 15 14 13 13 12 12 12 11 11 11 11 11 12
31 31 32 38 37 38 35 40 42 37 32 29 32 24 16 18 20 16 16 17 17 16 15 17 14 15 15 16 19 17 16 15 15 13 13 13 13 13 14 14 15 14 14
30 30 33 36 38 38 38 41 40 40 36 30 33 29 19 11 19 18 17 17 18 18 18 19 19 18 18 16 17 17 16 13 13 13 15 15 15 16 16 17 17 17 18
26 29 31 37 40 37 37 36 43 44 37 37 31 26 20 16 23 13 19 18 19 19 20 19 20 21 21 22 21 17 15 16 16 18 18 17 19 20 20 21 23 22 23
27 31 33 37 37 33 38 37 51 45 39 37 35 30 23 15 22 17 18 20 20 19 19 22 20 21 22 23 24 23 20 18 19 19 18 21 22 24 26 27 27 26 27
26 28 33 35 31 35 39 40 50 46 40 35 33 31 26 21 18 17 14 22 22 19 20 21 23 24 24 27 26 24 23 21 21 21 23 23 22 28 29 31 32 33 33
25 29 38 41 35 33 34 41 47 42 39 38 34 33 26 23 18 16 14 13 19 18 17 22 24 26 28 27 26 26 26 23 24 23 23 24 25 27 29 32 35 37 38
22 27 31 37 40 36 42 42 41 41 39 36 36 33 34 28 24 17 17 14 8 10 14 16 20 30 29 30 30 29 30 25 24 20 19 21 24 28 30 33 34 35 37
17 20 36 32 36 42 40 42 40 38 38 34 34 34 30 28 25 22 17 14 16 16 17 17 17 15 18 22 25 30 28 27 23 25 28 39 42 37 39 36 39 41 39
17 19 31 38 45 47 46 50 41 35 37 34 34 34 31 28 29 29 26 25 18 17 19 18 13 14 19 25 26 26 29 30 29 33 37 38 38 40 40 41 39 39 43
16 21 19 25 36 40 40 45 40 34 31 28 27 29 36 32 32 30 31 28 30 25 25 25 29 35 34 31 28 33 34 33 40 44 48 46 40 42 44 44 44 45 41
15 23 18 19 25 26 25 26 25 24 25 26 31 40 41 38 37 35 38 37 33 31 31 33 37 40 41 43 44 44 45 46 51 50 43 42 41 40 39 41 43 43 45
19 25 23 21 22 22 25 25 26 30 26 26 25 36 37 35 33 38 38 39 40 35 35 40 45 41 50 48 43 39 41 42 43 44 42 41 42 41 45 46 44 42 43
15 17 27 28 27 28 27 26 31 30 27 28 25 26 28 32 36 38 42 38 41 39 40 46 45 46 46 44 40 42 42 41 42 35 33 35 34 40 45 48 46 47 50
12 14 15 14 21 28 28 28 29 33 29 28 27 30 31 40 37 36 38 38 39 40 42 44 42 38 39 37 35 33 33 36 41 39 37 42 44 44 45 48 51 52 53
17 15 14 14 15 21 21 21 22 22 24 25 25 27 23 23 26 34 39 37 38 38 33 33 29 28 34 35 40 42 44 41 35 37 37 36 35 34 34 36 38 37 40
15 19 18 17 21 23 21 20 18 17 20 21 25 26 26 27 26 28 29 31 34 37 42 42 43 43 42 38 33 29 26 32 33 34 34 37 38 41 43 43 43 44 45
19 19 20 20 20 20 20 20 19 23 22 21 23 25 27 28 30 32 33 35 38 40 39 39 37 38 35 32 35 31 30 31 31 33 32 29 30 30 30 30 30 30 28
17 19 19 20 20 20 19 19 21 23 26 28 29 27 27 30 32 33 33 30 29 27 30 33 31 27 24 27 21 19 16 17 17 16 17 19 20 21 21 22 22 22 21
21 21 21 19 19 18 21 22 23 23 26 28 28 28 31 32 32 31 27 26 22 19 15 12 11 11 12 9 9 9 8 8 9 9 10 9 11 12 10 15 12 14 17

GFSMA_850_spd_096.txt.gz
Wind_Speed
25 24 27 29 32 33 30 31 28 23 18 25 26 26 23 20 15 15 15 14 12 12 15 17 16 17 16 15 15 15 15 16 16 15 13 12 10 8 7 6 5 5 5
25 25 27 28 29 32 32 31 24 25 23 31 28 28 23 26 18 18 14 14 14 14 18 18 18 17 16 16 16 16 16 17 16 15 13 12 10 8 7 6 5 5 4
26 24 27 30 29 27 30 29 23 23 29 28 28 26 26 20 16 17 14 9 17 16 16 20 17 15 15 16 16 16 17 16 15 14 13 12 10 8 7 6 5 5 4
27 27 27 29 30 30 30 26 22 21 26 31 30 28 27 23 23 14 13 12 21 19 18 17 15 15 15 15 16 16 17 16 15 14 13 12 10 9 8 7 6 6 4
27 29 30 29 28 26 28 27 20 21 43 36 31 28 26 23 24 19 16 15 20 22 19 19 17 16 16 16 16 15 16 16 15 14 13 12 10 9 8 8 8 7 6
27 30 30 28 29 32 28 28 20 24 36 36 34 31 25 24 20 22 19 17 18 20 20 20 20 18 17 18 17 16 16 15 15 14 13 13 12 11 10 10 9 8 7
24 28 30 29 30 30 34 30 24 30 33 33 26 27 23 21 22 21 19 13 14 20 19 17 20 20 20 20 19 18 17 17 16 15 14 14 13 12 12 11 10 10 10
27 29 31 30 28 28 42 31 28 35 36 34 33 31 23 27 24 21 20 15 13 15 13 18 15 18 18 15 18 19 19 18 18 16 14 13 13 12 12 12 13 13 13
30 30 30 32 32 34 27 28 29 30 42 39 38 35 24 17 27 24 22 22 20 19 15 13 12 11 15 14 14 18 18 17 15 13 13 13 13 14 14 15 15 15 15
27 28 30 31 31 33 32 34 30 30 42 41 34 34 31 30 34 21 24 23 24 26 21 18 19 18 15 19 18 16 18 16 15 15 15 14 15 16 16 18 18 19 20
25 26 31 30 32 35 34 33 39 36 46 43 39 32 28 25 33 28 25 29 23 24 25 25 21 23 28 25 27 22 19 20 19 18 16 17 18 19 18 19 21 22 23
25 27 28 28 31 34 36 34 34 38 49 45 38 35 38 26 32 24 24 35 32 28 23 21 25 22 22 23 26 26 23 21 20 19 20 21 23 23 23 25 25 26 29
23 27 28 31 33 39 37 36 37 37 49 47 41 40 36 29 21 26 17 23 31 27 27 24 21 22 26 24 24 26 26 24 22 20 22 22 22 23 23 24 24 26 28
24 25 25 32 31 37 32 35 31 41 49 47 42 40 35 34 23 24 18 17 26 23 23 22 23 22 20 23 27 27 26 26 26 24 26 25 24 23 23 23 26 28 28
19 22 25 26 36 36 37 31 34 44 46 45 40 35 36 33 31 25 20 13 14 17 19 17 15 18 17 19 19 23 25 27 29 29 28 25 24 24 28 31 33 41 40
18 19 21 26 36 37 31 33 33 41 48 40 38 35 37 36 34 31 25 18 15 13 17 13 8 13 13 15 17 19 20 21 24 25 30 31 30 32 37 42 44 41 36
13 13 14 20 33 33 41 38 38 48 45 38 35 34 33 35 33 30 28 27 27 20 17 22 19 17 17 19 21 26 28 32 31 34 37 40 38 45 44 36 35 39 42
7 9 11 16 30 36 36 34 42 38 40 39 36 33 30 33 32 29 28 31 34 34 31 29 31 30 30 30 32 35 37 37 40 43 43 45 47 44 38 38 37 35 37
9 14 12 9 18 25 39 42 46 43 39 33 32 26 27 30 33 35 34 34 32 29 30 32 35 32 35 36 36 38 42 40 36 37 33 40 40 38 44 42 41 43 42
12 16 15 11 14 18 21 24 30 39 29 30 29 26 28 32 38 38 39 39 37 38 34 33 34 38 39 41 40 38 37 31 35 31 30 33 36 35 34 34 35 41 44
12 17 18 17 15 16 17 21 21 22 23 28 26 24 23 20 23 31 33 35 38 35 35 33 37 40 40 39 35 30 28 30 30 27 30 30 37 37 40 45 44 42 43
10 11 12 16 16 22 24 24 22 24 28 30 30 27 22 22 28 32 30 30 31 30 28 29 32 34 39 32 26 27 30 29 32 34 35 33 31 29 34 32 32 33 36
16 17 19 21 21 19 17 20 20 19 20 20 25 25 22 26 24 24 26 31 33 34 35 36 37 38 33 36 34 32 35 36 32 33 32 33 33 33 33 32 32 31 29
19 17 15 17 18 18 17 16 18 18 18 21 20 21 23 23 24 29 30 29 31 33 34 36 36 34 32 32 32 29 28 26 26 28 27 24 24 23 23 22 22 22 22
21 19 18 16 13 13 13 16 17 20 22 19 18 20 22 23 25 24 25 27 27 27 27 28 28 28 24 27 27 22 19 18 18 17 16 15 16 16 16 15 15 15 14
21 20 19 17 18 18 18 19 20 21 23 23 22 23 25 23 23 25 22 19 18 15 15 17 12 10 9 7 5 6 8 9 10 10 9 8 8 8 5 10 11 15 16

GFSMA_850_spd_099.txt.gz
Wind_Speed
23 23 24 24 29 30 29 29 29 28 21 21 17 26 27 24 22 19 18 17 14 11 11 16 18 18 18 17 19 18 18 18 19 18 16 14 13 11 10 9 9 9 8
23 23 25 25 28 30 31 30 31 31 23 16 20 28 28 26 22 20 18 18 15 12 12 16 22 20 19 18 19 18 18 19 19 18 16 14 12 10 9 8 7 7 6
26 25 25 25 26 28 30 31 29 28 22 18 23 31 32 27 27 25 22 18 15 15 15 20 21 21 20 20 19 18 18 19 19 18 16 14 12 11 9 8 8 7 6
27 26 27 26 26 26 28 30 31 30 25 21 23 33 34 29 26 22 21 17 13 18 17 23 21 20 21 20 19 18 19 18 18 17 16 15 13 11 10 9 9 8 7
28 28 28 27 26 28 27 28 31 29 25 22 27 32 33 29 28 25 22 16 13 18 20 22 20 19 19 19 18 18 19 18 17 17 15 15 14 12 11 10 10 9 8
29 28 28 28 28 27 27 26 27 26 24 21 32 33 32 24 30 27 21 16 14 18 21 23 22 19 18 18 18 17 19 19 18 17 16 16 14 13 12 11 11 10 8
30 29 28 29 31 30 27 28 26 25 22 30 38 33 30 28 28 24 21 18 17 20 23 22 24 22 21 20 20 19 19 19 19 18 17 16 15 14 12 11 11 10 9
33 30 30 30 31 31 28 33 27 27 24 34 43 34 28 30 30 25 23 20 16 17 23 24 24 23 22 22 21 21 20 19 19 18 17 16 15 13 12 12 12 12 12
30 31 30 30 32 30 29 30 30 31 33 37 39 32 18 15 31 26 24 22 17 18 19 19 21 20 23 22 19 19 20 19 19 18 17 16 15 14 14 14 14 14 14
32 32 30 30 32 30 32 27 41 31 31 39 42 32 26 33 35 23 26 24 22 22 19 17 15 18 16 18 19 16 16 18 18 17 17 17 16 15 15 16 16 17 17
32 32 31 31 32 34 33 32 33 28 32 39 45 37 29 33 38 35 32 30 26 26 23 20 18 17 18 16 19 19 16 18 19 19 18 17 17 17 18 19 19 20 20
28 28 29 28 32 35 38 39 40 36 37 40 51 42 37 37 40 36 31 35 37 33 28 24 22 22 21 20 20 20 20 19 20 21 21 20 21 20 20 20 21 22 22
24 25 29 30 31 36 36 32 39 41 41 42 52 50 39 36 34 39 35 38 37 33 33 32 28 30 27 24 22 22 22 22 23 23 22 21 22 22 23 22 23 24 24
18 21 25 31 30 34 38 37 40 39 36 40 56 48 44 36 28 31 35 32 31 31 32 31 28 26 25 21 20 19 21 22 22 23 22 22 23 24 25 25 24 21 22
22 23 25 25 32 35 38 40 39 46 40 42 54 50 45 40 29 27 30 26 29 27 33 29 25 27 22 20 16 18 20 21 23 23 23 26 28 27 27 26 24 22 27
25 25 24 26 28 32 33 38 43 43 37 44 48 55 43 39 36 28 28 20 17 27 28 27 27 20 17 18 17 19 16 15 17 16 19 25 27 28 30 30 31 29 36
21 21 22 27 28 31 35 33 39 33 35 48 45 53 48 43 39 33 31 25 20 22 21 17 22 20 19 20 16 15 14 19 25 27 29 29 30 32 33 36 39 40 42
16 17 19 20 23 28 30 40 41 34 35 42 47 52 42 43 38 37 34 30 24 20 19 18 20 18 19 18 20 22 24 26 29 28 29 30 31 31 32 36 40 44 41
12 13 11 11 15 23 31 31 34 34 35 41 43 42 39 37 38 41 37 36 32 32 35 32 30 26 26 27 28 27 28 29 34 29 30 31 32 33 33 35 37 37 38
9 12 10 6 9 14 27 37 38 34 40 42 43 35 33 37 35 31 31 37 37 35 34 35 34 31 31 30 29 31 32 29 26 26 26 29 30 31 31 32 35 39 35
9 12 11 8 9 9 14 32 32 29 31 39 36 34 34 28 25 30 34 37 33 34 35 34 36 35 33 30 30 29 32 27 26 25 24 28 25 27 29 27 33 38 36
9 11 14 14 14 11 12 12 14 24 30 30 26 26 27 24 29 28 24 27 29 30 32 33 33 31 30 30 29 31 32 24 27 26 31 26 28 27 28 25 27 31 33
14 14 15 18 18 16 17 17 16 17 21 24 24 25 28 27 24 27 24 25 28 27 28 27 28 26 27 31 31 22 22 25 26 28 26 27 26 27 26 25 24 24 23
14 19 19 20 20 18 13 16 21 21 24 27 29 31 32 29 26 29 29 31 30 31 32 32 32 35 36 38 36 33 29 23 23 23 21 18 20 20 19 19 19 18 16
13 13 14 14 14 15 14 13 15 20 21 23 24 23 24 23 21 25 28 31 32 33 32 32 30 28 26 26 25 23 22 20 18 17 15 14 13 14 14 14 13 9 8
15 14 14 13 12 11 14 13 16 21 23 20 18 18 21 20 22 21 19 18 19 17 14 14 11 10 9 8 8 9 10 10 11 9 11 9 10 9 6 9 8 11 12

GFSMA_850_spd_102.txt.gz
Wind_Speed
24 24 24 25 26 26 27 28 25 26 25 24 17 16 19 25 26 25 20 20 16 14 13 16 19 18 18 18 20 19 18 19 18 18 17 16 14 13 12 11 10 10 9
23 24 25 25 26 26 27 28 26 23 30 24 19 19 23 28 27 27 23 23 20 18 14 14 19 20 20 20 21 20 18 19 19 18 17 15 14 13 13 12 11 10 9
25 24 24 25 25 25 27 28 27 26 30 27 21 20 21 31 30 28 24 25 22 17 14 14 22 22 22 21 22 21 20 20 20 19 17 16 14 13 12 11 10 10 9
26 25 24 25 25 26 28 30 31 31 31 31 26 23 29 31 30 29 27 25 22 18 16 16 22 23 23 20 22 21 20 21 21 20 18 16 14 13 12 11 10 10 9
28 27 25 26 25 27 28 33 34 33 32 33 29 26 30 35 34 30 30 27 22 17 17 19 24 25 24 22 22 21 21 21 21 20 18 17 16 14 12 11 11 10 9
29 29 28 27 27 28 28 32 33 34 34 32 28 30 28 38 36 33 32 27 23 19 17 21 26 25 25 24 23 21 21 21 21 20 19 18 16 14 13 12 11 10 9
32 32 30 29 29 30 30 31 29 32 33 33 26 29 30 30 36 35 32 29 26 21 19 22 26 25 23 22 22 22 22 22 21 20 19 18 17 16 14 12 12 11 11
34 32 32 31 30 32 31 29 31 30 32 31 31 28 16 24 32 34 34 31 25 21 20 24 27 27 25 25 24 23 21 22 21 21 20 19 17 16 14 13 13 12 12
34 35 35 34 33 32 32 31 31 32 33 34 34 25 21 11 35 32 33 29 26 23 21 26 27 28 27 25 23 24 23 22 21 20 18 18 17 16 15 15 14 13 13
36 37 34 34 34 33 33 33 34 33 36 38 32 36 30 24 33 21 34 28 27 23 21 26 28 29 27 26 24 22 21 20 20 20 19 19 18 17 17 15 16 16 16
33 36 36 37 36 35 35 35 32 35 36 40 40 41 34 24 38 39 28 35 32 27 24 23 23 23 25 22 22 23 20 19 21 20 20 20 20 19 19 19 18 18 18
36 36 36 36 38 36 37 36 34 39 36 43 37 43 42 35 42 38 29 39 40 36 29 26 24 21 20 22 19 19 21 19 18 20 21 21 20 19 18 18 18 17 18
36 38 37 37 37 38 37 36 38 39 35 39 38 42 50 39 43 45 31 32 37 35 35 31 28 25 23 21 20 18 19 20 20 19 21 21 21 21 21 21 19 20 21
24 28 31 32 34 36 34 35 39 41 41 49 36 41 49 44 41 46 37 32 29 31 34 35 33 30 26 24 22 18 17 18 21 21 22 21 21 23 23 22 22 24 25
22 21 21 27 30 32 34 34 39 42 45 44 42 47 51 51 39 44 36 36 35 29 34 34 33 32 29 26 26 22 20 18 18 18 20 21 23 23 25 26 26 27 28
22 22 22 22 25 30 32 37 41 39 44 46 42 47 47 51 42 38 36 38 34 32 33 38 35 29 28 23 23 22 21 18 17 17 19 17 16 19 21 23 27 29 35
21 20 23 26 25 28 31 34 39 44 41 46 45 42 47 53 46 39 34 34 35 30 33 31 35 29 23 24 22 21 21 22 18 16 17 23 25 26 26 29 31 32 35
21 25 25 23 25 28 32 35 35 47 44 45 44 51 51 55 52 44 30 34 31 34 34 28 29 29 28 24 23 21 24 22 20 21 24 28 28 30 32 33 34 36 37
19 17 18 19 22 24 29 36 37 42 41 42 38 43 48 54 51 50 34 32 33 26 27 22 29 26 26 22 23 24 21 22 24 25 28 32 35 33 33 34 34 35 35
9 12 11 8 10 14 17 22 26 35 39 36 35 43 51 50 50 51 41 28 29 30 25 26 23 24 25 25 24 27 24 25 27 28 29 30 31 29 27 29 31 33 36
8 8 10 6 6 6 10 17 31 29 24 29 34 33 44 46 53 49 45 41 34 29 30 30 32 34 36 36 34 31 30 28 29 30 29 27 28 28 27 30 28 32 33
9 8 11 11 7 6 5 6 18 31 31 32 36 38 35 34 36 42 40 41 42 35 37 44 44 36 35 37 35 33 31 30 28 30 31 30 27 25 25 25 24 27 26
10 12 15 15 14 13 11 7 6 10 25 29 32 35 34 34 34 37 29 32 37 36 37 36 35 36 36 35 33 31 30 27 29 28 24 25 25 23 23 23 22 21 20
15 16 16 16 16 17 16 14 16 15 14 14 20 19 22 23 25 22 21 29 31 33 31 32 33 33 31 29 28 26 26 28 28 27 23 22 22 21 20 16 15 14 14
12 14 14 14 15 16 15 12 12 17 18 19 21 23 22 23 26 26 27 29 31 29 29 30 31 33 32 32 32 33 32 30 27 22 20 18 16 14 12 12 9 7 6
16 12 11 11 12 10 14 13 11 14 17 17 19 23 25 27 31 28 28 31 30 32 32 31 30 32 32 30 28 21 19 19 19 16 15 13 12 10 6 7 5 5 6

GFSMA_850_spd_105.txt.gz
Wind_Speed
28 27 29 29 28 27 27 26 26 23 28 28 27 25 20 18 21 22 26 25 20 16 14 14 17 17 15 15 16 17 17 18 17 17 16 15 13 12 11 11 10 10 9
28 28 28 29 29 28 27 27 26 26 28 28 28 27 22 22 19 21 26 27 23 18 16 15 16 17 17 17 19 19 18 18 17 17 16 15 13 12 11 10 10 9 8
29 29 28 29 29 28 27 27 27 25 25 26 31 27 24 23 20 24 29 30 26 22 18 15 15 19 19 19 20 20 19 19 19 17 16 15 13 13 12 11 11 9 8
31 31 30 29 28 28 28 29 29 29 26 28 32 29 26 25 25 28 29 33 30 26 20 17 16 17 20 21 21 21 20 19 20 19 18 16 15 14 13 11 10 9 9
33 33 32 30 28 29 29 29 29 29 28 30 32 31 29 27 26 30 32 30 30 27 22 19 16 21 22 22 22 22 21 20 21 20 19 17 17 16 13 12 11 10 9
34 33 33 31 29 29 29 30 29 29 31 31 31 36 32 29 27 31 33 31 32 27 23 19 19 23 25 24 23 22 22 21 21 21 20 20 17 16 14 13 12 11 10
33 34 33 32 31 31 29 29 29 28 32 33 34 37 35 32 31 36 37 35 33 30 25 20 21 26 27 25 24 24 22 21 21 20 20 20 18 16 14 13 11 12 12
35 35 35 35 32 31 30 28 30 28 31 34 34 28 12 25 31 36 43 36 36 34 29 24 23 24 27 29 28 26 23 22 21 21 21 21 20 18 15 14 14 14 13
36 36 35 33 34 33 32 31 31 31 30 32 33 28 10 10 20 26 32 33 37 36 30 27 25 26 25 25 25 25 24 23 23 22 22 20 19 17 16 16 16 15 14
36 38 38 37 36 34 35 34 32 31 31 31 34 37 33 15 14 12 31 31 43 35 32 29 27 27 28 28 26 25 26 24 24 24 22 21 19 19 19 19 17 17 17
39 37 40 39 37 37 37 35 32 33 33 34 37 36 38 35 28 24 20 34 38 36 33 29 27 28 29 30 28 26 24 23 22 23 23 22 22 21 21 20 20 19 17
39 37 41 39 38 37 37 36 34 34 35 36 38 41 38 37 32 33 31 37 39 36 33 31 27 28 30 30 29 26 26 25 24 24 24 23 22 23 22 22 20 19 19
41 40 38 39 38 37 37 35 36 37 38 38 39 39 40 40 41 42 35 39 34 35 36 33 30 26 27 26 27 24 23 25 23 22 22 23 24 23 21 19 19 20 19
34 41 36 36 35 36 37 36 37 38 39 37 42 40 44 43 44 40 37 40 29 31 35 37 34 32 30 27 24 23 21 22 24 23 20 20 21 21 21 21 21 21 22
23 27 33 34 34 34 33 32 34 37 38 40 43 43 43 42 40 43 42 40 37 26 36 36 36 35 33 30 26 24 24 21 22 22 21 21 21 21 21 22 21 23 23
19 23 22 24 25 28 30 29 34 36 38 39 42 42 44 46 44 48 47 47 37 31 30 33 32 34 32 31 27 25 24 22 20 19 19 20 20 20 21 21 21 24 25
22 22 22 22 23 21 24 29 32 33 38 40 40 44 41 46 44 49 49 50 44 34 34 24 24 29 31 27 27 25 23 23 21 20 19 19 17 17 20 22 25 27 30
18 21 21 22 22 24 25 28 32 39 41 39 41 45 45 49 47 52 51 48 45 42 38 30 30 26 32 30 26 26 22 22 25 26 23 21 20 23 27 30 36 35 35
18 20 21 21 19 21 25 29 33 36 39 41 41 45 49 49 50 48 56 48 45 41 35 34 34 33 36 33 27 26 27 25 25 26 23 23 29 31 32 35 38 41 39
15 14 13 15 15 14 17 24 27 33 38 40 38 48 46 53 44 48 54 49 46 41 39 39 35 30 28 31 32 29 28 26 30 26 28 31 32 32 33 35 36 36 36
8 7 8 9 9 9 10 13 20 24 26 26 36 36 45 43 45 44 54 53 43 40 32 37 36 36 34 38 32 24 25 24 26 28 32 32 33 33 32 30 32 32 30
8 9 10 12 11 10 10 11 12 13 17 26 33 29 33 34 40 46 47 56 43 41 38 34 32 32 31 28 28 28 28 28 35 34 32 31 32 31 33 32 31 25 27
12 12 12 15 15 15 13 13 12 10 10 20 26 31 29 27 34 40 49 55 37 37 34 34 36 33 34 32 30 33 40 34 37 32 30 29 30 31 27 26 24 24 24
13 14 16 17 17 18 18 18 16 13 10 8 16 24 27 27 29 42 43 51 44 33 40 41 44 42 42 43 39 34 34 37 31 29 30 30 31 28 24 22 19 18 17
12 13 13 14 12 13 15 15 13 13 13 11 9 8 14 16 23 23 25 26 30 33 35 41 41 39 40 36 33 33 35 35 33 31 27 27 26 23 19 16 14 11 8
7 6 8 6 8 9 10 9 7 10 13 14 13 14 14 13 13 15 16 15 19 24 26 27 31 32 33 34 34 34 27 29 31 25 22 20 17 17 11 11 10 10 9

GFSMA_850_spd_108.txt.gz
Wind_Speed
28 29 30 28 27 27 25 25 25 25 25 25 24 23 23 20 20 17 18 21 20 23 20 15 14 14 13 12 13 15 15 18 18 16 17 17 16 14 13 12 11 11 10
28 30 31 31 29 28 27 26 25 26 25 27 26 26 27 23 20 17 16 22 21 24 19 16 13 14 14 15 14 17 18 19 18 18 17 17 16 15 13 13 12 12 10
29 30 31 33 31 30 28 27 26 25 26 26 28 29 29 26 23 24 18 11 26 28 23 19 15 15 16 16 18 18 19 19 18 18 17 17 16 15 14 12 11 10 9
30 30 32 33 32 31 30 29 28 27 27 26 26 29 29 30 28 27 24 17 28 31 28 23 18 16 17 19 20 21 20 20 19 19 18 17 16 16 15 13 12 11 10
32 32 33 33 33 32 31 31 29 28 28 26 26 26 29 31 29 27 25 25 27 32 31 25 20 17 17 21 22 21 21 21 21 19 18 18 17 16 15 13 13 11 10
34 33 34 35 34 33 32 32 31 29 29 26 26 27 30 30 31 30 28 28 29 32 36 28 23 19 19 20 22 23 22 21 21 21 20 19 18 17 16 14 13 12 12
34 36 35 36 35 35 33 30 31 30 31 29 25 32 33 32 36 34 30 28 30 33 29 28 24 21 20 23 25 25 24 22 22 21 20 20 20 18 17 15 14 13 13
35 35 35 36 36 36 34 32 31 32 32 30 30 29 22 30 35 36 33 34 30 35 35 31 27 22 21 26 29 26 24 23 21 22 22 21 20 20 19 17 16 15 15
33 33 34 35 35 37 35 34 31 32 33 32 30 27 11 14 21 28 31 39 40 40 39 34 31 26 25 25 29 29 27 24 23 22 22 22 22 21 19 18 17 17 15
35 33 34 35 36 35 34 35 34 33 31 32 29 33 34 25 11 12 24 30 44 42 39 36 33 29 27 27 26 29 29 27 26 24 24 23 21 21 20 20 19 17 16
39 35 34 35 32 35 38 37 36 34 33 33 32 32 32 34 32 13 15 24 32 35 37 38 36 31 29 29 28 28 28 29 28 29 26 25 23 22 21 21 20 19 18
41 35 36 36 31 37 39 37 35 34 35 34 35 37 37 30 35 36 27 27 35 38 36 37 39 33 31 30 31 29 28 26 26 25 26 25 25 24 23 23 22 21 19
41 39 38 36 36 34 39 38 37 37 36 35 36 38 37 36 38 35 33 28 28 34 37 37 39 34 31 30 31 31 30 28 28 27 27 26 26 25 24 24 22 21 21
43 38 33 37 36 31 37 36 36 35 36 37 38 38 39 38 38 36 35 34 25 33 37 43 42 37 34 31 31 30 31 30 30 29 28 26 27 26 25 23 20 20 20
29 27 33 35 34 33 34 35 36 36 37 37 38 38 38 40 37 39 40 41 37 24 36 43 39 41 35 31 30 29 30 29 26 28 27 25 24 23 23 23 22 22 22
19 21 21 24 31 31 32 32 33 34 33 33 35 34 37 38 38 39 39 42 41 39 31 48 44 37 35 33 31 29 28 27 27 25 25 26 25 23 22 22 22 22 23
17 18 17 21 26 28 27 26 27 29 30 32 35 38 40 38 39 42 40 44 42 40 38 33 34 28 34 32 32 32 29 28 27 26 25 24 25 24 24 23 23 24 23
20 19 19 21 21 22 21 22 24 27 30 33 35 37 40 36 38 42 45 40 47 46 42 34 29 32 35 33 28 31 32 30 30 29 27 27 27 26 25 23 22 24 27
19 17 18 19 21 22 22 24 26 28 30 31 34 36 43 40 40 43 42 43 43 50 50 46 32 28 29 27 31 29 31 35 34 31 30 29 29 28 26 24 27 29 31
11 13 16 20 22 21 22 24 25 26 29 33 37 40 40 42 42 50 44 46 48 48 54 51 38 35 32 31 27 32 33 34 35 33 30 31 30 29 25 27 31 33 35
6 9 9 13 16 16 15 16 12 11 17 24 29 34 36 40 40 46 53 47 51 49 50 50 46 41 34 42 43 35 32 32 32 31 29 27 29 29 30 35 36 37 37
9 8 9 10 12 13 10 11 11 12 14 17 19 25 26 28 24 42 46 49 55 53 49 50 47 46 44 45 41 36 33 33 28 29 25 25 28 31 32 35 36 36 34
12 13 12 13 13 13 13 14 13 16 17 19 19 17 22 24 26 28 42 43 50 45 48 54 54 51 50 45 43 37 37 33 33 29 27 30 34 33 33 32 31 31 31
7 6 4 5 8 12 15 16 17 18 18 19 19 17 18 21 28 32 27 41 44 48 47 48 49 39 40 43 40 36 37 34 30 34 38 36 36 32 28 25 26 25 23
6 5 2 1 4 6 11 13 13 14 14 15 12 9 7 12 16 21 25 37 42 43 39 40 36 37 36 34 35 31 34 35 36 38 35 36 34 28 24 21 19 17 16
18 13 13 14 8 5 7 3 5 6 9 10 10 8 9 6 6 8 12 21 25 22 22 21 25 25 27 32 36 38 38 40 42 34 32 31 26 27 17 17 15 13 11

GFSMA_850_spd_111.txt.gz
Wind_Speed
28 29 29 29 28 28 27 26 24 24 23 22 21 20 19 18 16 16 15 16 17 21 23 22 18 15 13 12 11 13 14 16 17 17 18 17 18 17 15 14 14 14 14
29 30 30 30 30 29 28 27 26 24 24 23 23 23 22 21 20 19 16 16 19 21 23 24 19 16 15 15 13 13 15 16 17 17 19 18 18 17 16 15 15 14 12
31 31 32 32 31 31 30 28 27 25 25 25 25 26 25 24 25 21 18 16 17 20 27 30 14 16 15 15 16 15 17 19 19 19 20 19 19 18 17 16 15 14 13
33 34 34 34 33 31 31 31 29 28 27 27 27 28 28 26 28 24 22 23 17 12 22 28 18 17 16 17 16 18 20 21 20 20 20 20 20 19 17 16 15 14 12
36 35 34 35 35 33 32 32 32 30 29 29 29 26 25 24 27 28 29 28 29 23 16 26 27 23 19 18 18 20 21 23 22 21 21 21 20 19 17 15 15 14 14
40 37 36 35 36 35 34 33 33 30 31 30 24 21 23 25 25 30 31 31 30 28 25 29 27 26 23 19 20 22 24 24 24 23 21 22 21 20 19 17 16 14 14
38 39 38 37 38 37 36 35 32 31 33 29 26 27 26 28 31 31 32 33 31 31 24 25 32 30 26 23 22 24 24 23 24 24 23 22 22 21 20 19 18 16 16
37 39 42 41 40 38 38 35 33 34 34 32 30 29 21 27 35 36 35 37 34 30 29 29 31 35 28 26 24 25 25 25 24 25 25 25 23 22 21 20 19 18 17
41 39 42 41 39 40 39 38 35 34 35 36 34 29 14 18 17 25 35 35 32 32 32 30 31 34 32 29 27 27 29 28 26 25 25 26 25 24 23 22 21 20 18
45 42 41 39 41 39 39 38 36 35 33 36 34 36 33 16 11 10 18 23 30 30 30 36 37 40 35 31 28 28 30 30 29 26 25 27 25 25 25 24 23 22 20
47 44 40 41 42 39 37 37 37 37 34 34 37 35 32 34 36 25 16 23 28 29 30 37 36 38 37 33 31 29 26 33 31 30 28 26 28 27 25 25 24 24 22
50 46 45 41 40 37 35 35 36 34 35 35 36 34 35 32 36 36 30 25 25 28 30 31 38 37 37 35 32 30 28 30 34 34 33 30 28 27 25 24 26 25 24
49 46 44 43 42 37 34 32 32 35 36 35 35 35 35 36 35 34 33 25 29 30 32 31 34 37 38 38 35 31 31 30 32 32 34 34 31 29 26 25 25 26 25
42 46 43 43 38 35 35 35 30 31 35 33 33 36 36 36 36 37 37 30 25 31 34 34 32 35 37 40 36 33 32 32 33 32 32 32 32 31 29 29 28 26 25
36 38 42 39 37 36 37 33 27 29 32 32 33 33 36 37 37 37 37 36 33 22 33 37 39 35 41 46 41 35 34 34 35 35 34 33 32 31 32 31 29 27 25
29 32 37 36 35 36 33 30 25 28 29 30 32 33 35 36 37 36 38 40 36 35 28 33 39 38 38 47 45 34 34 36 36 36 35 35 35 33 32 30 30 30 29
22 25 27 28 30 29 27 28 27 27 28 29 31 32 32 32 35 35 36 39 39 41 38 31 36 36 39 45 44 40 38 35 34 35 34 32 33 32 30 28 28 28 27
20 24 23 22 18 18 20 23 25 26 25 26 27 30 32 34 36 39 42 42 39 41 41 37 38 35 36 44 37 42 39 35 34 33 33 32 31 32 31 30 30 30 30
19 21 21 19 17 16 17 17 19 22 21 24 26 28 33 34 38 41 43 41 45 42 43 40 42 39 35 36 40 35 40 41 40 35 34 34 34 33 33 33 33 32 31
15 16 15 14 15 15 16 18 21 23 26 28 30 35 37 39 39 36 43 40 45 44 49 46 45 46 38 38 40 40 41 45 43 41 38 37 37 36 35 34 33 34 33
19 16 14 12 11 13 17 19 21 22 21 20 19 23 28 29 35 42 45 42 47 43 47 47 44 41 43 42 42 43 42 40 40 42 42 40 38 38 36 35 36 36 34
16 14 10 8 10 16 16 15 13 14 14 15 18 18 19 22 26 28 31 38 48 48 51 48 48 48 48 52 45 46 45 40 37 40 39 38 36 36 36 37 38 36 33
12 10 13 12 13 14 15 14 14 15 16 19 21 23 22 22 25 22 29 28 40 50 47 51 49 50 51 54 54 50 48 46 42 41 39 37 35 31 31 33 33 33 32
14 14 10 7 7 10 14 14 16 16 16 17 17 20 21 22 21 17 20 26 34 36 56 53 50 48 49 52 56 56 51 51 43 37 42 36 36 32 29 29 32 34 36
23 20 17 12 5 3 5 7 8 8 10 11 10 12 16 17 16 13 12 16 23 28 36 44 48 47 46 45 49 45 44 46 41 35 37 37 34 31 27 26 26 25 23
30 27 26 26 23 21 17 9 1 2 3 4 5 6 8 11 11 9 7 10 15 16 20 30 41 44 42 40 35 43 49 51 51 36 36 38 36 38 22 22 22 20 18

GFSMA_850_spd_114.txt.gz
Wind_Speed
31 27 22 21 20 20 21 20 19 21 20 19 17 16 16 14 14 12 13 14 14 16 18 20 21 23 19 16 14 14 17 18 18 18 17 18 19 19 17 16 16 16 15
29 32 27 23 23 23 22 22 20 20 20 18 19 19 16 16 16 15 13 15 16 17 20 22 27 28 22 18 16 13 14 18 19 20 19 20 20 19 19 17 17 15 13
32 33 33 28 25 24 25 26 23 21 20 21 20 19 17 18 18 17 16 14 16 19 21 22 29 41 21 17 17 16 15 19 20 19 22 21 21 19 20 18 17 16 15
36 34 35 35 31 28 29 26 27 25 21 22 20 21 21 19 18 18 18 17 16 19 20 19 22 22 16 17 16 18 19 21 20 20 22 23 23 22 20 19 18 17 16
37 36 33 37 37 37 33 29 26 29 24 25 22 22 21 21 20 20 20 20 21 26 21 18 17 20 29 18 17 17 22 24 23 23 23 23 24 23 21 20 19 18 16
39 38 29 32 37 39 37 37 32 29 26 27 21 19 18 18 19 19 20 22 27 30 31 30 21 19 26 24 19 18 23 26 25 24 24 24 25 24 22 21 21 19 18
37 38 36 36 37 39 41 39 38 34 31 28 23 23 22 23 22 22 22 21 24 30 32 26 27 24 34 30 25 21 22 24 26 25 25 25 25 25 24 24 22 21 20
38 38 39 39 41 41 42 41 42 40 36 35 33 25 19 21 27 27 25 26 32 33 32 31 31 29 27 35 30 26 24 26 26 28 27 26 26 26 26 25 24 22 21
44 42 42 42 42 42 42 43 42 42 41 39 34 20 11 16 12 16 24 25 30 34 34 31 31 27 27 28 25 28 27 27 28 29 29 27 27 28 28 27 26 24 22
49 49 46 44 40 41 42 43 43 43 41 41 37 35 26 14 12 9 12 18 21 25 27 23 30 29 30 33 31 29 29 31 31 30 29 29 29 29 28 28 28 26 25
55 55 50 47 42 40 41 43 43 43 42 42 41 36 29 27 25 25 21 14 21 25 24 28 27 28 32 36 37 35 34 32 35 33 31 29 30 31 30 29 29 29 27
54 55 54 50 45 42 42 42 42 41 42 42 39 28 26 28 27 27 23 26 25 20 22 24 25 29 29 30 46 44 39 32 34 37 36 33 31 31 30 30 29 30 29
44 52 54 52 48 45 41 39 38 41 40 40 38 34 27 28 27 23 26 25 24 23 21 26 29 31 27 29 31 45 40 34 33 36 39 38 35 33 32 32 30 30 29
40 43 52 53 49 44 38 36 35 37 38 36 36 38 30 31 28 27 29 25 23 28 30 32 31 28 30 31 31 42 41 38 36 35 41 42 39 37 34 32 31 29 29
36 38 46 48 48 45 41 35 39 38 34 31 36 37 35 32 28 29 32 28 31 26 25 32 25 31 29 28 33 40 43 39 38 37 38 40 41 42 38 36 34 31 30
30 33 36 39 43 42 40 39 40 37 33 32 37 35 34 33 33 33 35 35 34 36 35 26 24 26 29 26 33 42 46 43 38 39 39 39 39 40 41 39 37 35 34
27 30 28 31 37 41 41 41 38 33 33 30 30 30 31 30 32 32 32 35 35 35 39 38 33 32 34 32 35 40 45 45 40 42 40 42 41 40 39 39 37 37 37
27 28 28 27 33 35 36 34 30 28 31 28 27 28 29 26 29 29 28 32 36 36 37 35 36 37 37 34 34 39 45 47 48 36 38 42 43 42 41 40 39 38 37
21 22 24 25 27 24 25 27 27 27 26 25 26 25 23 21 25 29 32 34 35 37 39 41 42 37 36 37 37 33 40 47 50 38 35 39 42 42 40 40 40 39 38
20 22 22 21 21 21 23 22 22 22 24 23 22 22 24 25 27 30 34 37 38 43 40 45 42 40 43 41 37 38 42 44 47 45 42 41 41 43 41 40 41 41 40
21 22 22 22 24 24 24 23 19 18 18 20 20 22 24 26 28 31 34 35 35 39 41 48 40 41 39 40 44 43 42 46 43 46 45 43 40 43 43 43 42 41 41
25 24 23 21 19 18 18 18 16 17 19 21 21 20 19 19 23 22 26 30 36 43 40 43 42 43 46 47 44 44 45 47 47 48 46 46 44 45 45 45 45 44 42
23 20 16 11 6 5 10 13 14 15 16 18 18 19 20 21 21 22 24 30 31 32 37 44 44 50 47 50 49 47 48 55 52 49 50 47 45 43 44 43 42 43 44
29 23 19 15 7 3 7 12 13 13 14 16 17 18 18 19 20 20 20 22 24 26 28 31 32 41 46 51 55 54 47 54 48 46 46 44 43 42 40 38 38 39 41
34 34 27 26 19 20 14 7 0 6 8 9 12 13 14 16 19 21 20 17 15 18 21 25 23 26 46 44 48 48 44 51 49 46 47 46 45 40 34 35 34 31 30
36 34 35 32 31 29 25 20 14 10 7 5 6 8 10 11 15 18 15 13 12 12 13 14 15 20 28 36 40 47 52 52 49 37 48 46 46 45 23 27 27 26 25

GFSMA_850_spd_117.txt.gz
Wind_Speed
23 22 22 20 21 19 21 21 20 18 20 20 20 19 17 14 14 12 13 12 14 15 16 18 21 20 20 20 18 18 17 17 16 16 18 17 18 19 19 17 16 16 15
29 23 23 22 20 21 24 21 22 23 24 21 20 21 19 17 16 15 13 14 17 16 15 17 19 20 23 24 22 19 19 19 20 19 18 18 20 21 20 18 17 17 16
25 28 31 24 22 22 23 22 22 24 23 20 20 20 19 18 20 20 16 15 15 19 19 18 18 19 28 27 25 22 21 20 21 20 19 20 21 21 21 20 19 18 17
35 30 30 33 24 23 23 27 25 23 25 23 22 20 20 18 22 20 17 19 17 14 18 21 18 18 21 21 16 21 21 19 21 21 21 22 21 23 22 21 20 19 18
38 37 30 34 33 25 27 29 29 28 27 22 22 21 20 18 18 18 20 21 20 20 14 19 23 16 13 20 27 21 19 20 22 21 22 24 23 23 23 22 21 20 19
37 40 32 32 35 36 34 29 32 29 26 24 24 20 22 20 19 19 18 19 22 22 24 25 24 23 25 18 28 23 19 21 23 25 23 26 25 24 24 23 23 22 20
35 35 33 32 35 38 43 38 31 32 31 26 22 21 20 23 21 19 17 20 22 22 26 26 29 27 23 23 28 35 24 21 25 28 26 27 28 27 27 26 25 24 23
37 38 37 37 37 37 39 42 40 35 34 31 27 20 16 23 23 23 23 22 23 21 24 26 27 25 24 23 26 31 29 26 26 30 30 29 29 28 28 28 26 25 24
40 42 41 42 42 41 37 41 42 43 39 37 33 21 11 17 14 22 25 25 25 25 24 27 27 28 28 27 27 31 35 30 28 29 31 30 30 29 30 30 29 28 26
45 45 44 42 43 45 40 38 41 45 42 41 40 40 26 13 13 13 16 17 19 24 23 24 23 26 29 26 23 27 31 33 32 32 31 33 32 31 30 30 30 29 29
43 47 48 46 45 44 43 39 40 44 47 44 44 38 37 32 24 18 17 15 16 18 21 20 23 21 23 23 24 28 30 36 36 35 34 34 34 33 31 30 32 33 31
45 48 49 47 48 45 41 40 40 40 44 44 44 38 33 34 29 26 26 24 22 17 18 20 24 19 19 21 26 28 36 40 35 38 39 37 34 35 33 33 33 34 33
40 47 49 49 51 48 45 42 40 39 41 42 44 36 37 27 27 27 27 25 24 22 21 21 24 23 24 24 25 26 29 44 44 38 39 40 38 35 35 35 35 34 32
41 42 44 48 49 49 52 47 41 39 39 40 41 39 39 34 31 28 26 23 23 23 21 23 24 27 26 26 26 25 28 30 46 40 39 41 41 40 37 35 35 34 33
38 38 40 40 47 46 47 49 45 40 39 38 38 37 33 33 34 33 30 29 27 25 23 22 23 26 32 25 25 27 25 31 36 42 39 38 42 44 42 39 38 36 34
35 37 35 35 40 45 45 47 43 41 40 38 36 34 34 35 32 32 29 30 30 30 29 25 24 23 24 29 26 22 24 28 34 41 41 41 42 45 46 43 42 39 38
37 32 33 32 36 42 45 43 43 42 40 39 36 33 31 33 32 32 34 34 32 32 35 39 31 27 26 30 32 30 27 28 35 43 44 44 45 43 47 49 47 44 42
30 29 29 28 27 34 38 39 40 39 40 38 33 29 33 28 31 31 31 33 33 33 35 36 35 33 32 34 34 32 32 30 33 40 46 46 44 46 47 49 48 49 45
25 24 25 24 25 26 27 30 34 36 34 31 31 30 27 27 28 29 29 30 27 26 28 31 38 34 30 29 35 34 32 34 33 36 43 51 47 47 48 47 47 46 47
22 22 21 25 27 24 29 31 33 34 31 27 25 25 21 21 21 21 24 26 27 29 32 31 31 40 37 41 38 39 37 37 39 36 42 51 49 45 46 49 48 47 46
21 22 22 23 24 23 26 28 28 25 27 23 25 23 23 23 25 29 31 32 34 34 32 30 35 37 37 37 39 35 40 39 40 42 41 48 52 49 46 51 51 51 49
25 22 21 18 18 18 20 21 23 21 20 21 22 22 23 25 27 28 24 26 28 30 33 35 39 36 40 39 46 43 40 41 41 44 45 49 54 53 49 47 51 50 49
30 29 26 22 19 15 13 12 9 12 15 18 19 19 19 20 19 22 22 23 24 26 31 33 35 37 38 28 39 46 45 46 47 44 46 52 54 51 51 46 47 47 48
40 39 36 34 24 21 13 11 8 5 4 4 8 10 14 17 19 21 21 20 21 21 21 23 25 27 32 37 39 39 49 48 49 42 47 49 50 46 44 42 44 48 48
44 43 41 41 38 37 28 20 10 8 5 6 6 4 4 6 11 14 14 17 17 17 18 19 21 25 29 29 27 34 38 42 45 48 44 48 47 41 36 36 37 45 46
42 42 40 36 38 35 33 30 25 20 17 16 14 13 15 14 12 9 10 12 13 14 15 15 16 19 20 21 22 25 29 44 50 41 45 45 43 45 25 30 33 32 35

GFSMA_850_spd_120.txt.gz
Wind_Speed
26 27 22 23 20 20 20 22 20 20 20 19 16 18 14 13 13 13 16 13 10 13 12 14 15 19 18 13 17 15 14 14 15 15 15 14 15 17 17 17 17 16 16
27 29 26 26 23 19 19 20 21 20 18 20 21 21 20 18 17 16 14 16 12 12 12 12 14 16 19 17 17 16 16 18 19 18 17 16 18 19 19 18 17 17 17
27 28 26 30 26 21 23 22 22 23 20 23 26 24 21 22 22 20 17 17 15 14 15 17 16 16 17 17 18 19 22 28 22 20 20 20 20 21 21 19 19 18 19
34 34 33 31 28 24 27 27 24 26 24 25 23 23 23 21 21 24 22 19 18 17 16 17 19 20 18 18 15 22 21 27 22 22 22 22 21 23 23 21 20 20 20
38 34 33 37 35 29 30 29 27 30 27 27 25 22 22 23 23 21 23 22 23 21 21 19 19 23 21 18 14 13 22 26 24 26 25 23 24 23 24 24 22 21 21
35 46 35 37 39 36 33 31 32 30 30 26 26 25 27 24 22 23 21 21 21 24 24 23 22 24 25 21 20 23 21 22 20 27 29 26 26 26 26 26 24 23 23
39 36 48 39 40 45 42 34 37 33 34 29 24 27 24 26 27 25 24 22 20 21 25 30 27 26 27 26 25 20 22 26 22 21 28 28 29 28 28 28 27 26 25
40 39 39 47 47 44 46 40 39 37 36 33 32 26 20 24 29 28 26 23 21 23 23 27 27 26 27 29 24 21 21 27 26 23 25 29 29 31 29 28 29 27 27
40 42 43 42 47 48 45 49 49 44 38 37 38 27 13 17 20 30 32 30 27 27 27 27 29 29 28 27 26 24 23 28 33 26 26 30 32 29 30 30 30 30 29
42 44 46 45 43 45 46 44 44 45 43 40 39 41 32 11 16 11 21 26 25 31 31 29 31 30 28 27 26 26 24 28 34 34 31 31 33 32 33 32 32 31 31
44 46 46 47 47 46 47 51 45 41 44 44 44 43 41 38 23 16 14 23 24 23 23 22 27 27 28 24 24 26 25 26 24 33 34 33 32 35 34 34 35 34 34
31 48 47 49 48 51 50 39 41 41 42 43 42 41 44 41 44 36 26 19 25 24 22 21 21 23 24 24 23 22 24 24 28 30 38 36 36 35 36 36 35 35 35
32 40 46 51 53 55 51 46 48 47 42 43 45 43 42 41 36 32 29 31 26 27 26 24 25 26 23 23 23 22 25 29 30 33 37 39 39 39 38 38 37 36 35
45 37 45 47 53 55 50 52 52 48 43 43 43 43 43 42 37 36 36 35 26 27 25 25 26 29 27 25 22 23 27 30 31 32 38 43 41 42 41 39 38 39 37
49 43 40 48 49 52 50 49 50 49 45 44 42 41 41 37 38 34 33 32 29 23 26 29 30 31 30 26 22 23 22 27 32 33 38 47 46 44 45 43 40 40 39
47 40 39 41 47 45 48 47 50 47 46 45 42 40 39 37 36 37 39 37 32 29 30 26 23 25 25 27 26 24 24 22 27 31 36 39 53 46 44 46 44 42 41
45 37 36 43 44 29 40 41 48 49 46 44 44 40 37 36 32 36 34 31 34 32 33 37 30 27 26 28 31 29 26 28 27 28 31 38 46 44 42 45 47 46 44
34 34 36 40 48 41 41 37 40 51 46 41 41 41 39 34 31 34 33 32 33 32 33 35 33 30 29 26 31 34 31 31 29 27 29 33 42 48 47 47 45 49 49
25 29 29 32 34 36 34 31 37 45 42 40 37 38 37 34 30 31 31 32 27 29 26 28 32 28 27 30 30 32 34 34 31 30 28 29 36 46 48 48 49 49 51
7 5 10 24 29 32 31 35 37 36 34 34 34 33 32 31 31 31 30 24 25 25 22 19 23 27 29 23 25 30 33 39 39 35 31 34 35 41 47 50 52 53 51
10 13 16 16 13 15 21 25 29 31 35 34 29 30 27 29 30 28 27 26 35 34 28 27 30 31 31 29 32 33 36 37 39 41 34 34 38 41 41 48 54 54 54
30 31 28 23 17 15 16 17 27 29 32 32 31 25 23 23 23 25 26 26 30 28 27 27 27 28 31 30 32 35 38 38 38 40 39 39 40 41 45 46 45 56 54
46 44 40 35 33 29 20 17 18 20 17 18 17 16 15 16 18 19 19 22 22 21 23 24 24 26 29 31 34 35 33 32 41 41 37 40 41 42 44 46 46 56 56
50 49 47 46 41 39 32 29 26 19 19 20 14 9 7 5 4 6 10 13 17 18 17 18 18 19 21 25 29 32 35 40 39 35 43 46 45 46 47 50 51 53 56
49 47 44 44 42 41 36 37 33 28 23 28 24 22 12 10 12 6 5 7 10 10 13 15 15 16 17 21 25 26 26 29 32 40 37 47 47 44 45 45 46 51 52
41 42 40 41 38 40 37 38 31 36 31 28 25 22 22 20 18 16 11 7 7 5 6 9 11 12 13 15 18 17 17 21 23 27 32 41 44 42 30 29 29 31 34

GFSMA_850_spd_123.txt.gz
Wind_Speed
29 28 26 27 25 24 25 24 21 20 18 17 17 15 11 11 15 10 9 10 9 10 10 11 13 15 18 16 13 18 16 13 11 11 12 12 12 14 16 17 17 16 16
32 31 29 27 25 24 21 25 23 21 19 20 20 17 16 12 17 15 11 12 13 12 10 11 12 14 16 20 16 15 16 16 16 14 15 15 15 15 18 19 18 18 18
34 34 33 30 28 25 21 21 22 21 20 18 22 20 19 19 19 19 16 15 15 13 12 14 13 14 16 19 21 18 18 20 21 18 18 18 17 17 19 20 20 20 20
31 34 35 33 31 31 27 23 23 22 23 21 21 24 23 24 21 24 21 20 17 17 17 16 16 17 18 20 20 16 20 23 26 27 23 22 21 19 22 23 23 22 21
33 34 35 34 36 33 30 29 28 27 25 25 25 24 22 27 24 23 25 25 23 23 22 20 19 20 21 21 20 21 18 21 21 25 25 23 22 21 25 25 25 24 24
35 40 36 35 35 38 35 35 33 33 29 28 27 26 27 24 25 25 26 23 27 26 26 24 23 23 23 23 24 23 21 21 23 28 27 25 25 25 26 27 27 25 25
39 43 37 38 41 45 41 38 36 35 35 31 25 27 26 28 30 29 26 27 27 28 26 25 26 25 25 24 27 28 26 23 24 23 23 24 27 27 28 27 27 28 27
38 41 37 44 47 48 50 43 42 42 39 37 34 27 24 28 32 32 30 29 28 28 27 26 27 25 24 26 25 28 29 24 25 26 24 22 30 30 29 30 30 29 29
34 41 45 52 45 53 50 56 48 46 46 43 41 28 16 17 30 34 36 34 32 32 29 31 30 29 26 27 25 27 30 28 24 28 27 25 25 30 31 33 32 30 29
22 36 46 48 51 54 59 55 58 54 50 48 46 45 34 17 18 13 28 36 35 34 31 32 32 31 29 29 28 26 27 30 26 30 32 32 28 28 30 33 34 33 32
36 26 33 48 49 50 53 55 53 63 56 53 52 51 48 33 23 21 19 27 32 35 35 33 34 33 30 28 26 25 25 28 28 26 32 34 31 30 30 31 31 36 33
48 40 26 31 47 49 48 49 56 59 60 50 48 49 51 49 41 32 25 25 27 29 32 34 34 30 25 24 25 24 23 24 28 29 29 35 40 36 34 33 34 35 36
47 50 42 30 36 47 51 52 53 51 42 46 44 45 50 51 48 44 34 30 28 28 27 30 30 28 28 25 23 22 22 23 25 28 28 33 37 39 37 36 35 36 37
43 46 46 44 35 37 45 47 50 48 41 43 57 43 48 43 45 47 46 45 36 31 33 33 31 34 31 30 25 22 21 22 25 28 30 34 35 38 42 41 38 38 38
39 42 45 43 43 38 43 43 48 45 43 44 42 51 59 46 41 41 44 41 36 27 35 32 31 33 32 30 28 24 21 20 20 26 32 36 37 39 45 46 43 41 40
39 40 43 46 42 40 39 41 45 46 42 45 44 47 43 43 42 43 41 41 39 35 32 28 30 33 33 31 28 24 25 24 21 23 26 35 38 40 44 51 48 45 43
33 34 37 38 42 36 32 38 43 39 36 46 49 44 42 44 40 43 40 41 38 34 35 29 27 28 29 28 27 27 28 29 27 24 26 29 35 39 42 45 55 49 47
25 25 25 26 30 33 33 42 42 48 51 45 48 45 42 44 44 41 41 37 37 34 32 28 25 25 31 30 28 29 27 26 26 27 25 28 30 34 38 45 50 56 47
5 11 17 21 27 32 34 33 28 37 36 45 44 49 46 44 44 42 42 36 35 34 29 28 26 29 32 27 25 25 26 30 30 28 25 31 30 33 37 38 43 51 50
18 15 10 11 19 26 34 34 34 32 35 40 39 42 42 43 41 41 41 36 37 33 30 26 23 25 26 21 22 26 27 29 25 30 36 36 37 34 34 33 41 50 51
34 29 23 19 11 8 9 9 24 26 32 35 35 41 43 43 41 42 39 38 35 30 27 25 25 24 24 25 25 26 30 32 30 30 33 32 38 36 34 35 38 41 54
44 29 37 37 41 33 24 15 15 18 27 31 24 22 26 37 38 38 33 29 26 27 25 24 24 27 27 29 30 30 29 28 31 34 33 36 34 33 31 34 32 41 46
52 53 51 48 48 42 36 37 33 26 29 22 19 17 13 14 15 21 28 21 20 20 19 18 21 22 23 26 26 27 29 29 30 30 31 32 38 37 37 38 38 39 41
48 51 49 49 49 45 41 41 38 37 36 34 33 32 22 16 11 4 9 7 5 8 11 12 13 15 19 20 21 23 25 28 31 32 35 38 34 36 42 44 47 45 42
44 45 45 46 45 44 42 39 39 38 37 37 34 29 29 23 19 18 8 4 4 5 5 6 7 10 11 16 18 18 18 21 24 24 24 31 36 42 44 45 47 48 48
43 43 43 42 40 41 40 38 38 36 35 35 32 30 29 32 26 14 16 13 8 7 6 4 9 6 7 9 11 13 15 15 14 14 18 20 27 31 32 37 40 42 44

GFSMA_850_spd_129.txt.gz
Wind_Speed
30 31 32 33 33 33 32 31 29 28 27 25 24 24 25 25 24 25 20 18 17 16 15 15 16 19 20 20 19 18 16 15 13 13 13 11 10 10 11 15 17 18 19
30 31 34 35 36 37 36 34 32 31 29 27 26 25 26 27 27 28 25 21 20 18 16 16 17 19 22 22 22 21 19 15 17 15 16 14 13 11 11 14 19 20 20
26 31 34 36 37 38 38 37 35 34 32 30 30 28 28 30 30 29 29 24 22 20 18 16 16 19 22 23 23 23 23 20 18 18 18 18 16 14 15 14 17 22 24
35 27 38 39 35 34 41 40 38 38 36 35 33 32 31 30 31 30 31 28 25 24 22 19 16 18 22 23 23 23 25 24 22 21 21 20 18 18 17 18 16 20 21
29 36 33 38 35 31 41 42 41 40 38 38 36 34 34 36 35 31 33 32 30 28 26 24 21 19 22 24 22 23 24 25 26 24 24 22 21 21 20 20 20 20 23
32 31 31 29 51 67 35 42 44 43 41 36 35 35 34 35 36 36 35 33 32 31 29 27 25 24 23 24 23 23 23 24 25 26 24 23 23 23 23 23 23 22 25
33 34 29 26 36 51 55 31 43 43 42 39 33 34 35 34 38 36 37 36 35 34 33 31 30 29 27 26 26 26 26 25 25 27 26 24 25 26 25 27 26 23 25
35 35 30 29 28 36 57 58 41 38 38 42 40 35 24 32 38 41 40 38 38 36 36 35 34 35 32 30 28 28 29 28 27 27 28 28 26 27 29 32 28 22 27
33 37 35 33 27 30 35 55 50 45 39 42 40 31 14 15 29 40 46 43 43 41 40 39 37 36 35 32 29 26 24 26 26 26 28 29 26 28 31 30 26 26 27
36 34 38 33 33 30 31 40 66 60 44 41 38 37 41 30 14 19 34 48 48 46 45 43 42 39 36 36 32 30 25 24 25 26 26 29 27 27 27 30 26 28 26
38 35 34 35 34 34 30 24 49 73 51 56 57 42 43 42 45 39 25 30 49 53 50 47 44 43 41 38 37 33 31 26 26 26 26 27 28 28 30 27 29 29 29
36 34 32 33 33 35 33 31 24 50 59 51 54 47 42 39 43 44 43 32 35 45 56 51 48 47 44 41 39 34 33 28 27 26 26 26 29 31 29 29 32 31 30
34 32 29 28 29 33 36 35 36 41 42 39 46 49 49 46 41 38 44 45 39 34 40 48 50 46 46 43 41 35 30 30 27 27 27 27 27 30 33 32 29 30 30
28 26 25 25 26 27 32 37 40 39 36 36 41 44 45 44 44 36 22 37 33 48 40 38 35 40 42 43 39 34 31 29 27 27 27 27 27 27 30 31 30 33 35
24 24 23 26 24 23 25 30 37 39 38 39 39 36 39 38 39 29 51 59 29 39 45 37 37 36 34 37 35 34 32 30 29 28 26 25 25 26 28 30 32 34 38
21 21 21 23 18 18 20 23 26 31 37 36 32 31 32 30 29 30 42 50 40 36 35 33 32 35 35 35 34 33 32 30 31 31 28 27 26 26 27 29 34 35 38
14 13 12 11 6 11 14 19 21 22 27 29 30 28 27 27 30 34 38 49 49 35 37 43 38 39 35 37 40 37 33 33 34 33 30 31 30 27 27 28 31 36 38
14 12 10 7 5 7 11 15 19 20 19 20 24 26 22 26 30 31 34 44 55 41 34 34 45 43 40 38 37 34 34 33 34 34 34 33 33 30 30 30 29 30 36
24 20 18 14 11 6 5 9 12 14 17 22 20 23 27 26 28 30 34 34 44 39 40 46 47 45 46 38 39 38 36 33 32 30 32 34 33 32 32 32 31 31 30
35 34 31 29 24 18 11 6 2 10 11 14 15 18 21 27 29 32 33 30 33 39 40 42 45 52 44 37 36 39 37 36 33 33 31 29 30 30 31 32 31 30 31
43 43 40 39 37 32 27 20 14 11 10 9 8 9 11 21 27 29 33 35 39 39 44 41 42 42 40 40 43 42 40 37 33 34 33 31 27 29 33 33 33 34 36
44 44 45 44 43 44 34 32 27 25 18 16 15 12 6 2 6 19 27 29 38 43 40 35 36 38 35 37 40 42 41 38 33 34 35 33 32 31 32 37 38 37 35
39 42 43 44 43 40 37 37 39 37 35 31 27 23 21 16 14 12 7 5 9 29 30 36 32 25 28 29 30 34 37 35 34 32 33 34 34 33 32 32 32 32 33
39 40 41 39 39 38 34 35 35 37 38 37 36 32 28 25 21 18 16 16 16 13 12 10 3 6 4 13 15 25 21 26 30 31 33 31 35 33 33 33 35 35 35
36 37 37 38 38 38 36 32 30 32 33 34 33 32 30 29 24 21 19 19 19 20 17 11 11 5 6 12 9 6 9 13 14 17 21 22 27 27 29 31 34 37 39
34 34 34 36 36 36 35 33 31 32 30 30 29 30 30 26 24 23 22 23 23 22 16 12 10 8 5 4 6 8 7 4 3 9 12 12 18 18 10 20 23 27 30

GFSMA_850_spd_132.txt.gz
Wind_Speed
21 22 25 27 29 30 31 30 29 28 27 27 26 26 25 26 26 26 26 22 21 19 18 18 17 18 21 21 20 18 17 16 15 14 12 11 10 9 10 13 16 16 18
26 24 24 26 29 32 34 34 33 31 30 29 29 29 28 28 28 28 28 26 23 21 20 19 19 18 22 22 22 20 19 18 17 16 14 14 12 11 10 11 11 18 20
17 23 24 30 27 33 36 35 34 33 33 32 33 32 31 30 31 31 30 29 26 24 23 22 20 20 21 22 23 22 21 21 21 17 17 17 15 14 13 12 13 15 20
20 21 22 26 41 30 41 35 32 33 33 35 36 35 35 33 33 33 33 34 31 27 26 25 22 20 21 22 23 22 23 24 23 21 19 18 18 17 17 15 14 14 19
23 26 27 23 27 41 43 21 26 27 31 36 37 39 38 36 36 35 37 35 34 31 29 27 25 22 22 24 24 23 23 24 24 25 24 22 22 20 20 19 16 16 17
26 26 28 26 25 34 39 32 44 24 29 35 40 39 40 38 39 38 37 36 36 35 33 30 28 27 25 25 26 26 25 25 25 25 25 25 25 23 22 21 19 19 20
30 29 30 31 27 30 32 25 39 55 46 38 36 41 38 38 43 41 42 40 37 38 36 34 32 31 29 27 28 28 27 28 27 26 25 25 26 26 24 25 24 21 22
35 35 33 34 31 31 31 34 28 39 64 65 40 38 30 33 41 44 43 45 42 40 38 37 36 35 34 32 31 31 30 29 30 28 28 25 27 27 27 25 24 28 25
37 35 34 34 36 30 33 31 31 36 44 54 60 37 24 22 30 45 44 45 43 43 41 40 39 39 39 37 35 34 32 30 30 31 30 27 25 26 28 27 30 28 29
35 34 33 32 35 34 34 37 33 33 45 54 56 49 43 26 19 29 36 44 43 45 43 42 42 42 41 40 39 38 34 31 28 29 32 30 26 26 28 28 28 34 30
30 30 30 28 32 35 34 38 37 27 43 59 54 49 36 36 32 32 20 24 32 41 47 46 44 44 45 44 43 40 37 33 31 28 29 30 28 25 28 28 27 27 28
27 27 28 27 28 33 33 35 39 37 32 48 60 62 59 41 40 40 36 34 36 35 30 30 38 48 48 47 47 44 40 35 33 32 32 31 30 27 27 29 29 26 27
26 25 25 24 26 28 32 33 37 35 33 40 56 63 52 51 58 46 42 37 40 35 23 25 29 31 36 49 49 47 44 40 36 34 37 35 32 30 28 29 33 30 28
24 24 25 24 22 24 27 29 35 41 40 37 37 45 56 60 55 50 40 43 29 27 37 37 35 40 35 36 43 48 46 40 38 34 35 36 33 32 31 29 30 32 31
20 20 22 23 22 25 24 24 27 33 40 42 38 42 50 36 50 55 57 42 38 20 17 35 46 64 46 40 38 34 41 40 38 36 35 36 33 33 31 30 29 31 31
15 14 14 14 16 14 13 16 19 24 30 35 37 34 31 35 37 37 36 38 43 29 40 48 36 48 56 41 37 32 29 34 33 34 35 35 33 32 32 31 31 30 31
15 12 11 7 4 4 6 9 12 14 17 22 26 32 35 31 30 29 29 29 39 35 37 30 36 46 54 38 31 31 30 29 34 34 36 35 35 35 34 31 30 30 31
24 20 17 13 8 3 3 7 9 11 11 12 14 21 23 28 31 30 29 29 31 34 31 39 42 39 46 43 44 36 31 33 36 37 38 37 36 37 36 34 31 30 31
32 29 26 24 18 14 8 5 4 7 10 13 16 17 21 23 23 27 30 31 30 32 33 41 40 43 47 45 46 41 35 34 35 34 35 37 37 38 38 35 33 33 33
40 38 37 35 30 24 19 15 12 12 10 7 7 11 16 18 26 22 22 26 26 30 31 38 50 40 43 48 45 46 41 37 38 38 39 36 36 37 39 37 36 34 33
42 42 42 43 42 39 32 26 23 23 20 18 18 17 6 6 14 20 21 23 26 33 32 31 38 41 40 38 41 43 39 40 41 41 40 36 36 36 35 37 37 36 34
40 40 43 43 44 44 37 35 31 32 32 29 26 20 16 14 9 3 14 20 24 28 29 30 30 29 33 34 35 37 33 32 36 41 40 39 38 36 35 34 35 35 35
38 40 40 40 41 39 38 39 37 36 36 38 36 32 27 22 17 13 12 3 7 14 16 19 19 21 23 23 32 35 40 39 32 32 38 40 38 34 34 34 35 35 36
37 38 40 39 41 41 37 33 33 34 35 35 35 35 32 30 27 21 20 19 20 17 14 11 8 7 4 10 14 14 18 24 23 20 28 30 34 35 33 31 30 29 29
36 37 36 38 39 40 37 36 34 34 34 33 31 31 31 28 25 22 22 23 22 22 20 17 16 13 9 5 2 1 8 5 9 12 11 14 18 22 26 29 30 34 36
34 34 36 37 36 37 37 35 34 33 33 32 31 32 31 28 24 23 22 22 24 23 19 16 14 15 15 15 13 9 9 5 2 4 6 7 13 8 8 18 23 26 27